<?xml version="1.0" encoding="UTF-8" standalone="no" ?>
<gpx xmlns="http://www.topografix.com/GPX/1/1" xmlns:xsi="http://www.w3.org/2001/XMLSchema-instance" xsi:schemaLocation="http://www.topografix.com/GPX/1/1 http://www.topografix.com/GPX/1/1/gpx.xsd" version="1.1" creator="VisuGPX - https://www.visugpx.com">
  <metadata>
    <name>106 jura</name>
    <desc><![CDATA[106 jura]]></desc>
  </metadata>
  <wpt lat="46.54231" lon="5.85082">
    <ele>1044.4</ele>
    <name><![CDATA[Col de Joux]]></name>
    <type><![CDATA[col]]></type>
  </wpt>
  <wpt lat="46.60763" lon="5.90384">
    <ele>894.3</ele>
    <name><![CDATA[Col Cluse d'Ilay]]></name>
    <type><![CDATA[col]]></type>
  </wpt>
  <wpt lat="46.57452" lon="5.9433">
    <ele>902.9</ele>
    <name><![CDATA[restaurant]]></name>
    <type><![CDATA[restaurant]]></type>
  </wpt>
  <trk>
    <name><![CDATA[106 jura_1]]></name>
    <extensions>
      <line xmlns="http://www.topografix.com/GPX/gpx_style/0/2">
        <color>0000FF</color>
        <width>4</width>
      </line>
    </extensions>
    <trkseg>
      <trkpt lat="46.68419" lon="5.5684">
        <ele>276</ele>
        <time>2021-05-08T16:09:30Z</time>
      </trkpt>
      <trkpt lat="46.68415" lon="5.56804">
        <ele>275</ele>
        <time>2021-05-08T16:09:35Z</time>
      </trkpt>
      <trkpt lat="46.68389" lon="5.56756">
        <ele>276</ele>
        <time>2021-05-08T16:09:42Z</time>
      </trkpt>
      <trkpt lat="46.68363" lon="5.56689">
        <ele>276</ele>
        <time>2021-05-08T16:09:52Z</time>
      </trkpt>
      <trkpt lat="46.68328" lon="5.56631">
        <ele>274</ele>
        <time>2021-05-08T16:10:01Z</time>
      </trkpt>
      <trkpt lat="46.68315" lon="5.56582">
        <ele>272</ele>
        <time>2021-05-08T16:10:08Z</time>
      </trkpt>
      <trkpt lat="46.68297" lon="5.5654">
        <ele>270</ele>
        <time>2021-05-08T16:10:14Z</time>
      </trkpt>
      <trkpt lat="46.68226" lon="5.56425">
        <ele>268</ele>
        <time>2021-05-08T16:10:33Z</time>
      </trkpt>
      <trkpt lat="46.6822" lon="5.56421">
        <ele>269</ele>
        <time>2021-05-08T16:10:34Z</time>
      </trkpt>
      <trkpt lat="46.68187" lon="5.56377">
        <ele>270</ele>
        <time>2021-05-08T16:10:42Z</time>
      </trkpt>
      <trkpt lat="46.68183" lon="5.56366">
        <ele>270</ele>
        <time>2021-05-08T16:10:43Z</time>
      </trkpt>
      <trkpt lat="46.68106" lon="5.56249">
        <ele>269</ele>
        <time>2021-05-08T16:11:03Z</time>
      </trkpt>
      <trkpt lat="46.68096" lon="5.56228">
        <ele>269</ele>
        <time>2021-05-08T16:11:06Z</time>
      </trkpt>
      <trkpt lat="46.68072" lon="5.56141">
        <ele>265</ele>
        <time>2021-05-08T16:11:18Z</time>
      </trkpt>
      <trkpt lat="46.68044" lon="5.56019">
        <ele>262</ele>
        <time>2021-05-08T16:11:33Z</time>
      </trkpt>
      <trkpt lat="46.68008" lon="5.55961">
        <ele>261</ele>
        <time>2021-05-08T16:11:43Z</time>
      </trkpt>
      <trkpt lat="46.67999" lon="5.5595">
        <ele>261</ele>
        <time>2021-05-08T16:11:45Z</time>
      </trkpt>
      <trkpt lat="46.67988" lon="5.55942">
        <ele>262</ele>
        <time>2021-05-08T16:11:47Z</time>
      </trkpt>
      <trkpt lat="46.67895" lon="5.55892">
        <ele>261</ele>
        <time>2021-05-08T16:12:05Z</time>
      </trkpt>
      <trkpt lat="46.67884" lon="5.55877">
        <ele>260</ele>
        <time>2021-05-08T16:12:07Z</time>
      </trkpt>
      <trkpt lat="46.67885" lon="5.55877">
        <ele>260.3</ele>
      </trkpt>
      <trkpt lat="46.67879" lon="5.55871">
        <ele>260.1</ele>
      </trkpt>
      <trkpt lat="46.67871" lon="5.55864">
        <ele>260</ele>
      </trkpt>
      <trkpt lat="46.67864" lon="5.55859">
        <ele>260</ele>
      </trkpt>
      <trkpt lat="46.67863" lon="5.55858">
        <ele>260</ele>
      </trkpt>
      <trkpt lat="46.67847" lon="5.55847">
        <ele>260.1</ele>
      </trkpt>
      <trkpt lat="46.67829" lon="5.55835">
        <ele>260.2</ele>
      </trkpt>
      <trkpt lat="46.67825" lon="5.55832">
        <ele>260.2</ele>
      </trkpt>
      <trkpt lat="46.67786" lon="5.55806">
        <ele>260.2</ele>
      </trkpt>
      <trkpt lat="46.67755" lon="5.55747">
        <ele>257.8</ele>
      </trkpt>
      <trkpt lat="46.67752" lon="5.55743">
        <ele>257.9</ele>
      </trkpt>
      <trkpt lat="46.67748" lon="5.55736">
        <ele>258</ele>
      </trkpt>
      <trkpt lat="46.67735" lon="5.55711">
        <ele>258</ele>
        <time>2021-05-08T11:29:37Z</time>
      </trkpt>
      <trkpt lat="46.67738" lon="5.55703">
        <ele>258</ele>
        <time>2021-05-08T11:29:38Z</time>
      </trkpt>
      <trkpt lat="46.67736" lon="5.55694">
        <ele>258</ele>
        <time>2021-05-08T11:29:39Z</time>
      </trkpt>
      <trkpt lat="46.67741" lon="5.55687">
        <ele>258</ele>
        <time>2021-05-08T11:29:40Z</time>
      </trkpt>
      <trkpt lat="46.67748" lon="5.55664">
        <ele>257</ele>
        <time>2021-05-08T11:29:43Z</time>
      </trkpt>
      <trkpt lat="46.67751" lon="5.55646">
        <ele>257</ele>
        <time>2021-05-08T11:29:46Z</time>
      </trkpt>
      <trkpt lat="46.67742" lon="5.55683">
        <ele>258</ele>
        <time>2021-05-08T11:29:50Z</time>
      </trkpt>
      <trkpt lat="46.67748" lon="5.55664">
        <ele>257</ele>
        <time>2021-05-08T11:29:53Z</time>
      </trkpt>
      <trkpt lat="46.67752" lon="5.55635">
        <ele>257</ele>
        <time>2021-05-08T11:29:57Z</time>
      </trkpt>
      <trkpt lat="46.67753" lon="5.55575">
        <ele>258</ele>
        <time>2021-05-08T11:30:04Z</time>
      </trkpt>
      <trkpt lat="46.67751" lon="5.55529">
        <ele>257</ele>
        <time>2021-05-08T11:30:09Z</time>
      </trkpt>
      <trkpt lat="46.67758" lon="5.55515">
        <ele>256</ele>
        <time>2021-05-08T11:30:12Z</time>
      </trkpt>
      <trkpt lat="46.67767" lon="5.55514">
        <ele>256</ele>
        <time>2021-05-08T11:30:13Z</time>
      </trkpt>
      <trkpt lat="46.67776" lon="5.55509">
        <ele>256</ele>
        <time>2021-05-08T11:30:15Z</time>
      </trkpt>
      <trkpt lat="46.67672" lon="5.55509">
        <ele>260</ele>
        <time>2021-05-08T11:30:33Z</time>
      </trkpt>
      <trkpt lat="46.67641" lon="5.55502">
        <ele>261</ele>
        <time>2021-05-08T11:30:39Z</time>
      </trkpt>
      <trkpt lat="46.67625" lon="5.55496">
        <ele>261</ele>
        <time>2021-05-08T11:30:42Z</time>
      </trkpt>
      <trkpt lat="46.67618" lon="5.55479">
        <ele>260</ele>
        <time>2021-05-08T11:30:44Z</time>
      </trkpt>
      <trkpt lat="46.67634" lon="5.55298">
        <ele>255</ele>
        <time>2021-05-08T11:31:07Z</time>
      </trkpt>
      <trkpt lat="46.67634" lon="5.55291">
        <ele>255</ele>
        <time>2021-05-08T11:31:07Z</time>
      </trkpt>
      <trkpt lat="46.67626" lon="5.55278">
        <ele>255</ele>
        <time>2021-05-08T11:31:10Z</time>
      </trkpt>
      <trkpt lat="46.67409" lon="5.55158">
        <ele>259</ele>
        <time>2021-05-08T11:31:51Z</time>
      </trkpt>
      <trkpt lat="46.67397" lon="5.55192">
        <ele>259</ele>
        <time>2021-05-08T11:31:56Z</time>
      </trkpt>
      <trkpt lat="46.67317" lon="5.55119">
        <ele>257</ele>
        <time>2021-05-08T11:32:12Z</time>
      </trkpt>
      <trkpt lat="46.67298" lon="5.55099">
        <ele>258</ele>
        <time>2021-05-08T11:32:17Z</time>
      </trkpt>
      <trkpt lat="46.67214" lon="5.55047">
        <ele>261</ele>
        <time>2021-05-08T11:32:33Z</time>
      </trkpt>
      <trkpt lat="46.6717" lon="5.54992">
        <ele>263</ele>
        <time>2021-05-08T11:32:43Z</time>
      </trkpt>
      <trkpt lat="46.6707" lon="5.54922">
        <ele>262</ele>
        <time>2021-05-08T11:33:03Z</time>
      </trkpt>
      <trkpt lat="46.67059" lon="5.54912">
        <ele>262</ele>
        <time>2021-05-08T11:33:05Z</time>
      </trkpt>
      <trkpt lat="46.67036" lon="5.54886">
        <ele>262</ele>
        <time>2021-05-08T11:33:10Z</time>
      </trkpt>
      <trkpt lat="46.66975" lon="5.54775">
        <ele>263</ele>
        <time>2021-05-08T11:33:28Z</time>
      </trkpt>
      <trkpt lat="46.66939" lon="5.54732">
        <ele>264</ele>
        <time>2021-05-08T11:33:36Z</time>
      </trkpt>
      <trkpt lat="46.66911" lon="5.54711">
        <ele>264</ele>
        <time>2021-05-08T11:33:42Z</time>
      </trkpt>
      <trkpt lat="46.66881" lon="5.54697">
        <ele>266</ele>
        <time>2021-05-08T11:33:47Z</time>
      </trkpt>
      <trkpt lat="46.66873" lon="5.54697">
        <ele>266</ele>
        <time>2021-05-08T11:33:49Z</time>
      </trkpt>
      <trkpt lat="46.66849" lon="5.54704">
        <ele>267</ele>
        <time>2021-05-08T11:33:53Z</time>
      </trkpt>
      <trkpt lat="46.66821" lon="5.54729">
        <ele>269</ele>
        <time>2021-05-08T11:33:59Z</time>
      </trkpt>
      <trkpt lat="46.66807" lon="5.54736">
        <ele>271</ele>
        <time>2021-05-08T11:34:01Z</time>
      </trkpt>
      <trkpt lat="46.66796" lon="5.54735">
        <ele>273</ele>
        <time>2021-05-08T11:34:03Z</time>
      </trkpt>
      <trkpt lat="46.66785" lon="5.5473">
        <ele>274</ele>
        <time>2021-05-08T11:34:05Z</time>
      </trkpt>
      <trkpt lat="46.66774" lon="5.54719">
        <ele>276</ele>
        <time>2021-05-08T11:34:08Z</time>
      </trkpt>
      <trkpt lat="46.66766" lon="5.54701">
        <ele>276</ele>
        <time>2021-05-08T11:34:10Z</time>
      </trkpt>
      <trkpt lat="46.66762" lon="5.54677">
        <ele>276</ele>
        <time>2021-05-08T11:34:13Z</time>
      </trkpt>
      <trkpt lat="46.6677" lon="5.54621">
        <ele>276</ele>
        <time>2021-05-08T11:34:20Z</time>
      </trkpt>
      <trkpt lat="46.66769" lon="5.54605">
        <ele>276</ele>
        <time>2021-05-08T11:34:22Z</time>
      </trkpt>
      <trkpt lat="46.6676" lon="5.54577">
        <ele>277</ele>
        <time>2021-05-08T11:34:26Z</time>
      </trkpt>
      <trkpt lat="46.66754" lon="5.54566">
        <ele>278</ele>
        <time>2021-05-08T11:34:28Z</time>
      </trkpt>
      <trkpt lat="46.66662" lon="5.54487">
        <ele>286</ele>
        <time>2021-05-08T11:34:47Z</time>
      </trkpt>
      <trkpt lat="46.66562" lon="5.5439">
        <ele>291</ele>
        <time>2021-05-08T11:35:08Z</time>
      </trkpt>
      <trkpt lat="46.66434" lon="5.54309">
        <ele>300</ele>
        <time>2021-05-08T11:35:33Z</time>
      </trkpt>
      <trkpt lat="46.66415" lon="5.54302">
        <ele>301</ele>
        <time>2021-05-08T11:35:37Z</time>
      </trkpt>
      <trkpt lat="46.66406" lon="5.54304">
        <ele>302</ele>
        <time>2021-05-08T11:35:38Z</time>
      </trkpt>
      <trkpt lat="46.664" lon="5.54302">
        <ele>302</ele>
        <time>2021-05-08T11:35:39Z</time>
      </trkpt>
      <trkpt lat="46.66382" lon="5.54277">
        <ele>303</ele>
        <time>2021-05-08T11:35:44Z</time>
      </trkpt>
      <trkpt lat="46.66062" lon="5.54079">
        <ele>306</ele>
        <time>2021-05-08T11:36:46Z</time>
      </trkpt>
      <trkpt lat="46.65907" lon="5.54026">
        <ele>296</ele>
        <time>2021-05-08T11:37:14Z</time>
      </trkpt>
      <trkpt lat="46.65882" lon="5.54011">
        <ele>294</ele>
        <time>2021-05-08T11:37:19Z</time>
      </trkpt>
      <trkpt lat="46.65835" lon="5.53977">
        <ele>291</ele>
        <time>2021-05-08T11:37:28Z</time>
      </trkpt>
      <trkpt lat="46.65787" lon="5.53959">
        <ele>287</ele>
        <time>2021-05-08T11:37:37Z</time>
      </trkpt>
      <trkpt lat="46.65774" lon="5.53959">
        <ele>286</ele>
        <time>2021-05-08T11:37:39Z</time>
      </trkpt>
      <trkpt lat="46.65708" lon="5.5397">
        <ele>287</ele>
        <time>2021-05-08T11:37:51Z</time>
      </trkpt>
      <trkpt lat="46.65691" lon="5.53967">
        <ele>287</ele>
        <time>2021-05-08T11:37:54Z</time>
      </trkpt>
      <trkpt lat="46.65615" lon="5.53933">
        <ele>285</ele>
        <time>2021-05-08T11:38:08Z</time>
      </trkpt>
      <trkpt lat="46.65587" lon="5.53918">
        <ele>285</ele>
        <time>2021-05-08T11:38:14Z</time>
      </trkpt>
      <trkpt lat="46.65524" lon="5.53869">
        <ele>284</ele>
        <time>2021-05-08T11:38:26Z</time>
      </trkpt>
      <trkpt lat="46.65467" lon="5.53837">
        <ele>282</ele>
        <time>2021-05-08T11:38:37Z</time>
      </trkpt>
      <trkpt lat="46.65414" lon="5.53815">
        <ele>279</ele>
        <time>2021-05-08T11:38:47Z</time>
      </trkpt>
      <trkpt lat="46.65351" lon="5.53801">
        <ele>275</ele>
        <time>2021-05-08T11:38:58Z</time>
      </trkpt>
      <trkpt lat="46.6525" lon="5.53788">
        <ele>272</ele>
        <time>2021-05-08T11:39:16Z</time>
      </trkpt>
      <trkpt lat="46.65226" lon="5.53791">
        <ele>272</ele>
        <time>2021-05-08T11:39:21Z</time>
      </trkpt>
      <trkpt lat="46.65115" lon="5.53828">
        <ele>270</ele>
        <time>2021-05-08T11:39:41Z</time>
      </trkpt>
      <trkpt lat="46.65005" lon="5.53861">
        <ele>267</ele>
        <time>2021-05-08T11:40:01Z</time>
      </trkpt>
      <trkpt lat="46.64931" lon="5.5388">
        <ele>265</ele>
        <time>2021-05-08T11:40:14Z</time>
      </trkpt>
      <trkpt lat="46.6489" lon="5.53909">
        <ele>265</ele>
        <time>2021-05-08T11:40:22Z</time>
      </trkpt>
      <trkpt lat="46.64839" lon="5.5395">
        <ele>266</ele>
        <time>2021-05-08T11:40:33Z</time>
      </trkpt>
      <trkpt lat="46.64739" lon="5.54019">
        <ele>269</ele>
        <time>2021-05-08T11:40:52Z</time>
      </trkpt>
      <trkpt lat="46.64694" lon="5.54042">
        <ele>269</ele>
        <time>2021-05-08T11:41:01Z</time>
      </trkpt>
      <trkpt lat="46.64654" lon="5.54051">
        <ele>270</ele>
        <time>2021-05-08T11:41:08Z</time>
      </trkpt>
      <trkpt lat="46.64633" lon="5.54061">
        <ele>270</ele>
        <time>2021-05-08T11:41:12Z</time>
      </trkpt>
      <trkpt lat="46.64558" lon="5.54118">
        <ele>273</ele>
        <time>2021-05-08T11:41:27Z</time>
      </trkpt>
      <trkpt lat="46.6456" lon="5.54146">
        <ele>274</ele>
        <time>2021-05-08T11:41:30Z</time>
      </trkpt>
      <trkpt lat="46.646" lon="5.54245">
        <ele>276</ele>
        <time>2021-05-08T11:41:44Z</time>
      </trkpt>
      <trkpt lat="46.64635" lon="5.54348">
        <ele>277</ele>
        <time>2021-05-08T11:41:59Z</time>
      </trkpt>
      <trkpt lat="46.64673" lon="5.5449">
        <ele>281</ele>
        <time>2021-05-08T11:42:17Z</time>
      </trkpt>
      <trkpt lat="46.64707" lon="5.54555">
        <ele>281</ele>
        <time>2021-05-08T11:42:27Z</time>
      </trkpt>
      <trkpt lat="46.64728" lon="5.54606">
        <ele>280</ele>
        <time>2021-05-08T11:42:34Z</time>
      </trkpt>
      <trkpt lat="46.64737" lon="5.54643">
        <ele>280</ele>
        <time>2021-05-08T11:42:39Z</time>
      </trkpt>
      <trkpt lat="46.64737" lon="5.54672">
        <ele>280</ele>
        <time>2021-05-08T11:42:43Z</time>
      </trkpt>
      <trkpt lat="46.64726" lon="5.54779">
        <ele>286</ele>
        <time>2021-05-08T11:42:56Z</time>
      </trkpt>
      <trkpt lat="46.64695" lon="5.54895">
        <ele>290</ele>
        <time>2021-05-08T11:43:11Z</time>
      </trkpt>
      <trkpt lat="46.64683" lon="5.54912">
        <ele>291</ele>
        <time>2021-05-08T11:43:14Z</time>
      </trkpt>
      <trkpt lat="46.6466" lon="5.54936">
        <ele>294</ele>
        <time>2021-05-08T11:43:19Z</time>
      </trkpt>
      <trkpt lat="46.64632" lon="5.54986">
        <ele>292</ele>
        <time>2021-05-08T11:43:27Z</time>
      </trkpt>
      <trkpt lat="46.64591" lon="5.55102">
        <ele>284</ele>
        <time>2021-05-08T11:43:43Z</time>
      </trkpt>
      <trkpt lat="46.6453" lon="5.55241">
        <ele>287</ele>
        <time>2021-05-08T11:44:03Z</time>
      </trkpt>
      <trkpt lat="46.64485" lon="5.55322">
        <ele>287</ele>
        <time>2021-05-08T11:44:16Z</time>
      </trkpt>
      <trkpt lat="46.64466" lon="5.5535">
        <ele>289</ele>
        <time>2021-05-08T11:44:21Z</time>
      </trkpt>
      <trkpt lat="46.64418" lon="5.55406">
        <ele>288</ele>
        <time>2021-05-08T11:44:32Z</time>
      </trkpt>
      <trkpt lat="46.64388" lon="5.55451">
        <ele>287</ele>
        <time>2021-05-08T11:44:39Z</time>
      </trkpt>
      <trkpt lat="46.64366" lon="5.5549">
        <ele>287</ele>
        <time>2021-05-08T11:44:45Z</time>
      </trkpt>
      <trkpt lat="46.64168" lon="5.55871">
        <ele>295</ele>
        <time>2021-05-08T11:45:44Z</time>
      </trkpt>
      <trkpt lat="46.64157" lon="5.55894">
        <ele>295</ele>
        <time>2021-05-08T11:45:47Z</time>
      </trkpt>
      <trkpt lat="46.64125" lon="5.55978">
        <ele>295</ele>
        <time>2021-05-08T11:45:59Z</time>
      </trkpt>
      <trkpt lat="46.6407" lon="5.56058">
        <ele>296</ele>
        <time>2021-05-08T11:46:13Z</time>
      </trkpt>
      <trkpt lat="46.64056" lon="5.56085">
        <ele>297</ele>
        <time>2021-05-08T11:46:17Z</time>
      </trkpt>
      <trkpt lat="46.64046" lon="5.56114">
        <ele>299</ele>
        <time>2021-05-08T11:46:21Z</time>
      </trkpt>
      <trkpt lat="46.64021" lon="5.56223">
        <ele>301</ele>
        <time>2021-05-08T11:46:35Z</time>
      </trkpt>
      <trkpt lat="46.64009" lon="5.56253">
        <ele>301</ele>
        <time>2021-05-08T11:46:39Z</time>
      </trkpt>
      <trkpt lat="46.63995" lon="5.56279">
        <ele>301</ele>
        <time>2021-05-08T11:46:43Z</time>
      </trkpt>
      <trkpt lat="46.63982" lon="5.56297">
        <ele>302</ele>
        <time>2021-05-08T11:46:46Z</time>
      </trkpt>
      <trkpt lat="46.63968" lon="5.56311">
        <ele>303</ele>
        <time>2021-05-08T11:46:49Z</time>
      </trkpt>
      <trkpt lat="46.63944" lon="5.56329">
        <ele>305</ele>
        <time>2021-05-08T11:46:54Z</time>
      </trkpt>
      <trkpt lat="46.63897" lon="5.56347">
        <ele>310</ele>
        <time>2021-05-08T11:47:03Z</time>
      </trkpt>
      <trkpt lat="46.63884" lon="5.56356">
        <ele>310</ele>
        <time>2021-05-08T11:47:05Z</time>
      </trkpt>
      <trkpt lat="46.63871" lon="5.56371">
        <ele>311</ele>
        <time>2021-05-08T11:47:08Z</time>
      </trkpt>
      <trkpt lat="46.63839" lon="5.56424">
        <ele>312</ele>
        <time>2021-05-08T11:47:17Z</time>
      </trkpt>
      <trkpt lat="46.6382" lon="5.56463">
        <ele>312</ele>
        <time>2021-05-08T11:47:23Z</time>
      </trkpt>
      <trkpt lat="46.63803" lon="5.56507">
        <ele>312</ele>
        <time>2021-05-08T11:47:29Z</time>
      </trkpt>
      <trkpt lat="46.63787" lon="5.56591">
        <ele>315</ele>
        <time>2021-05-08T11:47:40Z</time>
      </trkpt>
      <trkpt lat="46.63768" lon="5.5664">
        <ele>316</ele>
        <time>2021-05-08T11:47:47Z</time>
      </trkpt>
      <trkpt lat="46.63752" lon="5.56669">
        <ele>317</ele>
        <time>2021-05-08T11:47:51Z</time>
      </trkpt>
      <trkpt lat="46.63737" lon="5.5669">
        <ele>318</ele>
        <time>2021-05-08T11:47:55Z</time>
      </trkpt>
      <trkpt lat="46.63644" lon="5.56765">
        <ele>327</ele>
        <time>2021-05-08T11:48:14Z</time>
      </trkpt>
      <trkpt lat="46.63628" lon="5.56788">
        <ele>328</ele>
        <time>2021-05-08T11:48:18Z</time>
      </trkpt>
      <trkpt lat="46.63606" lon="5.5683">
        <ele>330</ele>
        <time>2021-05-08T11:48:24Z</time>
      </trkpt>
      <trkpt lat="46.63575" lon="5.5693">
        <ele>334</ele>
        <time>2021-05-08T11:48:38Z</time>
      </trkpt>
      <trkpt lat="46.63543" lon="5.56991">
        <ele>334</ele>
        <time>2021-05-08T11:48:47Z</time>
      </trkpt>
      <trkpt lat="46.63495" lon="5.57046">
        <ele>336</ele>
        <time>2021-05-08T11:48:58Z</time>
      </trkpt>
      <trkpt lat="46.63372" lon="5.57147">
        <ele>340</ele>
        <time>2021-05-08T11:49:23Z</time>
      </trkpt>
      <trkpt lat="46.63321" lon="5.57192">
        <ele>340</ele>
        <time>2021-05-08T11:49:34Z</time>
      </trkpt>
      <trkpt lat="46.6324" lon="5.57251">
        <ele>339</ele>
        <time>2021-05-08T11:49:50Z</time>
      </trkpt>
      <trkpt lat="46.63157" lon="5.5734">
        <ele>341</ele>
        <time>2021-05-08T11:50:08Z</time>
      </trkpt>
      <trkpt lat="46.63122" lon="5.57363">
        <ele>342</ele>
        <time>2021-05-08T11:50:15Z</time>
      </trkpt>
      <trkpt lat="46.63058" lon="5.57365">
        <ele>345</ele>
        <time>2021-05-08T11:50:26Z</time>
      </trkpt>
      <trkpt lat="46.63033" lon="5.57368">
        <ele>347</ele>
        <time>2021-05-08T11:50:31Z</time>
      </trkpt>
      <trkpt lat="46.62941" lon="5.57407">
        <ele>351</ele>
        <time>2021-05-08T11:50:48Z</time>
      </trkpt>
      <trkpt lat="46.62919" lon="5.57429">
        <ele>351</ele>
        <time>2021-05-08T11:50:52Z</time>
      </trkpt>
      <trkpt lat="46.62836" lon="5.57499">
        <ele>355</ele>
        <time>2021-05-08T11:51:10Z</time>
      </trkpt>
      <trkpt lat="46.62825" lon="5.5752">
        <ele>356</ele>
        <time>2021-05-08T11:51:13Z</time>
      </trkpt>
      <trkpt lat="46.62823" lon="5.57568">
        <ele>355</ele>
        <time>2021-05-08T11:51:19Z</time>
      </trkpt>
      <trkpt lat="46.6282" lon="5.5758">
        <ele>355</ele>
        <time>2021-05-08T11:51:20Z</time>
      </trkpt>
      <trkpt lat="46.62793" lon="5.57619">
        <ele>357</ele>
        <time>2021-05-08T11:51:27Z</time>
      </trkpt>
      <trkpt lat="46.62785" lon="5.5764">
        <ele>356</ele>
        <time>2021-05-08T11:51:30Z</time>
      </trkpt>
      <trkpt lat="46.62775" lon="5.57656">
        <ele>356</ele>
        <time>2021-05-08T11:51:33Z</time>
      </trkpt>
      <trkpt lat="46.62755" lon="5.57676">
        <ele>357</ele>
        <time>2021-05-08T11:51:37Z</time>
      </trkpt>
      <trkpt lat="46.62743" lon="5.57682">
        <ele>358</ele>
        <time>2021-05-08T11:51:39Z</time>
      </trkpt>
      <trkpt lat="46.62714" lon="5.57688">
        <ele>360</ele>
        <time>2021-05-08T11:51:44Z</time>
      </trkpt>
      <trkpt lat="46.62702" lon="5.57688">
        <ele>361</ele>
        <time>2021-05-08T11:51:46Z</time>
      </trkpt>
      <trkpt lat="46.62672" lon="5.57679">
        <ele>362</ele>
        <time>2021-05-08T11:51:52Z</time>
      </trkpt>
      <trkpt lat="46.62609" lon="5.57702">
        <ele>365</ele>
        <time>2021-05-08T11:52:03Z</time>
      </trkpt>
      <trkpt lat="46.62561" lon="5.57731">
        <ele>366</ele>
        <time>2021-05-08T11:52:13Z</time>
      </trkpt>
      <trkpt lat="46.62536" lon="5.57741">
        <ele>366</ele>
        <time>2021-05-08T11:52:17Z</time>
      </trkpt>
      <trkpt lat="46.62473" lon="5.57743">
        <ele>370</ele>
        <time>2021-05-08T11:52:29Z</time>
      </trkpt>
      <trkpt lat="46.62423" lon="5.57735">
        <ele>376</ele>
        <time>2021-05-08T11:52:37Z</time>
      </trkpt>
      <trkpt lat="46.62411" lon="5.57728">
        <ele>380</ele>
        <time>2021-05-08T11:52:40Z</time>
      </trkpt>
      <trkpt lat="46.6241" lon="5.5771">
        <ele>383</ele>
        <time>2021-05-08T11:52:42Z</time>
      </trkpt>
      <trkpt lat="46.62417" lon="5.57704">
        <ele>383</ele>
        <time>2021-05-08T11:52:43Z</time>
      </trkpt>
      <trkpt lat="46.6244" lon="5.57705">
        <ele>380</ele>
        <time>2021-05-08T11:52:48Z</time>
      </trkpt>
      <trkpt lat="46.62461" lon="5.57702">
        <ele>378</ele>
        <time>2021-05-08T11:52:51Z</time>
      </trkpt>
      <trkpt lat="46.62504" lon="5.57669">
        <ele>377</ele>
        <time>2021-05-08T11:53:00Z</time>
      </trkpt>
      <trkpt lat="46.62533" lon="5.57636">
        <ele>379</ele>
        <time>2021-05-08T11:53:06Z</time>
      </trkpt>
      <trkpt lat="46.62558" lon="5.57601">
        <ele>380</ele>
        <time>2021-05-08T11:53:13Z</time>
      </trkpt>
      <trkpt lat="46.62607" lon="5.5755">
        <ele>381</ele>
        <time>2021-05-08T11:53:23Z</time>
      </trkpt>
      <trkpt lat="46.62611" lon="5.57543">
        <ele>381</ele>
        <time>2021-05-08T11:53:24Z</time>
      </trkpt>
      <trkpt lat="46.62612" lon="5.57535">
        <ele>383</ele>
        <time>2021-05-08T11:53:25Z</time>
      </trkpt>
      <trkpt lat="46.62611" lon="5.57528">
        <ele>384</ele>
        <time>2021-05-08T11:53:26Z</time>
      </trkpt>
      <trkpt lat="46.62603" lon="5.57521">
        <ele>387</ele>
        <time>2021-05-08T11:53:28Z</time>
      </trkpt>
      <trkpt lat="46.62596" lon="5.57523">
        <ele>387</ele>
        <time>2021-05-08T11:53:29Z</time>
      </trkpt>
      <trkpt lat="46.62545" lon="5.57563">
        <ele>389</ele>
        <time>2021-05-08T11:53:40Z</time>
      </trkpt>
      <trkpt lat="46.62529" lon="5.57571">
        <ele>390</ele>
        <time>2021-05-08T11:53:43Z</time>
      </trkpt>
      <trkpt lat="46.62493" lon="5.5758">
        <ele>394</ele>
        <time>2021-05-08T11:53:49Z</time>
      </trkpt>
      <trkpt lat="46.62406" lon="5.57622">
        <ele>401</ele>
        <time>2021-05-08T11:54:05Z</time>
      </trkpt>
      <trkpt lat="46.62394" lon="5.57624">
        <ele>403</ele>
        <time>2021-05-08T11:54:08Z</time>
      </trkpt>
      <trkpt lat="46.62384" lon="5.57621">
        <ele>405</ele>
        <time>2021-05-08T11:54:09Z</time>
      </trkpt>
      <trkpt lat="46.62341" lon="5.57598">
        <ele>418</ele>
        <time>2021-05-08T11:54:18Z</time>
      </trkpt>
      <trkpt lat="46.62327" lon="5.57597">
        <ele>422</ele>
        <time>2021-05-08T11:54:20Z</time>
      </trkpt>
      <trkpt lat="46.62283" lon="5.57611">
        <ele>432</ele>
        <time>2021-05-08T11:54:28Z</time>
      </trkpt>
      <trkpt lat="46.62276" lon="5.57616">
        <ele>434</ele>
        <time>2021-05-08T11:54:29Z</time>
      </trkpt>
      <trkpt lat="46.62261" lon="5.5764">
        <ele>433</ele>
        <time>2021-05-08T11:54:33Z</time>
      </trkpt>
      <trkpt lat="46.62255" lon="5.57662">
        <ele>430</ele>
        <time>2021-05-08T11:54:36Z</time>
      </trkpt>
      <trkpt lat="46.62253" lon="5.57684">
        <ele>429</ele>
        <time>2021-05-08T11:54:39Z</time>
      </trkpt>
      <trkpt lat="46.62255" lon="5.57707">
        <ele>428</ele>
        <time>2021-05-08T11:54:42Z</time>
      </trkpt>
      <trkpt lat="46.6226" lon="5.57729">
        <ele>425</ele>
        <time>2021-05-08T11:54:45Z</time>
      </trkpt>
      <trkpt lat="46.6228" lon="5.57775">
        <ele>414</ele>
        <time>2021-05-08T11:54:51Z</time>
      </trkpt>
      <trkpt lat="46.62284" lon="5.5779">
        <ele>412</ele>
        <time>2021-05-08T11:54:53Z</time>
      </trkpt>
      <trkpt lat="46.6228" lon="5.57813">
        <ele>412</ele>
        <time>2021-05-08T11:54:56Z</time>
      </trkpt>
      <trkpt lat="46.62234" lon="5.57854">
        <ele>425</ele>
        <time>2021-05-08T11:55:06Z</time>
      </trkpt>
      <trkpt lat="46.62217" lon="5.57875">
        <ele>428</ele>
        <time>2021-05-08T11:55:10Z</time>
      </trkpt>
      <trkpt lat="46.62195" lon="5.57914">
        <ele>429</ele>
        <time>2021-05-08T11:55:16Z</time>
      </trkpt>
      <trkpt lat="46.62182" lon="5.5793">
        <ele>431</ele>
        <time>2021-05-08T11:55:19Z</time>
      </trkpt>
      <trkpt lat="46.62127" lon="5.57978">
        <ele>432</ele>
        <time>2021-05-08T11:55:30Z</time>
      </trkpt>
      <trkpt lat="46.62063" lon="5.58025">
        <ele>436</ele>
        <time>2021-05-08T11:55:43Z</time>
      </trkpt>
      <trkpt lat="46.62056" lon="5.58026">
        <ele>437</ele>
        <time>2021-05-08T11:55:44Z</time>
      </trkpt>
      <trkpt lat="46.62048" lon="5.58017">
        <ele>438</ele>
        <time>2021-05-08T11:55:46Z</time>
      </trkpt>
      <trkpt lat="46.62051" lon="5.58003">
        <ele>437</ele>
        <time>2021-05-08T11:55:48Z</time>
      </trkpt>
      <trkpt lat="46.62063" lon="5.57988">
        <ele>438</ele>
        <time>2021-05-08T11:55:51Z</time>
      </trkpt>
      <trkpt lat="46.62124" lon="5.57935">
        <ele>440</ele>
        <time>2021-05-08T11:56:03Z</time>
      </trkpt>
      <trkpt lat="46.62155" lon="5.57912">
        <ele>441</ele>
        <time>2021-05-08T11:56:10Z</time>
      </trkpt>
      <trkpt lat="46.62159" lon="5.57899">
        <ele>443</ele>
        <time>2021-05-08T11:56:11Z</time>
      </trkpt>
      <trkpt lat="46.62153" lon="5.57888">
        <ele>447</ele>
        <time>2021-05-08T11:56:13Z</time>
      </trkpt>
      <trkpt lat="46.62147" lon="5.57886">
        <ele>448</ele>
        <time>2021-05-08T11:56:14Z</time>
      </trkpt>
      <trkpt lat="46.62089" lon="5.57907">
        <ele>450</ele>
        <time>2021-05-08T11:56:25Z</time>
      </trkpt>
      <trkpt lat="46.62027" lon="5.57936">
        <ele>454</ele>
        <time>2021-05-08T11:56:36Z</time>
      </trkpt>
      <trkpt lat="46.62004" lon="5.5795">
        <ele>454</ele>
        <time>2021-05-08T11:56:41Z</time>
      </trkpt>
      <trkpt lat="46.61911" lon="5.58033">
        <ele>466</ele>
        <time>2021-05-08T11:57:00Z</time>
      </trkpt>
      <trkpt lat="46.61906" lon="5.58044">
        <ele>466</ele>
        <time>2021-05-08T11:57:02Z</time>
      </trkpt>
      <trkpt lat="46.61906" lon="5.58066">
        <ele>465</ele>
        <time>2021-05-08T11:57:05Z</time>
      </trkpt>
      <trkpt lat="46.61911" lon="5.58078">
        <ele>463</ele>
        <time>2021-05-08T11:57:06Z</time>
      </trkpt>
      <trkpt lat="46.61941" lon="5.58118">
        <ele>465</ele>
        <time>2021-05-08T11:57:13Z</time>
      </trkpt>
      <trkpt lat="46.61957" lon="5.58147">
        <ele>469</ele>
        <time>2021-05-08T11:57:18Z</time>
      </trkpt>
      <trkpt lat="46.61969" lon="5.58163">
        <ele>471</ele>
        <time>2021-05-08T11:57:21Z</time>
      </trkpt>
      <trkpt lat="46.61976" lon="5.58167">
        <ele>471</ele>
        <time>2021-05-08T11:57:22Z</time>
      </trkpt>
      <trkpt lat="46.62018" lon="5.58174">
        <ele>469</ele>
        <time>2021-05-08T11:57:30Z</time>
      </trkpt>
      <trkpt lat="46.62046" lon="5.58183">
        <ele>468</ele>
        <time>2021-05-08T11:57:35Z</time>
      </trkpt>
      <trkpt lat="46.62058" lon="5.58194">
        <ele>470</ele>
        <time>2021-05-08T11:57:37Z</time>
      </trkpt>
      <trkpt lat="46.62105" lon="5.58252">
        <ele>476</ele>
        <time>2021-05-08T11:57:48Z</time>
      </trkpt>
      <trkpt lat="46.62106" lon="5.58266">
        <ele>479</ele>
        <time>2021-05-08T11:57:50Z</time>
      </trkpt>
      <trkpt lat="46.62102" lon="5.5827">
        <ele>482</ele>
        <time>2021-05-08T11:57:51Z</time>
      </trkpt>
      <trkpt lat="46.62094" lon="5.58267">
        <ele>484</ele>
        <time>2021-05-08T11:57:52Z</time>
      </trkpt>
      <trkpt lat="46.62069" lon="5.5824">
        <ele>482</ele>
        <time>2021-05-08T11:57:58Z</time>
      </trkpt>
      <trkpt lat="46.62053" lon="5.58227">
        <ele>481</ele>
        <time>2021-05-08T11:58:01Z</time>
      </trkpt>
      <trkpt lat="46.62044" lon="5.58223">
        <ele>481</ele>
        <time>2021-05-08T11:58:03Z</time>
      </trkpt>
      <trkpt lat="46.62021" lon="5.5822">
        <ele>483</ele>
        <time>2021-05-08T11:58:07Z</time>
      </trkpt>
      <trkpt lat="46.61903" lon="5.58223">
        <ele>503</ele>
        <time>2021-05-08T11:58:28Z</time>
      </trkpt>
      <trkpt lat="46.6188" lon="5.58221">
        <ele>507</ele>
        <time>2021-05-08T11:58:32Z</time>
      </trkpt>
      <trkpt lat="46.61867" lon="5.58217">
        <ele>508</ele>
        <time>2021-05-08T11:58:34Z</time>
      </trkpt>
      <trkpt lat="46.6179" lon="5.58171">
        <ele>506</ele>
        <time>2021-05-08T11:58:49Z</time>
      </trkpt>
      <trkpt lat="46.61764" lon="5.58161">
        <ele>509</ele>
        <time>2021-05-08T11:58:54Z</time>
      </trkpt>
      <trkpt lat="46.61713" lon="5.58149">
        <ele>516</ele>
        <time>2021-05-08T11:59:03Z</time>
      </trkpt>
      <trkpt lat="46.61648" lon="5.58146">
        <ele>526</ele>
        <time>2021-05-08T11:59:15Z</time>
      </trkpt>
      <trkpt lat="46.61586" lon="5.58157">
        <ele>535</ele>
        <time>2021-05-08T11:59:26Z</time>
      </trkpt>
      <trkpt lat="46.61581" lon="5.58154">
        <ele>536</ele>
        <time>2021-05-08T11:59:27Z</time>
      </trkpt>
      <trkpt lat="46.6158" lon="5.58148">
        <ele>537</ele>
        <time>2021-05-08T11:59:28Z</time>
      </trkpt>
      <trkpt lat="46.61597" lon="5.58117">
        <ele>538</ele>
        <time>2021-05-08T11:59:32Z</time>
      </trkpt>
      <trkpt lat="46.61622" lon="5.58106">
        <ele>533</ele>
        <time>2021-05-08T11:59:37Z</time>
      </trkpt>
      <trkpt lat="46.61666" lon="5.581">
        <ele>521</ele>
        <time>2021-05-08T11:59:45Z</time>
      </trkpt>
      <trkpt lat="46.61679" lon="5.58094">
        <ele>518</ele>
        <time>2021-05-08T11:59:47Z</time>
      </trkpt>
      <trkpt lat="46.61694" lon="5.58092">
        <ele>514</ele>
        <time>2021-05-08T11:59:50Z</time>
      </trkpt>
      <trkpt lat="46.61679" lon="5.58094">
        <ele>518</ele>
        <time>2021-05-08T11:59:53Z</time>
      </trkpt>
      <trkpt lat="46.61666" lon="5.581">
        <ele>521</ele>
        <time>2021-05-08T11:59:55Z</time>
      </trkpt>
      <trkpt lat="46.61622" lon="5.58106">
        <ele>533</ele>
        <time>2021-05-08T12:00:03Z</time>
      </trkpt>
      <trkpt lat="46.61612" lon="5.58112">
        <ele>535</ele>
        <time>2021-05-08T12:00:05Z</time>
      </trkpt>
      <trkpt lat="46.61583" lon="5.58119">
        <ele>541</ele>
        <time>2021-05-08T12:00:10Z</time>
      </trkpt>
      <trkpt lat="46.61563" lon="5.58135">
        <ele>542</ele>
        <time>2021-05-08T12:00:14Z</time>
      </trkpt>
      <trkpt lat="46.61547" lon="5.58143">
        <ele>544</ele>
        <time>2021-05-08T12:00:17Z</time>
      </trkpt>
      <trkpt lat="46.61533" lon="5.58154">
        <ele>545</ele>
        <time>2021-05-08T12:00:20Z</time>
      </trkpt>
      <trkpt lat="46.61509" lon="5.5818">
        <ele>548</ele>
        <time>2021-05-08T12:00:25Z</time>
      </trkpt>
      <trkpt lat="46.61444" lon="5.58213">
        <ele>554</ele>
        <time>2021-05-08T12:00:38Z</time>
      </trkpt>
      <trkpt lat="46.61417" lon="5.58223">
        <ele>555</ele>
        <time>2021-05-08T12:00:43Z</time>
      </trkpt>
      <trkpt lat="46.61392" lon="5.58229">
        <ele>555</ele>
        <time>2021-05-08T12:00:47Z</time>
      </trkpt>
      <trkpt lat="46.61372" lon="5.58242">
        <ele>555</ele>
        <time>2021-05-08T12:00:51Z</time>
      </trkpt>
      <trkpt lat="46.61355" lon="5.58273">
        <ele>555</ele>
        <time>2021-05-08T12:00:56Z</time>
      </trkpt>
      <trkpt lat="46.61423" lon="5.58266">
        <ele>556</ele>
        <time>2021-05-08T12:01:08Z</time>
      </trkpt>
      <trkpt lat="46.61462" lon="5.58273">
        <ele>556</ele>
        <time>2021-05-08T12:01:15Z</time>
      </trkpt>
      <trkpt lat="46.6147" lon="5.5828">
        <ele>556</ele>
        <time>2021-05-08T12:01:17Z</time>
      </trkpt>
      <trkpt lat="46.61474" lon="5.58289">
        <ele>557</ele>
        <time>2021-05-08T12:01:18Z</time>
      </trkpt>
      <trkpt lat="46.61478" lon="5.58333">
        <ele>561</ele>
        <time>2021-05-08T12:01:23Z</time>
      </trkpt>
      <trkpt lat="46.61488" lon="5.5838">
        <ele>565</ele>
        <time>2021-05-08T12:01:29Z</time>
      </trkpt>
      <trkpt lat="46.61488" lon="5.58404">
        <ele>566</ele>
        <time>2021-05-08T12:01:32Z</time>
      </trkpt>
      <trkpt lat="46.61468" lon="5.58476">
        <ele>569</ele>
        <time>2021-05-08T12:01:42Z</time>
      </trkpt>
      <trkpt lat="46.61462" lon="5.58539">
        <ele>572</ele>
        <time>2021-05-08T12:01:50Z</time>
      </trkpt>
      <trkpt lat="46.61463" lon="5.5856">
        <ele>573</ele>
        <time>2021-05-08T12:01:52Z</time>
      </trkpt>
      <trkpt lat="46.61473" lon="5.58603">
        <ele>576</ele>
        <time>2021-05-08T12:01:58Z</time>
      </trkpt>
      <trkpt lat="46.61484" lon="5.58615">
        <ele>577</ele>
        <time>2021-05-08T12:02:00Z</time>
      </trkpt>
      <trkpt lat="46.61496" lon="5.58619">
        <ele>577</ele>
        <time>2021-05-08T12:02:02Z</time>
      </trkpt>
      <trkpt lat="46.61521" lon="5.5862">
        <ele>578</ele>
        <time>2021-05-08T12:02:07Z</time>
      </trkpt>
      <trkpt lat="46.61535" lon="5.58628">
        <ele>579</ele>
        <time>2021-05-08T12:02:10Z</time>
      </trkpt>
      <trkpt lat="46.61538" lon="5.58635">
        <ele>579</ele>
        <time>2021-05-08T12:02:11Z</time>
      </trkpt>
      <trkpt lat="46.61542" lon="5.5867">
        <ele>582</ele>
        <time>2021-05-08T12:02:15Z</time>
      </trkpt>
      <trkpt lat="46.61546" lon="5.58684">
        <ele>582</ele>
        <time>2021-05-08T12:02:17Z</time>
      </trkpt>
      <trkpt lat="46.61595" lon="5.58807">
        <ele>585</ele>
        <time>2021-05-08T12:02:34Z</time>
      </trkpt>
      <trkpt lat="46.61634" lon="5.58918">
        <ele>590</ele>
        <time>2021-05-08T12:02:49Z</time>
      </trkpt>
      <trkpt lat="46.61629" lon="5.58922">
        <ele>590</ele>
        <time>2021-05-08T12:02:50Z</time>
      </trkpt>
      <trkpt lat="46.61619" lon="5.5894">
        <ele>591</ele>
        <time>2021-05-08T12:02:53Z</time>
      </trkpt>
      <trkpt lat="46.61598" lon="5.5896">
        <ele>593</ele>
        <time>2021-05-08T12:02:58Z</time>
      </trkpt>
      <trkpt lat="46.61591" lon="5.5897">
        <ele>594</ele>
        <time>2021-05-08T12:02:59Z</time>
      </trkpt>
      <trkpt lat="46.61549" lon="5.58973">
        <ele>595</ele>
        <time>2021-05-08T12:03:07Z</time>
      </trkpt>
      <trkpt lat="46.61539" lon="5.58977">
        <ele>596</ele>
        <time>2021-05-08T12:03:09Z</time>
      </trkpt>
      <trkpt lat="46.61531" lon="5.58988">
        <ele>596</ele>
        <time>2021-05-08T12:03:11Z</time>
      </trkpt>
      <trkpt lat="46.61514" lon="5.59021">
        <ele>597</ele>
        <time>2021-05-08T12:03:16Z</time>
      </trkpt>
      <trkpt lat="46.61492" lon="5.59054">
        <ele>596</ele>
        <time>2021-05-08T12:03:21Z</time>
      </trkpt>
      <trkpt lat="46.61483" lon="5.59063">
        <ele>596</ele>
        <time>2021-05-08T12:03:23Z</time>
      </trkpt>
      <trkpt lat="46.61474" lon="5.59068">
        <ele>596</ele>
        <time>2021-05-08T12:03:25Z</time>
      </trkpt>
      <trkpt lat="46.61437" lon="5.59073">
        <ele>597</ele>
        <time>2021-05-08T12:03:32Z</time>
      </trkpt>
      <trkpt lat="46.61405" lon="5.59093">
        <ele>598</ele>
        <time>2021-05-08T12:03:38Z</time>
      </trkpt>
      <trkpt lat="46.61375" lon="5.59125">
        <ele>596</ele>
        <time>2021-05-08T12:03:44Z</time>
      </trkpt>
      <trkpt lat="46.61326" lon="5.59189">
        <ele>591</ele>
        <time>2021-05-08T12:03:56Z</time>
      </trkpt>
      <trkpt lat="46.61248" lon="5.59251">
        <ele>585</ele>
        <time>2021-05-08T12:04:12Z</time>
      </trkpt>
      <trkpt lat="46.61211" lon="5.59275">
        <ele>583</ele>
        <time>2021-05-08T12:04:19Z</time>
      </trkpt>
      <trkpt lat="46.61135" lon="5.59308">
        <ele>580</ele>
        <time>2021-05-08T12:04:33Z</time>
      </trkpt>
      <trkpt lat="46.61121" lon="5.59317">
        <ele>579</ele>
        <time>2021-05-08T12:04:36Z</time>
      </trkpt>
      <trkpt lat="46.61094" lon="5.59346">
        <ele>574</ele>
        <time>2021-05-08T12:04:42Z</time>
      </trkpt>
      <trkpt lat="46.61082" lon="5.59355">
        <ele>573</ele>
        <time>2021-05-08T12:04:44Z</time>
      </trkpt>
      <trkpt lat="46.61021" lon="5.5938">
        <ele>572</ele>
        <time>2021-05-08T12:04:56Z</time>
      </trkpt>
      <trkpt lat="46.61006" lon="5.5939">
        <ele>571</ele>
        <time>2021-05-08T12:04:59Z</time>
      </trkpt>
      <trkpt lat="46.60989" lon="5.59413">
        <ele>568</ele>
        <time>2021-05-08T12:05:03Z</time>
      </trkpt>
      <trkpt lat="46.60956" lon="5.59476">
        <ele>566</ele>
        <time>2021-05-08T12:05:12Z</time>
      </trkpt>
      <trkpt lat="46.60945" lon="5.59514">
        <ele>564</ele>
        <time>2021-05-08T12:05:17Z</time>
      </trkpt>
      <trkpt lat="46.60933" lon="5.5958">
        <ele>561</ele>
        <time>2021-05-08T12:05:26Z</time>
      </trkpt>
      <trkpt lat="46.60934" lon="5.59616">
        <ele>560</ele>
        <time>2021-05-08T12:05:30Z</time>
      </trkpt>
      <trkpt lat="46.60931" lon="5.59659">
        <ele>560</ele>
        <time>2021-05-08T12:05:35Z</time>
      </trkpt>
      <trkpt lat="46.60923" lon="5.59667">
        <ele>560</ele>
        <time>2021-05-08T12:05:37Z</time>
      </trkpt>
      <trkpt lat="46.60895" lon="5.59685">
        <ele>560</ele>
        <time>2021-05-08T12:05:43Z</time>
      </trkpt>
      <trkpt lat="46.60884" lon="5.59695">
        <ele>559</ele>
        <time>2021-05-08T12:05:45Z</time>
      </trkpt>
      <trkpt lat="46.60874" lon="5.59709">
        <ele>559</ele>
        <time>2021-05-08T12:05:47Z</time>
      </trkpt>
      <trkpt lat="46.60838" lon="5.59793">
        <ele>554</ele>
        <time>2021-05-08T12:06:00Z</time>
      </trkpt>
      <trkpt lat="46.60832" lon="5.59826">
        <ele>552</ele>
        <time>2021-05-08T12:06:04Z</time>
      </trkpt>
      <trkpt lat="46.60833" lon="5.5984">
        <ele>552</ele>
        <time>2021-05-08T12:06:05Z</time>
      </trkpt>
      <trkpt lat="46.60843" lon="5.59872">
        <ele>552</ele>
        <time>2021-05-08T12:06:10Z</time>
      </trkpt>
      <trkpt lat="46.61415" lon="5.60658">
        <ele>532</ele>
        <time>2021-05-08T12:08:30Z</time>
      </trkpt>
      <trkpt lat="46.61626" lon="5.60952">
        <ele>529</ele>
        <time>2021-05-08T12:09:22Z</time>
      </trkpt>
      <trkpt lat="46.60858" lon="5.62395">
        <ele>533</ele>
        <time>2021-05-08T12:13:05Z</time>
      </trkpt>
      <trkpt lat="46.60303" lon="5.63423">
        <ele>548</ele>
        <time>2021-05-08T12:15:45Z</time>
      </trkpt>
      <trkpt lat="46.60056" lon="5.63899">
        <ele>549</ele>
        <time>2021-05-08T12:16:57Z</time>
      </trkpt>
      <trkpt lat="46.59757" lon="5.64482">
        <ele>561</ele>
        <time>2021-05-08T12:18:26Z</time>
      </trkpt>
      <trkpt lat="46.59745" lon="5.64511">
        <ele>562</ele>
        <time>2021-05-08T12:18:31Z</time>
      </trkpt>
      <trkpt lat="46.59731" lon="5.64565">
        <ele>563</ele>
        <time>2021-05-08T12:18:38Z</time>
      </trkpt>
      <trkpt lat="46.59731" lon="5.64618">
        <ele>562</ele>
        <time>2021-05-08T12:18:44Z</time>
      </trkpt>
      <trkpt lat="46.59735" lon="5.64646">
        <ele>561</ele>
        <time>2021-05-08T12:18:48Z</time>
      </trkpt>
      <trkpt lat="46.59744" lon="5.64677">
        <ele>560</ele>
        <time>2021-05-08T12:18:52Z</time>
      </trkpt>
      <trkpt lat="46.59759" lon="5.64708">
        <ele>559</ele>
        <time>2021-05-08T12:18:56Z</time>
      </trkpt>
      <trkpt lat="46.59836" lon="5.64827">
        <ele>553</ele>
        <time>2021-05-08T12:19:16Z</time>
      </trkpt>
      <trkpt lat="46.5985" lon="5.64853">
        <ele>552</ele>
        <time>2021-05-08T12:19:20Z</time>
      </trkpt>
      <trkpt lat="46.60002" lon="5.65213">
        <ele>541</ele>
        <time>2021-05-08T12:20:12Z</time>
      </trkpt>
      <trkpt lat="46.6001" lon="5.65238">
        <ele>540</ele>
        <time>2021-05-08T12:20:15Z</time>
      </trkpt>
      <trkpt lat="46.60019" lon="5.65294">
        <ele>539</ele>
        <time>2021-05-08T12:20:22Z</time>
      </trkpt>
      <trkpt lat="46.60021" lon="5.65327">
        <ele>538</ele>
        <time>2021-05-08T12:20:26Z</time>
      </trkpt>
      <trkpt lat="46.59992" lon="5.65832">
        <ele>527</ele>
        <time>2021-05-08T12:21:28Z</time>
      </trkpt>
      <trkpt lat="46.59987" lon="5.65885">
        <ele>524</ele>
        <time>2021-05-08T12:21:35Z</time>
      </trkpt>
      <trkpt lat="46.59979" lon="5.6593">
        <ele>523</ele>
        <time>2021-05-08T12:21:41Z</time>
      </trkpt>
      <trkpt lat="46.59948" lon="5.66048">
        <ele>519</ele>
        <time>2021-05-08T12:21:56Z</time>
      </trkpt>
      <trkpt lat="46.59898" lon="5.66171">
        <ele>506</ele>
        <time>2021-05-08T12:22:14Z</time>
      </trkpt>
      <trkpt lat="46.59886" lon="5.66212">
        <ele>505</ele>
        <time>2021-05-08T12:22:19Z</time>
      </trkpt>
      <trkpt lat="46.59877" lon="5.66255">
        <ele>504</ele>
        <time>2021-05-08T12:22:25Z</time>
      </trkpt>
      <trkpt lat="46.59869" lon="5.66362">
        <ele>507</ele>
        <time>2021-05-08T12:22:38Z</time>
      </trkpt>
      <trkpt lat="46.5986" lon="5.66412">
        <ele>509</ele>
        <time>2021-05-08T12:22:44Z</time>
      </trkpt>
      <trkpt lat="46.59854" lon="5.66429">
        <ele>509</ele>
        <time>2021-05-08T12:22:46Z</time>
      </trkpt>
      <trkpt lat="46.5981" lon="5.66514">
        <ele>505</ele>
        <time>2021-05-08T12:22:59Z</time>
      </trkpt>
      <trkpt lat="46.59784" lon="5.6655">
        <ele>505</ele>
        <time>2021-05-08T12:23:06Z</time>
      </trkpt>
      <trkpt lat="46.59766" lon="5.6657">
        <ele>503</ele>
        <time>2021-05-08T12:23:10Z</time>
      </trkpt>
      <trkpt lat="46.59753" lon="5.6658">
        <ele>502</ele>
        <time>2021-05-08T12:23:12Z</time>
      </trkpt>
      <trkpt lat="46.59494" lon="5.66735">
        <ele>487</ele>
        <time>2021-05-08T12:24:02Z</time>
      </trkpt>
      <trkpt lat="46.59471" lon="5.66753">
        <ele>483</ele>
        <time>2021-05-08T12:24:07Z</time>
      </trkpt>
      <trkpt lat="46.59445" lon="5.66785">
        <ele>479</ele>
        <time>2021-05-08T12:24:13Z</time>
      </trkpt>
      <trkpt lat="46.59393" lon="5.6687">
        <ele>471</ele>
        <time>2021-05-08T12:24:27Z</time>
      </trkpt>
      <trkpt lat="46.59381" lon="5.66898">
        <ele>470</ele>
        <time>2021-05-08T12:24:31Z</time>
      </trkpt>
      <trkpt lat="46.59375" lon="5.66919">
        <ele>469</ele>
        <time>2021-05-08T12:24:34Z</time>
      </trkpt>
      <trkpt lat="46.59372" lon="5.66958">
        <ele>468</ele>
        <time>2021-05-08T12:24:38Z</time>
      </trkpt>
      <trkpt lat="46.59376" lon="5.67178">
        <ele>464</ele>
        <time>2021-05-08T12:25:05Z</time>
      </trkpt>
      <trkpt lat="46.5937" lon="5.67245">
        <ele>464</ele>
        <time>2021-05-08T12:25:14Z</time>
      </trkpt>
      <trkpt lat="46.5936" lon="5.67283">
        <ele>465</ele>
        <time>2021-05-08T12:25:19Z</time>
      </trkpt>
      <trkpt lat="46.5932" lon="5.67407">
        <ele>467</ele>
        <time>2021-05-08T12:25:35Z</time>
      </trkpt>
      <trkpt lat="46.59307" lon="5.67473">
        <ele>467</ele>
        <time>2021-05-08T12:25:44Z</time>
      </trkpt>
      <trkpt lat="46.59292" lon="5.67594">
        <ele>465</ele>
        <time>2021-05-08T12:25:59Z</time>
      </trkpt>
      <trkpt lat="46.59234" lon="5.67824">
        <ele>461</ele>
        <time>2021-05-08T12:26:29Z</time>
      </trkpt>
      <trkpt lat="46.59208" lon="5.67878">
        <ele>461</ele>
        <time>2021-05-08T12:26:37Z</time>
      </trkpt>
      <trkpt lat="46.59135" lon="5.67989">
        <ele>459</ele>
        <time>2021-05-08T12:26:56Z</time>
      </trkpt>
      <trkpt lat="46.59109" lon="5.68039">
        <ele>461</ele>
        <time>2021-05-08T12:27:03Z</time>
      </trkpt>
      <trkpt lat="46.5897" lon="5.68409">
        <ele>451</ele>
        <time>2021-05-08T12:27:55Z</time>
      </trkpt>
      <trkpt lat="46.58932" lon="5.68516">
        <ele>446</ele>
        <time>2021-05-08T12:28:09Z</time>
      </trkpt>
      <trkpt lat="46.5885" lon="5.68771">
        <ele>443</ele>
        <time>2021-05-08T12:28:44Z</time>
      </trkpt>
      <trkpt lat="46.58709" lon="5.69231">
        <ele>442</ele>
        <time>2021-05-08T12:29:46Z</time>
      </trkpt>
      <trkpt lat="46.58497" lon="5.6994">
        <ele>438</ele>
        <time>2021-05-08T12:31:20Z</time>
      </trkpt>
      <trkpt lat="46.58498" lon="5.69987">
        <ele>437</ele>
        <time>2021-05-08T12:31:26Z</time>
      </trkpt>
      <trkpt lat="46.58509" lon="5.70111">
        <ele>440</ele>
        <time>2021-05-08T12:31:41Z</time>
      </trkpt>
      <trkpt lat="46.58515" lon="5.70147">
        <ele>441</ele>
        <time>2021-05-08T12:31:46Z</time>
      </trkpt>
      <trkpt lat="46.58526" lon="5.70173">
        <ele>443</ele>
        <time>2021-05-08T12:31:49Z</time>
      </trkpt>
      <trkpt lat="46.58524" lon="5.70181">
        <ele>444</ele>
        <time>2021-05-08T12:31:50Z</time>
      </trkpt>
      <trkpt lat="46.58529" lon="5.70212">
        <ele>447</ele>
        <time>2021-05-08T12:31:54Z</time>
      </trkpt>
      <trkpt lat="46.58536" lon="5.70233">
        <ele>449</ele>
        <time>2021-05-08T12:31:57Z</time>
      </trkpt>
      <trkpt lat="46.58551" lon="5.70308">
        <ele>454</ele>
        <time>2021-05-08T12:32:07Z</time>
      </trkpt>
      <trkpt lat="46.58567" lon="5.70357">
        <ele>456</ele>
        <time>2021-05-08T12:32:13Z</time>
      </trkpt>
      <trkpt lat="46.58605" lon="5.70439">
        <ele>460</ele>
        <time>2021-05-08T12:32:25Z</time>
      </trkpt>
      <trkpt lat="46.58616" lon="5.70481">
        <ele>461</ele>
        <time>2021-05-08T12:32:31Z</time>
      </trkpt>
      <trkpt lat="46.5862" lon="5.70548">
        <ele>462</ele>
        <time>2021-05-08T12:32:39Z</time>
      </trkpt>
      <trkpt lat="46.58617" lon="5.70589">
        <ele>463</ele>
        <time>2021-05-08T12:32:44Z</time>
      </trkpt>
      <trkpt lat="46.58595" lon="5.70707">
        <ele>464</ele>
        <time>2021-05-08T12:32:59Z</time>
      </trkpt>
      <trkpt lat="46.58463" lon="5.71308">
        <ele>472</ele>
        <time>2021-05-08T12:34:16Z</time>
      </trkpt>
      <trkpt lat="46.58403" lon="5.71561">
        <ele>472</ele>
        <time>2021-05-08T12:34:49Z</time>
      </trkpt>
      <trkpt lat="46.58323" lon="5.71465">
        <ele>470</ele>
        <time>2021-05-08T12:35:07Z</time>
      </trkpt>
      <trkpt lat="46.58309" lon="5.71458">
        <ele>471</ele>
        <time>2021-05-08T12:35:10Z</time>
      </trkpt>
      <trkpt lat="46.58295" lon="5.71435">
        <ele>471</ele>
        <time>2021-05-08T12:35:14Z</time>
      </trkpt>
      <trkpt lat="46.5828" lon="5.71418">
        <ele>471</ele>
        <time>2021-05-08T12:35:17Z</time>
      </trkpt>
      <trkpt lat="46.58295" lon="5.71435">
        <ele>471</ele>
        <time>2021-05-08T12:35:21Z</time>
      </trkpt>
      <trkpt lat="46.58309" lon="5.71458">
        <ele>471</ele>
        <time>2021-05-08T12:35:24Z</time>
      </trkpt>
      <trkpt lat="46.58323" lon="5.71465">
        <ele>470</ele>
        <time>2021-05-08T12:35:27Z</time>
      </trkpt>
      <trkpt lat="46.58403" lon="5.71561">
        <ele>472</ele>
        <time>2021-05-08T12:35:45Z</time>
      </trkpt>
      <trkpt lat="46.58211" lon="5.72379">
        <ele>488</ele>
        <time>2021-05-08T12:37:31Z</time>
      </trkpt>
      <trkpt lat="46.58101" lon="5.72831">
        <ele>495</ele>
        <time>2021-05-08T12:38:30Z</time>
      </trkpt>
      <trkpt lat="46.58048" lon="5.73072">
        <ele>504</ele>
        <time>2021-05-08T12:39:01Z</time>
      </trkpt>
      <trkpt lat="46.57964" lon="5.73291">
        <ele>517</ele>
        <time>2021-05-08T12:39:31Z</time>
      </trkpt>
      <trkpt lat="46.57817" lon="5.73547">
        <ele>535</ele>
        <time>2021-05-08T12:40:12Z</time>
      </trkpt>
      <trkpt lat="46.57753" lon="5.73726">
        <ele>550</ele>
        <time>2021-05-08T12:40:37Z</time>
      </trkpt>
      <trkpt lat="46.57727" lon="5.73766">
        <ele>552</ele>
        <time>2021-05-08T12:40:44Z</time>
      </trkpt>
      <trkpt lat="46.57527" lon="5.73998">
        <ele>565</ele>
        <time>2021-05-08T12:41:29Z</time>
      </trkpt>
      <trkpt lat="46.57439" lon="5.74104">
        <ele>560</ele>
        <time>2021-05-08T12:41:49Z</time>
      </trkpt>
      <trkpt lat="46.57421" lon="5.74137">
        <ele>558</ele>
        <time>2021-05-08T12:41:55Z</time>
      </trkpt>
      <trkpt lat="46.57414" lon="5.74155">
        <ele>557</ele>
        <time>2021-05-08T12:41:57Z</time>
      </trkpt>
      <trkpt lat="46.57404" lon="5.74194">
        <ele>555</ele>
        <time>2021-05-08T12:42:02Z</time>
      </trkpt>
      <trkpt lat="46.5739" lon="5.74324">
        <ele>556</ele>
        <time>2021-05-08T12:42:18Z</time>
      </trkpt>
      <trkpt lat="46.57387" lon="5.7447">
        <ele>555</ele>
        <time>2021-05-08T12:42:36Z</time>
      </trkpt>
      <trkpt lat="46.57385" lon="5.74488">
        <ele>554</ele>
        <time>2021-05-08T12:42:38Z</time>
      </trkpt>
      <trkpt lat="46.57364" lon="5.74565">
        <ele>544</ele>
        <time>2021-05-08T12:42:49Z</time>
      </trkpt>
      <trkpt lat="46.57363" lon="5.74586">
        <ele>541</ele>
        <time>2021-05-08T12:42:51Z</time>
      </trkpt>
      <trkpt lat="46.57386" lon="5.74688">
        <ele>532</ele>
        <time>2021-05-08T12:43:04Z</time>
      </trkpt>
      <trkpt lat="46.57387" lon="5.747">
        <ele>532</ele>
        <time>2021-05-08T12:43:06Z</time>
      </trkpt>
      <trkpt lat="46.57385" lon="5.74707">
        <ele>531</ele>
        <time>2021-05-08T12:43:07Z</time>
      </trkpt>
      <trkpt lat="46.57372" lon="5.74694">
        <ele>532</ele>
        <time>2021-05-08T12:43:10Z</time>
      </trkpt>
      <trkpt lat="46.57393" lon="5.74716">
        <ele>531</ele>
        <time>2021-05-08T12:43:14Z</time>
      </trkpt>
      <trkpt lat="46.57405" lon="5.74739">
        <ele>530</ele>
        <time>2021-05-08T12:43:18Z</time>
      </trkpt>
      <trkpt lat="46.57409" lon="5.74774">
        <ele>530</ele>
        <time>2021-05-08T12:43:22Z</time>
      </trkpt>
      <trkpt lat="46.57464" lon="5.7494">
        <ele>536</ele>
        <time>2021-05-08T12:43:45Z</time>
      </trkpt>
      <trkpt lat="46.57473" lon="5.74955">
        <ele>538</ele>
        <time>2021-05-08T12:43:47Z</time>
      </trkpt>
      <trkpt lat="46.57539" lon="5.74979">
        <ele>542</ele>
        <time>2021-05-08T12:43:59Z</time>
      </trkpt>
      <trkpt lat="46.57548" lon="5.74988">
        <ele>542</ele>
        <time>2021-05-08T12:44:01Z</time>
      </trkpt>
      <trkpt lat="46.57538" lon="5.75046">
        <ele>542</ele>
        <time>2021-05-08T12:44:08Z</time>
      </trkpt>
      <trkpt lat="46.5752" lon="5.75073">
        <ele>542</ele>
        <time>2021-05-08T12:44:13Z</time>
      </trkpt>
      <trkpt lat="46.57448" lon="5.75166">
        <ele>543</ele>
        <time>2021-05-08T12:44:30Z</time>
      </trkpt>
      <trkpt lat="46.57317" lon="5.75318">
        <ele>546</ele>
        <time>2021-05-08T12:45:00Z</time>
      </trkpt>
      <trkpt lat="46.57325" lon="5.75373">
        <ele>549</ele>
        <time>2021-05-08T12:45:07Z</time>
      </trkpt>
      <trkpt lat="46.57323" lon="5.75394">
        <ele>549</ele>
        <time>2021-05-08T12:45:09Z</time>
      </trkpt>
      <trkpt lat="46.57313" lon="5.75432">
        <ele>549</ele>
        <time>2021-05-08T12:45:14Z</time>
      </trkpt>
      <trkpt lat="46.57311" lon="5.75474">
        <ele>549</ele>
        <time>2021-05-08T12:45:19Z</time>
      </trkpt>
      <trkpt lat="46.57326" lon="5.7554">
        <ele>548</ele>
        <time>2021-05-08T12:45:28Z</time>
      </trkpt>
      <trkpt lat="46.57332" lon="5.75577">
        <ele>548</ele>
        <time>2021-05-08T12:45:33Z</time>
      </trkpt>
      <trkpt lat="46.57324" lon="5.75697">
        <ele>548</ele>
        <time>2021-05-08T12:45:47Z</time>
      </trkpt>
      <trkpt lat="46.57329" lon="5.75733">
        <ele>548</ele>
        <time>2021-05-08T12:45:52Z</time>
      </trkpt>
      <trkpt lat="46.5735" lon="5.75795">
        <ele>548</ele>
        <time>2021-05-08T12:46:00Z</time>
      </trkpt>
      <trkpt lat="46.57356" lon="5.75846">
        <ele>549</ele>
        <time>2021-05-08T12:46:07Z</time>
      </trkpt>
      <trkpt lat="46.57355" lon="5.75873">
        <ele>550</ele>
        <time>2021-05-08T12:46:10Z</time>
      </trkpt>
      <trkpt lat="46.57348" lon="5.75909">
        <ele>552</ele>
        <time>2021-05-08T12:46:15Z</time>
      </trkpt>
      <trkpt lat="46.57348" lon="5.75967">
        <ele>551</ele>
        <time>2021-05-08T12:46:22Z</time>
      </trkpt>
      <trkpt lat="46.57372" lon="5.76065">
        <ele>549</ele>
        <time>2021-05-08T12:46:34Z</time>
      </trkpt>
      <trkpt lat="46.57372" lon="5.76139">
        <ele>556</ele>
        <time>2021-05-08T12:46:43Z</time>
      </trkpt>
      <trkpt lat="46.57384" lon="5.76207">
        <ele>560</ele>
        <time>2021-05-08T12:46:52Z</time>
      </trkpt>
      <trkpt lat="46.57413" lon="5.76269">
        <ele>558</ele>
        <time>2021-05-08T12:47:01Z</time>
      </trkpt>
      <trkpt lat="46.57422" lon="5.76294">
        <ele>559</ele>
        <time>2021-05-08T12:47:05Z</time>
      </trkpt>
      <trkpt lat="46.57446" lon="5.76402">
        <ele>566</ele>
        <time>2021-05-08T12:47:18Z</time>
      </trkpt>
      <trkpt lat="46.57476" lon="5.76474">
        <ele>563</ele>
        <time>2021-05-08T12:47:29Z</time>
      </trkpt>
      <trkpt lat="46.57484" lon="5.76516">
        <ele>565</ele>
        <time>2021-05-08T12:47:34Z</time>
      </trkpt>
      <trkpt lat="46.57488" lon="5.76673">
        <ele>570</ele>
        <time>2021-05-08T12:47:53Z</time>
      </trkpt>
      <trkpt lat="46.57495" lon="5.76753">
        <ele>566</ele>
        <time>2021-05-08T12:48:03Z</time>
      </trkpt>
      <trkpt lat="46.57514" lon="5.76843">
        <ele>560</ele>
        <time>2021-05-08T12:48:15Z</time>
      </trkpt>
      <trkpt lat="46.57528" lon="5.76923">
        <ele>565</ele>
        <time>2021-05-08T12:48:25Z</time>
      </trkpt>
      <trkpt lat="46.57599" lon="5.77378">
        <ele>552</ele>
        <time>2021-05-08T12:49:22Z</time>
      </trkpt>
      <trkpt lat="46.57621" lon="5.77572">
        <ele>556</ele>
        <time>2021-05-08T12:49:46Z</time>
      </trkpt>
      <trkpt lat="46.57627" lon="5.77685">
        <ele>560</ele>
        <time>2021-05-08T12:50:00Z</time>
      </trkpt>
      <trkpt lat="46.5773" lon="5.77771">
        <ele>542</ele>
        <time>2021-05-08T12:50:21Z</time>
      </trkpt>
      <trkpt lat="46.57752" lon="5.77803">
        <ele>543</ele>
        <time>2021-05-08T12:50:26Z</time>
      </trkpt>
      <trkpt lat="46.57767" lon="5.77843">
        <ele>546</ele>
        <time>2021-05-08T12:50:32Z</time>
      </trkpt>
      <trkpt lat="46.57796" lon="5.77936">
        <ele>551</ele>
        <time>2021-05-08T12:50:45Z</time>
      </trkpt>
      <trkpt lat="46.57853" lon="5.7813">
        <ele>568</ele>
        <time>2021-05-08T12:51:10Z</time>
      </trkpt>
      <trkpt lat="46.57854" lon="5.78168">
        <ele>573</ele>
        <time>2021-05-08T12:51:15Z</time>
      </trkpt>
      <trkpt lat="46.57846" lon="5.78241">
        <ele>578</ele>
        <time>2021-05-08T12:51:24Z</time>
      </trkpt>
      <trkpt lat="46.57834" lon="5.78314">
        <ele>580</ele>
        <time>2021-05-08T12:51:33Z</time>
      </trkpt>
      <trkpt lat="46.57785" lon="5.78539">
        <ele>591</ele>
        <time>2021-05-08T12:52:02Z</time>
      </trkpt>
      <trkpt lat="46.57784" lon="5.78599">
        <ele>596</ele>
        <time>2021-05-08T12:52:09Z</time>
      </trkpt>
      <trkpt lat="46.57777" lon="5.7871">
        <ele>597</ele>
        <time>2021-05-08T12:52:23Z</time>
      </trkpt>
      <trkpt lat="46.57782" lon="5.78812">
        <ele>603</ele>
        <time>2021-05-08T12:52:36Z</time>
      </trkpt>
      <trkpt lat="46.57778" lon="5.78942">
        <ele>609</ele>
        <time>2021-05-08T12:52:51Z</time>
      </trkpt>
      <trkpt lat="46.57767" lon="5.79032">
        <ele>612</ele>
        <time>2021-05-08T12:53:03Z</time>
      </trkpt>
      <trkpt lat="46.57734" lon="5.79178">
        <ele>619</ele>
        <time>2021-05-08T12:53:21Z</time>
      </trkpt>
      <trkpt lat="46.57698" lon="5.79274">
        <ele>628</ele>
        <time>2021-05-08T12:53:35Z</time>
      </trkpt>
      <trkpt lat="46.57676" lon="5.79344">
        <ele>632</ele>
        <time>2021-05-08T12:53:44Z</time>
      </trkpt>
      <trkpt lat="46.57666" lon="5.79395">
        <ele>632</ele>
        <time>2021-05-08T12:53:51Z</time>
      </trkpt>
      <trkpt lat="46.57664" lon="5.79501">
        <ele>640</ele>
        <time>2021-05-08T12:54:04Z</time>
      </trkpt>
      <trkpt lat="46.57656" lon="5.79523">
        <ele>639</ele>
        <time>2021-05-08T12:54:07Z</time>
      </trkpt>
      <trkpt lat="46.57639" lon="5.7955">
        <ele>635</ele>
        <time>2021-05-08T12:54:11Z</time>
      </trkpt>
      <trkpt lat="46.57627" lon="5.79578">
        <ele>633</ele>
        <time>2021-05-08T12:54:15Z</time>
      </trkpt>
      <trkpt lat="46.57623" lon="5.79594">
        <ele>632</ele>
        <time>2021-05-08T12:54:17Z</time>
      </trkpt>
      <trkpt lat="46.57623" lon="5.79629">
        <ele>633</ele>
        <time>2021-05-08T12:54:22Z</time>
      </trkpt>
      <trkpt lat="46.57626" lon="5.79645">
        <ele>634</ele>
        <time>2021-05-08T12:54:24Z</time>
      </trkpt>
      <trkpt lat="46.57639" lon="5.79678">
        <ele>640</ele>
        <time>2021-05-08T12:54:28Z</time>
      </trkpt>
      <trkpt lat="46.57653" lon="5.79703">
        <ele>647</ele>
        <time>2021-05-08T12:54:32Z</time>
      </trkpt>
      <trkpt lat="46.57657" lon="5.79717">
        <ele>649</ele>
        <time>2021-05-08T12:54:34Z</time>
      </trkpt>
      <trkpt lat="46.57657" lon="5.79731">
        <ele>650</ele>
        <time>2021-05-08T12:54:36Z</time>
      </trkpt>
      <trkpt lat="46.57647" lon="5.79793">
        <ele>648</ele>
        <time>2021-05-08T12:54:44Z</time>
      </trkpt>
      <trkpt lat="46.57649" lon="5.79834">
        <ele>651</ele>
        <time>2021-05-08T12:54:49Z</time>
      </trkpt>
      <trkpt lat="46.57656" lon="5.79864">
        <ele>655</ele>
        <time>2021-05-08T12:54:52Z</time>
      </trkpt>
      <trkpt lat="46.57655" lon="5.79893">
        <ele>656</ele>
        <time>2021-05-08T12:54:56Z</time>
      </trkpt>
      <trkpt lat="46.57645" lon="5.7992">
        <ele>655</ele>
        <time>2021-05-08T12:55:00Z</time>
      </trkpt>
      <trkpt lat="46.57604" lon="5.80001">
        <ele>659</ele>
        <time>2021-05-08T12:55:12Z</time>
      </trkpt>
      <trkpt lat="46.57585" lon="5.80029">
        <ele>659</ele>
        <time>2021-05-08T12:55:17Z</time>
      </trkpt>
      <trkpt lat="46.57545" lon="5.80077">
        <ele>662</ele>
        <time>2021-05-08T12:55:26Z</time>
      </trkpt>
      <trkpt lat="46.57532" lon="5.80099">
        <ele>663</ele>
        <time>2021-05-08T12:55:30Z</time>
      </trkpt>
      <trkpt lat="46.5752" lon="5.80127">
        <ele>665</ele>
        <time>2021-05-08T12:55:34Z</time>
      </trkpt>
      <trkpt lat="46.57514" lon="5.80133">
        <ele>665</ele>
        <time>2021-05-08T12:55:35Z</time>
      </trkpt>
      <trkpt lat="46.57499" lon="5.80139">
        <ele>665</ele>
        <time>2021-05-08T12:55:38Z</time>
      </trkpt>
      <trkpt lat="46.57483" lon="5.80139">
        <ele>665</ele>
        <time>2021-05-08T12:55:41Z</time>
      </trkpt>
      <trkpt lat="46.5747" lon="5.80144">
        <ele>665</ele>
        <time>2021-05-08T12:55:43Z</time>
      </trkpt>
      <trkpt lat="46.5746" lon="5.80157">
        <ele>666</ele>
        <time>2021-05-08T12:55:45Z</time>
      </trkpt>
      <trkpt lat="46.57414" lon="5.802">
        <ele>666</ele>
        <time>2021-05-08T12:55:55Z</time>
      </trkpt>
      <trkpt lat="46.57387" lon="5.80232">
        <ele>669</ele>
        <time>2021-05-08T12:56:01Z</time>
      </trkpt>
      <trkpt lat="46.57348" lon="5.80567">
        <ele>685</ele>
        <time>2021-05-08T12:56:43Z</time>
      </trkpt>
      <trkpt lat="46.57327" lon="5.80602">
        <ele>688</ele>
        <time>2021-05-08T12:56:49Z</time>
      </trkpt>
      <trkpt lat="46.57254" lon="5.80692">
        <ele>692</ele>
        <time>2021-05-08T12:57:06Z</time>
      </trkpt>
      <trkpt lat="46.57178" lon="5.80848">
        <ele>696</ele>
        <time>2021-05-08T12:57:29Z</time>
      </trkpt>
      <trkpt lat="46.57149" lon="5.80898">
        <ele>699</ele>
        <time>2021-05-08T12:57:37Z</time>
      </trkpt>
      <trkpt lat="46.57101" lon="5.80952">
        <ele>701</ele>
        <time>2021-05-08T12:57:48Z</time>
      </trkpt>
      <trkpt lat="46.57091" lon="5.80967">
        <ele>701</ele>
        <time>2021-05-08T12:57:50Z</time>
      </trkpt>
      <trkpt lat="46.57071" lon="5.8101">
        <ele>705</ele>
        <time>2021-05-08T12:57:57Z</time>
      </trkpt>
      <trkpt lat="46.5703" lon="5.81079">
        <ele>710</ele>
        <time>2021-05-08T12:58:08Z</time>
      </trkpt>
      <trkpt lat="46.56965" lon="5.81174">
        <ele>716</ele>
        <time>2021-05-08T12:58:24Z</time>
      </trkpt>
      <trkpt lat="46.56953" lon="5.81208">
        <ele>718</ele>
        <time>2021-05-08T12:58:29Z</time>
      </trkpt>
      <trkpt lat="46.56947" lon="5.81249">
        <ele>720</ele>
        <time>2021-05-08T12:58:34Z</time>
      </trkpt>
      <trkpt lat="46.56944" lon="5.8131">
        <ele>722</ele>
        <time>2021-05-08T12:58:41Z</time>
      </trkpt>
      <trkpt lat="46.56953" lon="5.81375">
        <ele>724</ele>
        <time>2021-05-08T12:58:50Z</time>
      </trkpt>
      <trkpt lat="46.57029" lon="5.81508">
        <ele>733</ele>
        <time>2021-05-08T12:59:11Z</time>
      </trkpt>
      <trkpt lat="46.57107" lon="5.81677">
        <ele>738</ele>
        <time>2021-05-08T12:59:36Z</time>
      </trkpt>
      <trkpt lat="46.57137" lon="5.81766">
        <ele>738</ele>
        <time>2021-05-08T12:59:48Z</time>
      </trkpt>
      <trkpt lat="46.57139" lon="5.81856">
        <ele>740</ele>
        <time>2021-05-08T12:59:59Z</time>
      </trkpt>
      <trkpt lat="46.57138" lon="5.81964">
        <ele>741</ele>
        <time>2021-05-08T13:00:12Z</time>
      </trkpt>
      <trkpt lat="46.57189" lon="5.824">
        <ele>743</ele>
        <time>2021-05-08T13:01:06Z</time>
      </trkpt>
      <trkpt lat="46.57201" lon="5.82481">
        <ele>745</ele>
        <time>2021-05-08T13:01:16Z</time>
      </trkpt>
      <trkpt lat="46.57197" lon="5.82609">
        <ele>752</ele>
        <time>2021-05-08T13:01:32Z</time>
      </trkpt>
      <trkpt lat="46.57221" lon="5.82754">
        <ele>759</ele>
        <time>2021-05-08T13:01:50Z</time>
      </trkpt>
      <trkpt lat="46.57219" lon="5.82765">
        <ele>760</ele>
        <time>2021-05-08T13:01:52Z</time>
      </trkpt>
      <trkpt lat="46.57198" lon="5.82816">
        <ele>762</ele>
        <time>2021-05-08T13:01:59Z</time>
      </trkpt>
      <trkpt lat="46.57196" lon="5.82836">
        <ele>763</ele>
        <time>2021-05-08T13:02:01Z</time>
      </trkpt>
      <trkpt lat="46.57205" lon="5.82901">
        <ele>766</ele>
        <time>2021-05-08T13:02:09Z</time>
      </trkpt>
      <trkpt lat="46.57204" lon="5.82928">
        <ele>767</ele>
        <time>2021-05-08T13:02:13Z</time>
      </trkpt>
      <trkpt lat="46.57196" lon="5.83002">
        <ele>774</ele>
        <time>2021-05-08T13:02:22Z</time>
      </trkpt>
      <trkpt lat="46.57188" lon="5.83027">
        <ele>776</ele>
        <time>2021-05-08T13:02:25Z</time>
      </trkpt>
      <trkpt lat="46.57158" lon="5.83068">
        <ele>778</ele>
        <time>2021-05-08T13:02:33Z</time>
      </trkpt>
      <trkpt lat="46.57113" lon="5.83098">
        <ele>779</ele>
        <time>2021-05-08T13:02:41Z</time>
      </trkpt>
      <trkpt lat="46.57087" lon="5.83107">
        <ele>779</ele>
        <time>2021-05-08T13:02:46Z</time>
      </trkpt>
      <trkpt lat="46.57056" lon="5.83103">
        <ele>779</ele>
        <time>2021-05-08T13:02:52Z</time>
      </trkpt>
      <trkpt lat="46.57048" lon="5.83106">
        <ele>779</ele>
        <time>2021-05-08T13:02:53Z</time>
      </trkpt>
      <trkpt lat="46.57033" lon="5.83123">
        <ele>781</ele>
        <time>2021-05-08T13:02:57Z</time>
      </trkpt>
      <trkpt lat="46.5702" lon="5.83146">
        <ele>782</ele>
        <time>2021-05-08T13:03:00Z</time>
      </trkpt>
      <trkpt lat="46.56997" lon="5.83178">
        <ele>785</ele>
        <time>2021-05-08T13:03:06Z</time>
      </trkpt>
      <trkpt lat="46.56978" lon="5.83201">
        <ele>788</ele>
        <time>2021-05-08T13:03:10Z</time>
      </trkpt>
      <trkpt lat="46.56967" lon="5.83208">
        <ele>789</ele>
        <time>2021-05-08T13:03:12Z</time>
      </trkpt>
      <trkpt lat="46.56913" lon="5.83233">
        <ele>792</ele>
        <time>2021-05-08T13:03:22Z</time>
      </trkpt>
      <trkpt lat="46.56883" lon="5.83252">
        <ele>795</ele>
        <time>2021-05-08T13:03:28Z</time>
      </trkpt>
      <trkpt lat="46.56844" lon="5.83257">
        <ele>797</ele>
        <time>2021-05-08T13:03:35Z</time>
      </trkpt>
      <trkpt lat="46.56745" lon="5.83279">
        <ele>799</ele>
        <time>2021-05-08T13:03:53Z</time>
      </trkpt>
      <trkpt lat="46.56692" lon="5.83311">
        <ele>803</ele>
        <time>2021-05-08T13:04:03Z</time>
      </trkpt>
      <trkpt lat="46.56641" lon="5.83348">
        <ele>806</ele>
        <time>2021-05-08T13:04:13Z</time>
      </trkpt>
      <trkpt lat="46.56552" lon="5.83423">
        <ele>809</ele>
        <time>2021-05-08T13:04:32Z</time>
      </trkpt>
      <trkpt lat="46.56466" lon="5.83522">
        <ele>811</ele>
        <time>2021-05-08T13:04:51Z</time>
      </trkpt>
      <trkpt lat="46.56419" lon="5.83556">
        <ele>813</ele>
        <time>2021-05-08T13:05:01Z</time>
      </trkpt>
      <trkpt lat="46.56352" lon="5.83599">
        <ele>822</ele>
        <time>2021-05-08T13:05:14Z</time>
      </trkpt>
      <trkpt lat="46.56226" lon="5.8366">
        <ele>833</ele>
        <time>2021-05-08T13:05:37Z</time>
      </trkpt>
      <trkpt lat="46.56205" lon="5.83661">
        <ele>835</ele>
        <time>2021-05-08T13:05:41Z</time>
      </trkpt>
      <trkpt lat="46.56191" lon="5.83658">
        <ele>837</ele>
        <time>2021-05-08T13:05:43Z</time>
      </trkpt>
      <trkpt lat="46.56109" lon="5.83618">
        <ele>840</ele>
        <time>2021-05-08T13:05:59Z</time>
      </trkpt>
      <trkpt lat="46.56095" lon="5.83615">
        <ele>840</ele>
        <time>2021-05-08T13:06:01Z</time>
      </trkpt>
      <trkpt lat="46.56078" lon="5.83617">
        <ele>840</ele>
        <time>2021-05-08T13:06:04Z</time>
      </trkpt>
      <trkpt lat="46.56069" lon="5.83622">
        <ele>841</ele>
        <time>2021-05-08T13:06:06Z</time>
      </trkpt>
      <trkpt lat="46.56017" lon="5.83672">
        <ele>847</ele>
        <time>2021-05-08T13:06:17Z</time>
      </trkpt>
      <trkpt lat="46.55998" lon="5.83684">
        <ele>850</ele>
        <time>2021-05-08T13:06:21Z</time>
      </trkpt>
      <trkpt lat="46.55983" lon="5.8369">
        <ele>852</ele>
        <time>2021-05-08T13:06:24Z</time>
      </trkpt>
      <trkpt lat="46.55945" lon="5.83691">
        <ele>853</ele>
        <time>2021-05-08T13:06:30Z</time>
      </trkpt>
      <trkpt lat="46.55868" lon="5.83688">
        <ele>853</ele>
        <time>2021-05-08T13:06:44Z</time>
      </trkpt>
      <trkpt lat="46.55837" lon="5.83697">
        <ele>854</ele>
        <time>2021-05-08T13:06:50Z</time>
      </trkpt>
      <trkpt lat="46.55819" lon="5.83711">
        <ele>853</ele>
        <time>2021-05-08T13:06:53Z</time>
      </trkpt>
      <trkpt lat="46.5571" lon="5.8383">
        <ele>852</ele>
        <time>2021-05-08T13:07:18Z</time>
      </trkpt>
      <trkpt lat="46.55696" lon="5.83857">
        <ele>854</ele>
        <time>2021-05-08T13:07:22Z</time>
      </trkpt>
      <trkpt lat="46.55692" lon="5.8387">
        <ele>855</ele>
        <time>2021-05-08T13:07:24Z</time>
      </trkpt>
      <trkpt lat="46.55691" lon="5.83892">
        <ele>856</ele>
        <time>2021-05-08T13:07:26Z</time>
      </trkpt>
      <trkpt lat="46.55697" lon="5.83916">
        <ele>857</ele>
        <time>2021-05-08T13:07:29Z</time>
      </trkpt>
      <trkpt lat="46.55708" lon="5.83939">
        <ele>859</ele>
        <time>2021-05-08T13:07:33Z</time>
      </trkpt>
      <trkpt lat="46.55715" lon="5.83949">
        <ele>859</ele>
        <time>2021-05-08T13:07:35Z</time>
      </trkpt>
      <trkpt lat="46.55727" lon="5.8396">
        <ele>858</ele>
        <time>2021-05-08T13:07:37Z</time>
      </trkpt>
      <trkpt lat="46.55752" lon="5.83975">
        <ele>855</ele>
        <time>2021-05-08T13:07:42Z</time>
      </trkpt>
      <trkpt lat="46.55763" lon="5.83977">
        <ele>855</ele>
        <time>2021-05-08T13:07:44Z</time>
      </trkpt>
      <trkpt lat="46.55799" lon="5.83977">
        <ele>855</ele>
        <time>2021-05-08T13:07:50Z</time>
      </trkpt>
      <trkpt lat="46.55876" lon="5.83973">
        <ele>856</ele>
        <time>2021-05-08T13:08:04Z</time>
      </trkpt>
      <trkpt lat="46.55924" lon="5.83974">
        <ele>858</ele>
        <time>2021-05-08T13:08:12Z</time>
      </trkpt>
      <trkpt lat="46.55934" lon="5.83976">
        <ele>859</ele>
        <time>2021-05-08T13:08:14Z</time>
      </trkpt>
      <trkpt lat="46.55952" lon="5.83985">
        <ele>862</ele>
        <time>2021-05-08T13:08:18Z</time>
      </trkpt>
      <trkpt lat="46.5606" lon="5.84098">
        <ele>868</ele>
        <time>2021-05-08T13:08:41Z</time>
      </trkpt>
      <trkpt lat="46.56142" lon="5.84194">
        <ele>877</ele>
        <time>2021-05-08T13:09:00Z</time>
      </trkpt>
      <trkpt lat="46.56148" lon="5.84229">
        <ele>879</ele>
        <time>2021-05-08T13:09:04Z</time>
      </trkpt>
      <trkpt lat="46.56146" lon="5.84243">
        <ele>879</ele>
        <time>2021-05-08T13:09:06Z</time>
      </trkpt>
      <trkpt lat="46.56133" lon="5.84264">
        <ele>882</ele>
        <time>2021-05-08T13:09:10Z</time>
      </trkpt>
      <trkpt lat="46.56124" lon="5.84272">
        <ele>883</ele>
        <time>2021-05-08T13:09:12Z</time>
      </trkpt>
      <trkpt lat="46.5609" lon="5.84283">
        <ele>883</ele>
        <time>2021-05-08T13:09:18Z</time>
      </trkpt>
      <trkpt lat="46.56056" lon="5.8431">
        <ele>889</ele>
        <time>2021-05-08T13:09:25Z</time>
      </trkpt>
      <trkpt lat="46.55986" lon="5.84329">
        <ele>896</ele>
        <time>2021-05-08T13:09:37Z</time>
      </trkpt>
      <trkpt lat="46.5596" lon="5.8433">
        <ele>899</ele>
        <time>2021-05-08T13:09:42Z</time>
      </trkpt>
      <trkpt lat="46.5591" lon="5.84313">
        <ele>901</ele>
        <time>2021-05-08T13:09:51Z</time>
      </trkpt>
      <trkpt lat="46.55891" lon="5.84309">
        <ele>905</ele>
        <time>2021-05-08T13:09:55Z</time>
      </trkpt>
      <trkpt lat="46.55877" lon="5.84296">
        <ele>904</ele>
        <time>2021-05-08T13:09:57Z</time>
      </trkpt>
      <trkpt lat="46.55842" lon="5.84254">
        <ele>898</ele>
        <time>2021-05-08T13:10:06Z</time>
      </trkpt>
      <trkpt lat="46.55818" lon="5.8424">
        <ele>899</ele>
        <time>2021-05-08T13:10:10Z</time>
      </trkpt>
      <trkpt lat="46.55755" lon="5.84221">
        <ele>906</ele>
        <time>2021-05-08T13:10:22Z</time>
      </trkpt>
      <trkpt lat="46.55729" lon="5.84209">
        <ele>907</ele>
        <time>2021-05-08T13:10:26Z</time>
      </trkpt>
      <trkpt lat="46.55672" lon="5.84174">
        <ele>912</ele>
        <time>2021-05-08T13:10:37Z</time>
      </trkpt>
      <trkpt lat="46.55648" lon="5.84163">
        <ele>914</ele>
        <time>2021-05-08T13:10:42Z</time>
      </trkpt>
      <trkpt lat="46.55634" lon="5.84158">
        <ele>916</ele>
        <time>2021-05-08T13:10:44Z</time>
      </trkpt>
      <trkpt lat="46.55607" lon="5.84162">
        <ele>920</ele>
        <time>2021-05-08T13:10:49Z</time>
      </trkpt>
      <trkpt lat="46.55574" lon="5.84177">
        <ele>925</ele>
        <time>2021-05-08T13:10:55Z</time>
      </trkpt>
      <trkpt lat="46.55488" lon="5.8425">
        <ele>932</ele>
        <time>2021-05-08T13:11:13Z</time>
      </trkpt>
      <trkpt lat="46.55423" lon="5.84293">
        <ele>936</ele>
        <time>2021-05-08T13:11:26Z</time>
      </trkpt>
      <trkpt lat="46.55406" lon="5.84319">
        <ele>938</ele>
        <time>2021-05-08T13:11:30Z</time>
      </trkpt>
      <trkpt lat="46.55401" lon="5.84351">
        <ele>940</ele>
        <time>2021-05-08T13:11:34Z</time>
      </trkpt>
      <trkpt lat="46.55404" lon="5.84381">
        <ele>942</ele>
        <time>2021-05-08T13:11:38Z</time>
      </trkpt>
      <trkpt lat="46.55409" lon="5.84397">
        <ele>943</ele>
        <time>2021-05-08T13:11:40Z</time>
      </trkpt>
      <trkpt lat="46.55415" lon="5.84406">
        <ele>943</ele>
        <time>2021-05-08T13:11:42Z</time>
      </trkpt>
      <trkpt lat="46.55454" lon="5.8444">
        <ele>945</ele>
        <time>2021-05-08T13:11:50Z</time>
      </trkpt>
      <trkpt lat="46.55516" lon="5.84526">
        <ele>952</ele>
        <time>2021-05-08T13:12:05Z</time>
      </trkpt>
      <trkpt lat="46.55543" lon="5.8455">
        <ele>953</ele>
        <time>2021-05-08T13:12:11Z</time>
      </trkpt>
      <trkpt lat="46.55544" lon="5.84561">
        <ele>954</ele>
        <time>2021-05-08T13:12:12Z</time>
      </trkpt>
      <trkpt lat="46.55541" lon="5.84571">
        <ele>956</ele>
        <time>2021-05-08T13:12:13Z</time>
      </trkpt>
      <trkpt lat="46.55534" lon="5.84577">
        <ele>958</ele>
        <time>2021-05-08T13:12:15Z</time>
      </trkpt>
      <trkpt lat="46.55498" lon="5.84567">
        <ele>960</ele>
        <time>2021-05-08T13:12:21Z</time>
      </trkpt>
      <trkpt lat="46.55408" lon="5.84513">
        <ele>956</ele>
        <time>2021-05-08T13:12:39Z</time>
      </trkpt>
      <trkpt lat="46.5538" lon="5.845">
        <ele>957</ele>
        <time>2021-05-08T13:12:44Z</time>
      </trkpt>
      <trkpt lat="46.55361" lon="5.84498">
        <ele>958</ele>
        <time>2021-05-08T13:12:47Z</time>
      </trkpt>
      <trkpt lat="46.55346" lon="5.845">
        <ele>960</ele>
        <time>2021-05-08T13:12:50Z</time>
      </trkpt>
      <trkpt lat="46.55325" lon="5.84517">
        <ele>963</ele>
        <time>2021-05-08T13:12:54Z</time>
      </trkpt>
      <trkpt lat="46.55306" lon="5.84546">
        <ele>965</ele>
        <time>2021-05-08T13:12:59Z</time>
      </trkpt>
      <trkpt lat="46.5529" lon="5.84583">
        <ele>968</ele>
        <time>2021-05-08T13:13:04Z</time>
      </trkpt>
      <trkpt lat="46.55275" lon="5.84627">
        <ele>973</ele>
        <time>2021-05-08T13:13:10Z</time>
      </trkpt>
      <trkpt lat="46.55259" lon="5.8466">
        <ele>976</ele>
        <time>2021-05-08T13:13:15Z</time>
      </trkpt>
      <trkpt lat="46.55245" lon="5.84668">
        <ele>977</ele>
        <time>2021-05-08T13:13:18Z</time>
      </trkpt>
      <trkpt lat="46.55224" lon="5.8467">
        <ele>978</ele>
        <time>2021-05-08T13:13:22Z</time>
      </trkpt>
      <trkpt lat="46.55128" lon="5.84664">
        <ele>980</ele>
        <time>2021-05-08T13:13:39Z</time>
      </trkpt>
      <trkpt lat="46.55109" lon="5.84668">
        <ele>981</ele>
        <time>2021-05-08T13:13:42Z</time>
      </trkpt>
      <trkpt lat="46.55102" lon="5.84672">
        <ele>982</ele>
        <time>2021-05-08T13:13:44Z</time>
      </trkpt>
      <trkpt lat="46.55088" lon="5.84687">
        <ele>985</ele>
        <time>2021-05-08T13:13:47Z</time>
      </trkpt>
      <trkpt lat="46.55056" lon="5.84733">
        <ele>997</ele>
        <time>2021-05-08T13:13:55Z</time>
      </trkpt>
      <trkpt lat="46.55032" lon="5.8476">
        <ele>1003</ele>
        <time>2021-05-08T13:14:00Z</time>
      </trkpt>
      <trkpt lat="46.55007" lon="5.84783">
        <ele>1007</ele>
        <time>2021-05-08T13:14:05Z</time>
      </trkpt>
      <trkpt lat="46.54985" lon="5.84811">
        <ele>1010</ele>
        <time>2021-05-08T13:14:11Z</time>
      </trkpt>
      <trkpt lat="46.5498" lon="5.84814">
        <ele>1011</ele>
        <time>2021-05-08T13:14:12Z</time>
      </trkpt>
      <trkpt lat="46.54968" lon="5.84815">
        <ele>1012</ele>
        <time>2021-05-08T13:14:14Z</time>
      </trkpt>
      <trkpt lat="46.54889" lon="5.84796">
        <ele>1025</ele>
        <time>2021-05-08T13:14:28Z</time>
      </trkpt>
      <trkpt lat="46.54879" lon="5.84801">
        <ele>1027</ele>
        <time>2021-05-08T13:14:30Z</time>
      </trkpt>
      <trkpt lat="46.54874" lon="5.84814">
        <ele>1028</ele>
        <time>2021-05-08T13:14:32Z</time>
      </trkpt>
      <trkpt lat="46.54875" lon="5.84824">
        <ele>1028</ele>
        <time>2021-05-08T13:14:33Z</time>
      </trkpt>
      <trkpt lat="46.54898" lon="5.8485">
        <ele>1022</ele>
        <time>2021-05-08T13:14:38Z</time>
      </trkpt>
      <trkpt lat="46.54935" lon="5.8492">
        <ele>1022</ele>
        <time>2021-05-08T13:14:49Z</time>
      </trkpt>
      <trkpt lat="46.54965" lon="5.84943">
        <ele>1023</ele>
        <time>2021-05-08T13:14:55Z</time>
      </trkpt>
      <trkpt lat="46.54987" lon="5.84954">
        <ele>1024</ele>
        <time>2021-05-08T13:14:59Z</time>
      </trkpt>
      <trkpt lat="46.55046" lon="5.84977">
        <ele>1031</ele>
        <time>2021-05-08T13:15:10Z</time>
      </trkpt>
      <trkpt lat="46.55058" lon="5.84984">
        <ele>1033</ele>
        <time>2021-05-08T13:15:12Z</time>
      </trkpt>
      <trkpt lat="46.55066" lon="5.84999">
        <ele>1035</ele>
        <time>2021-05-08T13:15:15Z</time>
      </trkpt>
      <trkpt lat="46.55067" lon="5.85006">
        <ele>1036</ele>
        <time>2021-05-08T13:15:15Z</time>
      </trkpt>
      <trkpt lat="46.55064" lon="5.8502">
        <ele>1037</ele>
        <time>2021-05-08T13:15:17Z</time>
      </trkpt>
      <trkpt lat="46.5506" lon="5.85026">
        <ele>1037</ele>
        <time>2021-05-08T13:15:18Z</time>
      </trkpt>
      <trkpt lat="46.55048" lon="5.85026">
        <ele>1036</ele>
        <time>2021-05-08T13:15:20Z</time>
      </trkpt>
      <trkpt lat="46.55021" lon="5.85005">
        <ele>1031</ele>
        <time>2021-05-08T13:15:26Z</time>
      </trkpt>
      <trkpt lat="46.54983" lon="5.84995">
        <ele>1028</ele>
        <time>2021-05-08T13:15:33Z</time>
      </trkpt>
      <trkpt lat="46.54969" lon="5.84994">
        <ele>1028</ele>
        <time>2021-05-08T13:15:35Z</time>
      </trkpt>
      <trkpt lat="46.54956" lon="5.84997">
        <ele>1028</ele>
        <time>2021-05-08T13:15:38Z</time>
      </trkpt>
      <trkpt lat="46.54924" lon="5.85015">
        <ele>1027</ele>
        <time>2021-05-08T13:15:44Z</time>
      </trkpt>
      <trkpt lat="46.5486" lon="5.85033">
        <ele>1031</ele>
        <time>2021-05-08T13:15:55Z</time>
      </trkpt>
      <trkpt lat="46.54833" lon="5.85045">
        <ele>1031</ele>
        <time>2021-05-08T13:16:00Z</time>
      </trkpt>
      <trkpt lat="46.54802" lon="5.85069">
        <ele>1029</ele>
        <time>2021-05-08T13:16:07Z</time>
      </trkpt>
      <trkpt lat="46.54783" lon="5.85079">
        <ele>1029</ele>
        <time>2021-05-08T13:16:10Z</time>
      </trkpt>
      <trkpt lat="46.54767" lon="5.85084">
        <ele>1030</ele>
        <time>2021-05-08T13:16:13Z</time>
      </trkpt>
      <trkpt lat="46.54722" lon="5.85081">
        <ele>1030</ele>
        <time>2021-05-08T13:16:21Z</time>
      </trkpt>
      <trkpt lat="46.54714" lon="5.85084">
        <ele>1030</ele>
        <time>2021-05-08T13:16:23Z</time>
      </trkpt>
      <trkpt lat="46.54701" lon="5.85096">
        <ele>1030</ele>
        <time>2021-05-08T13:16:25Z</time>
      </trkpt>
      <trkpt lat="46.54681" lon="5.85126">
        <ele>1032</ele>
        <time>2021-05-08T13:16:30Z</time>
      </trkpt>
      <trkpt lat="46.54654" lon="5.85159">
        <ele>1035</ele>
        <time>2021-05-08T13:16:37Z</time>
      </trkpt>
      <trkpt lat="46.54632" lon="5.85171">
        <ele>1037</ele>
        <time>2021-05-08T13:16:41Z</time>
      </trkpt>
      <trkpt lat="46.54615" lon="5.85171">
        <ele>1037</ele>
        <time>2021-05-08T13:16:44Z</time>
      </trkpt>
      <trkpt lat="46.54581" lon="5.85163">
        <ele>1036</ele>
        <time>2021-05-08T13:16:50Z</time>
      </trkpt>
      <trkpt lat="46.54568" lon="5.85163">
        <ele>1037</ele>
        <time>2021-05-08T13:16:52Z</time>
      </trkpt>
      <trkpt lat="46.54524" lon="5.85174">
        <ele>1044</ele>
        <time>2021-05-08T13:17:00Z</time>
      </trkpt>
      <trkpt lat="46.54459" lon="5.85148">
        <ele>1043</ele>
        <time>2021-05-08T13:17:12Z</time>
      </trkpt>
      <trkpt lat="46.54417" lon="5.85123">
        <ele>1040</ele>
        <time>2021-05-08T13:17:20Z</time>
      </trkpt>
      <trkpt lat="46.54378" lon="5.85104">
        <ele>1036</ele>
        <time>2021-05-08T13:17:28Z</time>
      </trkpt>
      <trkpt lat="46.54351" lon="5.85096">
        <ele>1036</ele>
        <time>2021-05-08T13:17:33Z</time>
      </trkpt>
      <trkpt lat="46.54342" lon="5.85095">
        <ele>1037</ele>
        <time>2021-05-08T13:17:34Z</time>
      </trkpt>
      <trkpt lat="46.54335" lon="5.85097">
        <ele>1038</ele>
        <time>2021-05-08T13:17:35Z</time>
      </trkpt>
      <trkpt lat="46.54306" lon="5.85124">
        <ele>1046</ele>
        <time>2021-05-08T13:17:42Z</time>
      </trkpt>
      <trkpt lat="46.54299" lon="5.85126">
        <ele>1046</ele>
        <time>2021-05-08T13:17:43Z</time>
      </trkpt>
      <trkpt lat="46.54287" lon="5.85125">
        <ele>1047</ele>
        <time>2021-05-08T13:17:45Z</time>
      </trkpt>
      <trkpt lat="46.54248" lon="5.85103">
        <ele>1047</ele>
        <time>2021-05-08T13:17:52Z</time>
      </trkpt>
      <trkpt lat="46.54208" lon="5.85068">
        <ele>1041</ele>
        <time>2021-05-08T13:18:01Z</time>
      </trkpt>
      <trkpt lat="46.542" lon="5.85065">
        <ele>1040</ele>
        <time>2021-05-08T13:18:02Z</time>
      </trkpt>
      <trkpt lat="46.54188" lon="5.85067">
        <ele>1041</ele>
        <time>2021-05-08T13:18:04Z</time>
      </trkpt>
      <trkpt lat="46.5418" lon="5.85071">
        <ele>1042</ele>
        <time>2021-05-08T13:18:06Z</time>
      </trkpt>
      <trkpt lat="46.54145" lon="5.85102">
        <ele>1043</ele>
        <time>2021-05-08T13:18:13Z</time>
      </trkpt>
      <trkpt lat="46.54139" lon="5.8511">
        <ele>1043</ele>
        <time>2021-05-08T13:18:15Z</time>
      </trkpt>
      <trkpt lat="46.54132" lon="5.85138">
        <ele>1042</ele>
        <time>2021-05-08T13:18:18Z</time>
      </trkpt>
      <trkpt lat="46.54129" lon="5.85169">
        <ele>1041</ele>
        <time>2021-05-08T13:18:22Z</time>
      </trkpt>
      <trkpt lat="46.54119" lon="5.85215">
        <ele>1035</ele>
        <time>2021-05-08T13:18:28Z</time>
      </trkpt>
      <trkpt lat="46.54102" lon="5.85265">
        <ele>1027</ele>
        <time>2021-05-08T13:18:35Z</time>
      </trkpt>
      <trkpt lat="46.541" lon="5.85282">
        <ele>1025</ele>
        <time>2021-05-08T13:18:37Z</time>
      </trkpt>
      <trkpt lat="46.54104" lon="5.85295">
        <ele>1025</ele>
        <time>2021-05-08T13:18:39Z</time>
      </trkpt>
      <trkpt lat="46.54109" lon="5.853">
        <ele>1025</ele>
        <time>2021-05-08T13:18:40Z</time>
      </trkpt>
      <trkpt lat="46.54141" lon="5.85313">
        <ele>1029</ele>
        <time>2021-05-08T13:18:46Z</time>
      </trkpt>
      <trkpt lat="46.54149" lon="5.85322">
        <ele>1030</ele>
        <time>2021-05-08T13:18:47Z</time>
      </trkpt>
      <trkpt lat="46.54154" lon="5.85343">
        <ele>1028</ele>
        <time>2021-05-08T13:18:50Z</time>
      </trkpt>
      <trkpt lat="46.54145" lon="5.85378">
        <ele>1024</ele>
        <time>2021-05-08T13:18:55Z</time>
      </trkpt>
      <trkpt lat="46.54146" lon="5.85396">
        <ele>1022</ele>
        <time>2021-05-08T13:18:57Z</time>
      </trkpt>
      <trkpt lat="46.54155" lon="5.85412">
        <ele>1022</ele>
        <time>2021-05-08T13:18:59Z</time>
      </trkpt>
      <trkpt lat="46.54235" lon="5.85503">
        <ele>1023</ele>
        <time>2021-05-08T13:19:18Z</time>
      </trkpt>
      <trkpt lat="46.5424" lon="5.85517">
        <ele>1023</ele>
        <time>2021-05-08T13:19:19Z</time>
      </trkpt>
      <trkpt lat="46.5424" lon="5.85525">
        <ele>1022</ele>
        <time>2021-05-08T13:19:20Z</time>
      </trkpt>
      <trkpt lat="46.54235" lon="5.85538">
        <ele>1021</ele>
        <time>2021-05-08T13:19:22Z</time>
      </trkpt>
      <trkpt lat="46.5423" lon="5.85543">
        <ele>1020</ele>
        <time>2021-05-08T13:19:23Z</time>
      </trkpt>
      <trkpt lat="46.54224" lon="5.85544">
        <ele>1019</ele>
        <time>2021-05-08T13:19:24Z</time>
      </trkpt>
      <trkpt lat="46.54208" lon="5.85537">
        <ele>1017</ele>
        <time>2021-05-08T13:19:27Z</time>
      </trkpt>
      <trkpt lat="46.54185" lon="5.85514">
        <ele>1016</ele>
        <time>2021-05-08T13:19:32Z</time>
      </trkpt>
      <trkpt lat="46.5416" lon="5.85501">
        <ele>1014</ele>
        <time>2021-05-08T13:19:37Z</time>
      </trkpt>
      <trkpt lat="46.54134" lon="5.85492">
        <ele>1013</ele>
        <time>2021-05-08T13:19:42Z</time>
      </trkpt>
      <trkpt lat="46.54074" lon="5.85449">
        <ele>1010</ele>
        <time>2021-05-08T13:19:54Z</time>
      </trkpt>
      <trkpt lat="46.54055" lon="5.8544">
        <ele>1008</ele>
        <time>2021-05-08T13:19:57Z</time>
      </trkpt>
      <trkpt lat="46.5401" lon="5.85425">
        <ele>1005</ele>
        <time>2021-05-08T13:20:06Z</time>
      </trkpt>
      <trkpt lat="46.53975" lon="5.85406">
        <ele>1002</ele>
        <time>2021-05-08T13:20:12Z</time>
      </trkpt>
      <trkpt lat="46.53965" lon="5.85399">
        <ele>1001</ele>
        <time>2021-05-08T13:20:14Z</time>
      </trkpt>
      <trkpt lat="46.53946" lon="5.85362">
        <ele>1000</ele>
        <time>2021-05-08T13:20:20Z</time>
      </trkpt>
      <trkpt lat="46.53932" lon="5.85342">
        <ele>1000</ele>
        <time>2021-05-08T13:20:23Z</time>
      </trkpt>
      <trkpt lat="46.53915" lon="5.85339">
        <ele>997</ele>
        <time>2021-05-08T13:20:26Z</time>
      </trkpt>
      <trkpt lat="46.53884" lon="5.85338">
        <ele>995</ele>
        <time>2021-05-08T13:20:32Z</time>
      </trkpt>
      <trkpt lat="46.53872" lon="5.85335">
        <ele>994</ele>
        <time>2021-05-08T13:20:34Z</time>
      </trkpt>
      <trkpt lat="46.53848" lon="5.85326">
        <ele>992</ele>
        <time>2021-05-08T13:20:38Z</time>
      </trkpt>
      <trkpt lat="46.53758" lon="5.85283">
        <ele>986</ele>
        <time>2021-05-08T13:20:55Z</time>
      </trkpt>
      <trkpt lat="46.53601" lon="5.85169">
        <ele>981</ele>
        <time>2021-05-08T13:21:27Z</time>
      </trkpt>
      <trkpt lat="46.53396" lon="5.85056">
        <ele>970</ele>
        <time>2021-05-08T13:22:06Z</time>
      </trkpt>
      <trkpt lat="46.53044" lon="5.84852">
        <ele>954</ele>
        <time>2021-05-08T13:23:13Z</time>
      </trkpt>
      <trkpt lat="46.5295" lon="5.84778">
        <ele>954</ele>
        <time>2021-05-08T13:23:32Z</time>
      </trkpt>
      <trkpt lat="46.52826" lon="5.84727">
        <ele>953</ele>
        <time>2021-05-08T13:23:55Z</time>
      </trkpt>
      <trkpt lat="46.52806" lon="5.84726">
        <ele>952</ele>
        <time>2021-05-08T13:23:58Z</time>
      </trkpt>
      <trkpt lat="46.5279" lon="5.84732">
        <ele>950</ele>
        <time>2021-05-08T13:24:01Z</time>
      </trkpt>
      <trkpt lat="46.52779" lon="5.84739">
        <ele>949</ele>
        <time>2021-05-08T13:24:04Z</time>
      </trkpt>
      <trkpt lat="46.52749" lon="5.84769">
        <ele>950</ele>
        <time>2021-05-08T13:24:10Z</time>
      </trkpt>
      <trkpt lat="46.52725" lon="5.84781">
        <ele>951</ele>
        <time>2021-05-08T13:24:15Z</time>
      </trkpt>
      <trkpt lat="46.52606" lon="5.8481">
        <ele>954</ele>
        <time>2021-05-08T13:24:36Z</time>
      </trkpt>
      <trkpt lat="46.52578" lon="5.84825">
        <ele>953</ele>
        <time>2021-05-08T13:24:41Z</time>
      </trkpt>
      <trkpt lat="46.52547" lon="5.84867">
        <ele>946</ele>
        <time>2021-05-08T13:24:49Z</time>
      </trkpt>
      <trkpt lat="46.52522" lon="5.84888">
        <ele>940</ele>
        <time>2021-05-08T13:24:54Z</time>
      </trkpt>
      <trkpt lat="46.52509" lon="5.84894">
        <ele>938</ele>
        <time>2021-05-08T13:24:56Z</time>
      </trkpt>
      <trkpt lat="46.524" lon="5.84901">
        <ele>926</ele>
        <time>2021-05-08T13:25:16Z</time>
      </trkpt>
      <trkpt lat="46.52388" lon="5.849">
        <ele>925</ele>
        <time>2021-05-08T13:25:18Z</time>
      </trkpt>
      <trkpt lat="46.52375" lon="5.84895">
        <ele>923</ele>
        <time>2021-05-08T13:25:20Z</time>
      </trkpt>
      <trkpt lat="46.52365" lon="5.84886">
        <ele>923</ele>
        <time>2021-05-08T13:25:22Z</time>
      </trkpt>
      <trkpt lat="46.52336" lon="5.84847">
        <ele>925</ele>
        <time>2021-05-08T13:25:29Z</time>
      </trkpt>
      <trkpt lat="46.52303" lon="5.84816">
        <ele>925</ele>
        <time>2021-05-08T13:25:36Z</time>
      </trkpt>
      <trkpt lat="46.5228" lon="5.84824">
        <ele>920</ele>
        <time>2021-05-08T13:25:41Z</time>
      </trkpt>
      <trkpt lat="46.523" lon="5.84883">
        <ele>915</ele>
        <time>2021-05-08T13:25:49Z</time>
      </trkpt>
      <trkpt lat="46.52314" lon="5.84907">
        <ele>913</ele>
        <time>2021-05-08T13:25:53Z</time>
      </trkpt>
      <trkpt lat="46.52357" lon="5.84969">
        <ele>909</ele>
        <time>2021-05-08T13:26:03Z</time>
      </trkpt>
      <trkpt lat="46.5241" lon="5.85019">
        <ele>908</ele>
        <time>2021-05-08T13:26:15Z</time>
      </trkpt>
      <trkpt lat="46.52424" lon="5.85038">
        <ele>907</ele>
        <time>2021-05-08T13:26:18Z</time>
      </trkpt>
      <trkpt lat="46.52436" lon="5.8506">
        <ele>906</ele>
        <time>2021-05-08T13:26:21Z</time>
      </trkpt>
      <trkpt lat="46.52445" lon="5.85085">
        <ele>904</ele>
        <time>2021-05-08T13:26:25Z</time>
      </trkpt>
      <trkpt lat="46.5246" lon="5.85187">
        <ele>901</ele>
        <time>2021-05-08T13:26:38Z</time>
      </trkpt>
      <trkpt lat="46.52486" lon="5.85292">
        <ele>902</ele>
        <time>2021-05-08T13:26:51Z</time>
      </trkpt>
      <trkpt lat="46.52532" lon="5.85411">
        <ele>904</ele>
        <time>2021-05-08T13:27:08Z</time>
      </trkpt>
      <trkpt lat="46.52545" lon="5.85473">
        <ele>900</ele>
        <time>2021-05-08T13:27:16Z</time>
      </trkpt>
      <trkpt lat="46.52572" lon="5.85571">
        <ele>894</ele>
        <time>2021-05-08T13:27:29Z</time>
      </trkpt>
      <trkpt lat="46.52589" lon="5.85649">
        <ele>887</ele>
        <time>2021-05-08T13:27:39Z</time>
      </trkpt>
      <trkpt lat="46.52597" lon="5.85695">
        <ele>886</ele>
        <time>2021-05-08T13:27:45Z</time>
      </trkpt>
      <trkpt lat="46.526" lon="5.85734">
        <ele>885</ele>
        <time>2021-05-08T13:27:50Z</time>
      </trkpt>
      <trkpt lat="46.526" lon="5.85756">
        <ele>884</ele>
        <time>2021-05-08T13:27:52Z</time>
      </trkpt>
      <trkpt lat="46.52595" lon="5.85786">
        <ele>884</ele>
        <time>2021-05-08T13:27:56Z</time>
      </trkpt>
      <trkpt lat="46.52559" lon="5.85901">
        <ele>884</ele>
        <time>2021-05-08T13:28:11Z</time>
      </trkpt>
      <trkpt lat="46.5255" lon="5.85923">
        <ele>884</ele>
        <time>2021-05-08T13:28:15Z</time>
      </trkpt>
      <trkpt lat="46.52534" lon="5.85939">
        <ele>886</ele>
        <time>2021-05-08T13:28:18Z</time>
      </trkpt>
      <trkpt lat="46.52516" lon="5.85947">
        <ele>886</ele>
        <time>2021-05-08T13:28:21Z</time>
      </trkpt>
      <trkpt lat="46.52503" lon="5.85947">
        <ele>887</ele>
        <time>2021-05-08T13:28:24Z</time>
      </trkpt>
      <trkpt lat="46.52439" lon="5.85938">
        <ele>886</ele>
        <time>2021-05-08T13:28:35Z</time>
      </trkpt>
      <trkpt lat="46.52423" lon="5.85941">
        <ele>886</ele>
        <time>2021-05-08T13:28:38Z</time>
      </trkpt>
      <trkpt lat="46.5239" lon="5.85959">
        <ele>885</ele>
        <time>2021-05-08T13:28:44Z</time>
      </trkpt>
      <trkpt lat="46.52374" lon="5.85974">
        <ele>886</ele>
        <time>2021-05-08T13:28:48Z</time>
      </trkpt>
      <trkpt lat="46.5232" lon="5.86041">
        <ele>891</ele>
        <time>2021-05-08T13:29:00Z</time>
      </trkpt>
      <trkpt lat="46.52298" lon="5.86059">
        <ele>893</ele>
        <time>2021-05-08T13:29:05Z</time>
      </trkpt>
      <trkpt lat="46.52278" lon="5.86068">
        <ele>894</ele>
        <time>2021-05-08T13:29:09Z</time>
      </trkpt>
      <trkpt lat="46.52211" lon="5.86088">
        <ele>895</ele>
        <time>2021-05-08T13:29:21Z</time>
      </trkpt>
      <trkpt lat="46.52143" lon="5.86095">
        <ele>891</ele>
        <time>2021-05-08T13:29:33Z</time>
      </trkpt>
      <trkpt lat="46.52129" lon="5.86101">
        <ele>891</ele>
        <time>2021-05-08T13:29:35Z</time>
      </trkpt>
      <trkpt lat="46.52109" lon="5.86114">
        <ele>892</ele>
        <time>2021-05-08T13:29:39Z</time>
      </trkpt>
      <trkpt lat="46.52087" lon="5.86135">
        <ele>892</ele>
        <time>2021-05-08T13:29:44Z</time>
      </trkpt>
      <trkpt lat="46.52073" lon="5.86159">
        <ele>895</ele>
        <time>2021-05-08T13:29:48Z</time>
      </trkpt>
      <trkpt lat="46.5206" lon="5.86203">
        <ele>896</ele>
        <time>2021-05-08T13:29:54Z</time>
      </trkpt>
      <trkpt lat="46.52049" lon="5.8635">
        <ele>895</ele>
        <time>2021-05-08T13:30:12Z</time>
      </trkpt>
      <trkpt lat="46.52037" lon="5.86411">
        <ele>897</ele>
        <time>2021-05-08T13:30:20Z</time>
      </trkpt>
      <trkpt lat="46.52044" lon="5.86467">
        <ele>898</ele>
        <time>2021-05-08T13:30:27Z</time>
      </trkpt>
      <trkpt lat="46.52044" lon="5.86519">
        <ele>899</ele>
        <time>2021-05-08T13:30:33Z</time>
      </trkpt>
      <trkpt lat="46.5203" lon="5.86575">
        <ele>899</ele>
        <time>2021-05-08T13:30:40Z</time>
      </trkpt>
      <trkpt lat="46.52027" lon="5.86602">
        <ele>899</ele>
        <time>2021-05-08T13:30:44Z</time>
      </trkpt>
      <trkpt lat="46.52029" lon="5.86636">
        <ele>901</ele>
        <time>2021-05-08T13:30:48Z</time>
      </trkpt>
      <trkpt lat="46.52047" lon="5.86705">
        <ele>902</ele>
        <time>2021-05-08T13:30:57Z</time>
      </trkpt>
      <trkpt lat="46.5205" lon="5.86728">
        <ele>901</ele>
        <time>2021-05-08T13:31:00Z</time>
      </trkpt>
      <trkpt lat="46.52049" lon="5.86753">
        <ele>900</ele>
        <time>2021-05-08T13:31:03Z</time>
      </trkpt>
      <trkpt lat="46.5204" lon="5.86793">
        <ele>898</ele>
        <time>2021-05-08T13:31:08Z</time>
      </trkpt>
      <trkpt lat="46.51983" lon="5.8693">
        <ele>891</ele>
        <time>2021-05-08T13:31:27Z</time>
      </trkpt>
      <trkpt lat="46.51968" lon="5.86953">
        <ele>889</ele>
        <time>2021-05-08T13:31:31Z</time>
      </trkpt>
      <trkpt lat="46.51946" lon="5.86973">
        <ele>888</ele>
        <time>2021-05-08T13:31:36Z</time>
      </trkpt>
      <trkpt lat="46.51901" lon="5.87006">
        <ele>884</ele>
        <time>2021-05-08T13:31:45Z</time>
      </trkpt>
      <trkpt lat="46.51878" lon="5.87015">
        <ele>883</ele>
        <time>2021-05-08T13:31:49Z</time>
      </trkpt>
      <trkpt lat="46.51764" lon="5.8701">
        <ele>880</ele>
        <time>2021-05-08T13:32:09Z</time>
      </trkpt>
      <trkpt lat="46.51623" lon="5.87031">
        <ele>869</ele>
        <time>2021-05-08T13:32:35Z</time>
      </trkpt>
      <trkpt lat="46.51611" lon="5.87035">
        <ele>868</ele>
        <time>2021-05-08T13:32:37Z</time>
      </trkpt>
      <trkpt lat="46.51594" lon="5.87046">
        <ele>867</ele>
        <time>2021-05-08T13:32:40Z</time>
      </trkpt>
      <trkpt lat="46.51577" lon="5.87065">
        <ele>867</ele>
        <time>2021-05-08T13:32:44Z</time>
      </trkpt>
      <trkpt lat="46.51547" lon="5.8711">
        <ele>868</ele>
        <time>2021-05-08T13:32:52Z</time>
      </trkpt>
      <trkpt lat="46.51458" lon="5.87252">
        <ele>867</ele>
        <time>2021-05-08T13:33:15Z</time>
      </trkpt>
      <trkpt lat="46.51423" lon="5.87291">
        <ele>870</ele>
        <time>2021-05-08T13:33:23Z</time>
      </trkpt>
      <trkpt lat="46.51386" lon="5.87326">
        <ele>871</ele>
        <time>2021-05-08T13:33:31Z</time>
      </trkpt>
      <trkpt lat="46.51369" lon="5.87357">
        <ele>870</ele>
        <time>2021-05-08T13:33:36Z</time>
      </trkpt>
      <trkpt lat="46.51387" lon="5.87381">
        <ele>870</ele>
        <time>2021-05-08T13:33:40Z</time>
      </trkpt>
      <trkpt lat="46.51397" lon="5.874">
        <ele>870</ele>
        <time>2021-05-08T13:33:43Z</time>
      </trkpt>
      <trkpt lat="46.5142" lon="5.87426">
        <ele>871</ele>
        <time>2021-05-08T13:33:48Z</time>
      </trkpt>
      <trkpt lat="46.51518" lon="5.87514">
        <ele>874</ele>
        <time>2021-05-08T13:34:09Z</time>
      </trkpt>
      <trkpt lat="46.51541" lon="5.87541">
        <ele>874</ele>
        <time>2021-05-08T13:34:14Z</time>
      </trkpt>
      <trkpt lat="46.51576" lon="5.87596">
        <ele>877</ele>
        <time>2021-05-08T13:34:23Z</time>
      </trkpt>
      <trkpt lat="46.51659" lon="5.87788">
        <ele>879</ele>
        <time>2021-05-08T13:34:51Z</time>
      </trkpt>
      <trkpt lat="46.51721" lon="5.87889">
        <ele>875</ele>
        <time>2021-05-08T13:35:07Z</time>
      </trkpt>
      <trkpt lat="46.51751" lon="5.87928">
        <ele>874</ele>
        <time>2021-05-08T13:35:15Z</time>
      </trkpt>
      <trkpt lat="46.51764" lon="5.87941">
        <ele>874</ele>
        <time>2021-05-08T13:35:17Z</time>
      </trkpt>
      <trkpt lat="46.51813" lon="5.87971">
        <ele>878</ele>
        <time>2021-05-08T13:35:27Z</time>
      </trkpt>
      <trkpt lat="46.51871" lon="5.8799">
        <ele>881</ele>
        <time>2021-05-08T13:35:37Z</time>
      </trkpt>
      <trkpt lat="46.51881" lon="5.87997">
        <ele>882</ele>
        <time>2021-05-08T13:35:39Z</time>
      </trkpt>
      <trkpt lat="46.51899" lon="5.88024">
        <ele>883</ele>
        <time>2021-05-08T13:35:44Z</time>
      </trkpt>
      <trkpt lat="46.51907" lon="5.88045">
        <ele>885</ele>
        <time>2021-05-08T13:35:47Z</time>
      </trkpt>
      <trkpt lat="46.51911" lon="5.88073">
        <ele>887</ele>
        <time>2021-05-08T13:35:51Z</time>
      </trkpt>
      <trkpt lat="46.51909" lon="5.88111">
        <ele>888</ele>
        <time>2021-05-08T13:35:55Z</time>
      </trkpt>
      <trkpt lat="46.519" lon="5.88146">
        <ele>889</ele>
        <time>2021-05-08T13:36:00Z</time>
      </trkpt>
      <trkpt lat="46.51897" lon="5.88172">
        <ele>889</ele>
        <time>2021-05-08T13:36:03Z</time>
      </trkpt>
      <trkpt lat="46.51897" lon="5.88201">
        <ele>889</ele>
        <time>2021-05-08T13:36:07Z</time>
      </trkpt>
      <trkpt lat="46.51952" lon="5.88454">
        <ele>889</ele>
        <time>2021-05-08T13:36:39Z</time>
      </trkpt>
      <trkpt lat="46.51968" lon="5.88493">
        <ele>889</ele>
        <time>2021-05-08T13:36:45Z</time>
      </trkpt>
      <trkpt lat="46.52004" lon="5.88564">
        <ele>891</ele>
        <time>2021-05-08T13:36:55Z</time>
      </trkpt>
      <trkpt lat="46.52088" lon="5.88706">
        <ele>894</ele>
        <time>2021-05-08T13:37:18Z</time>
      </trkpt>
      <trkpt lat="46.52107" lon="5.88727">
        <ele>894</ele>
        <time>2021-05-08T13:37:23Z</time>
      </trkpt>
      <trkpt lat="46.52139" lon="5.8874">
        <ele>895</ele>
        <time>2021-05-08T13:37:28Z</time>
      </trkpt>
      <trkpt lat="46.52159" lon="5.88742">
        <ele>895</ele>
        <time>2021-05-08T13:37:32Z</time>
      </trkpt>
      <trkpt lat="46.52179" lon="5.8875">
        <ele>895</ele>
        <time>2021-05-08T13:37:36Z</time>
      </trkpt>
      <trkpt lat="46.522" lon="5.88769">
        <ele>894</ele>
        <time>2021-05-08T13:37:40Z</time>
      </trkpt>
      <trkpt lat="46.52213" lon="5.88788">
        <ele>894</ele>
        <time>2021-05-08T13:37:43Z</time>
      </trkpt>
      <trkpt lat="46.52228" lon="5.88825">
        <ele>895</ele>
        <time>2021-05-08T13:37:49Z</time>
      </trkpt>
      <trkpt lat="46.52274" lon="5.88987">
        <ele>893</ele>
        <time>2021-05-08T13:38:10Z</time>
      </trkpt>
      <trkpt lat="46.52295" lon="5.89034">
        <ele>894</ele>
        <time>2021-05-08T13:38:17Z</time>
      </trkpt>
      <trkpt lat="46.52332" lon="5.89106">
        <ele>896</ele>
        <time>2021-05-08T13:38:28Z</time>
      </trkpt>
      <trkpt lat="46.52348" lon="5.89144">
        <ele>895</ele>
        <time>2021-05-08T13:38:33Z</time>
      </trkpt>
      <trkpt lat="46.52383" lon="5.89306">
        <ele>894</ele>
        <time>2021-05-08T13:38:54Z</time>
      </trkpt>
      <trkpt lat="46.5243" lon="5.89391">
        <ele>893</ele>
        <time>2021-05-08T13:39:08Z</time>
      </trkpt>
      <trkpt lat="46.52443" lon="5.89425">
        <ele>893</ele>
        <time>2021-05-08T13:39:12Z</time>
      </trkpt>
      <trkpt lat="46.52462" lon="5.89488">
        <ele>894</ele>
        <time>2021-05-08T13:39:21Z</time>
      </trkpt>
      <trkpt lat="46.52516" lon="5.89585">
        <ele>896</ele>
        <time>2021-05-08T13:39:36Z</time>
      </trkpt>
      <trkpt lat="46.52616" lon="5.89703">
        <ele>896</ele>
        <time>2021-05-08T13:39:59Z</time>
      </trkpt>
      <trkpt lat="46.52631" lon="5.89713">
        <ele>895</ele>
        <time>2021-05-08T13:40:02Z</time>
      </trkpt>
      <trkpt lat="46.52645" lon="5.8972">
        <ele>895</ele>
        <time>2021-05-08T13:40:05Z</time>
      </trkpt>
      <trkpt lat="46.5266" lon="5.89722">
        <ele>895</ele>
        <time>2021-05-08T13:40:07Z</time>
      </trkpt>
      <trkpt lat="46.52691" lon="5.89718">
        <ele>895</ele>
        <time>2021-05-08T13:40:13Z</time>
      </trkpt>
      <trkpt lat="46.52712" lon="5.8972">
        <ele>894</ele>
        <time>2021-05-08T13:40:16Z</time>
      </trkpt>
      <trkpt lat="46.52738" lon="5.89732">
        <ele>894</ele>
        <time>2021-05-08T13:40:21Z</time>
      </trkpt>
      <trkpt lat="46.52763" lon="5.8975">
        <ele>894</ele>
        <time>2021-05-08T13:40:26Z</time>
      </trkpt>
      <trkpt lat="46.52815" lon="5.89775">
        <ele>894</ele>
        <time>2021-05-08T13:40:36Z</time>
      </trkpt>
      <trkpt lat="46.52899" lon="5.89797">
        <ele>893</ele>
        <time>2021-05-08T13:40:51Z</time>
      </trkpt>
      <trkpt lat="46.52975" lon="5.89828">
        <ele>896</ele>
        <time>2021-05-08T13:41:05Z</time>
      </trkpt>
      <trkpt lat="46.52997" lon="5.8984">
        <ele>897</ele>
        <time>2021-05-08T13:41:09Z</time>
      </trkpt>
      <trkpt lat="46.53014" lon="5.89855">
        <ele>897</ele>
        <time>2021-05-08T13:41:13Z</time>
      </trkpt>
      <trkpt lat="46.53041" lon="5.89893">
        <ele>898</ele>
        <time>2021-05-08T13:41:20Z</time>
      </trkpt>
      <trkpt lat="46.53081" lon="5.90008">
        <ele>896</ele>
        <time>2021-05-08T13:41:35Z</time>
      </trkpt>
      <trkpt lat="46.53145" lon="5.90147">
        <ele>896</ele>
        <time>2021-05-08T13:41:56Z</time>
      </trkpt>
      <trkpt lat="46.53189" lon="5.90207">
        <ele>897</ele>
        <time>2021-05-08T13:42:07Z</time>
      </trkpt>
      <trkpt lat="46.53206" lon="5.90233">
        <ele>897</ele>
        <time>2021-05-08T13:42:11Z</time>
      </trkpt>
      <trkpt lat="46.53219" lon="5.9026">
        <ele>896</ele>
        <time>2021-05-08T13:42:15Z</time>
      </trkpt>
      <trkpt lat="46.53237" lon="5.90331">
        <ele>892</ele>
        <time>2021-05-08T13:42:24Z</time>
      </trkpt>
      <trkpt lat="46.53253" lon="5.90375">
        <ele>892</ele>
        <time>2021-05-08T13:42:30Z</time>
      </trkpt>
      <trkpt lat="46.53275" lon="5.90403">
        <ele>893</ele>
        <time>2021-05-08T13:42:36Z</time>
      </trkpt>
      <trkpt lat="46.53305" lon="5.90427">
        <ele>894</ele>
        <time>2021-05-08T13:42:42Z</time>
      </trkpt>
      <trkpt lat="46.53327" lon="5.90438">
        <ele>894</ele>
        <time>2021-05-08T13:42:46Z</time>
      </trkpt>
      <trkpt lat="46.53349" lon="5.90441">
        <ele>894</ele>
        <time>2021-05-08T13:42:50Z</time>
      </trkpt>
      <trkpt lat="46.53368" lon="5.90436">
        <ele>893</ele>
        <time>2021-05-08T13:42:53Z</time>
      </trkpt>
      <trkpt lat="46.53419" lon="5.90413">
        <ele>891</ele>
        <time>2021-05-08T13:43:03Z</time>
      </trkpt>
      <trkpt lat="46.53428" lon="5.90412">
        <ele>891</ele>
        <time>2021-05-08T13:43:04Z</time>
      </trkpt>
      <trkpt lat="46.5347" lon="5.90419">
        <ele>891</ele>
        <time>2021-05-08T13:43:12Z</time>
      </trkpt>
      <trkpt lat="46.53502" lon="5.90431">
        <ele>891</ele>
        <time>2021-05-08T13:43:18Z</time>
      </trkpt>
      <trkpt lat="46.53517" lon="5.90445">
        <ele>891</ele>
        <time>2021-05-08T13:43:21Z</time>
      </trkpt>
      <trkpt lat="46.53548" lon="5.90487">
        <ele>890</ele>
        <time>2021-05-08T13:43:28Z</time>
      </trkpt>
      <trkpt lat="46.53666" lon="5.90687">
        <ele>891</ele>
        <time>2021-05-08T13:44:01Z</time>
      </trkpt>
      <trkpt lat="46.53723" lon="5.90816">
        <ele>890</ele>
        <time>2021-05-08T13:44:19Z</time>
      </trkpt>
      <trkpt lat="46.53811" lon="5.90947">
        <ele>892</ele>
        <time>2021-05-08T13:44:42Z</time>
      </trkpt>
      <trkpt lat="46.53862" lon="5.91012">
        <ele>890</ele>
        <time>2021-05-08T13:44:54Z</time>
      </trkpt>
      <trkpt lat="46.53881" lon="5.9104">
        <ele>891</ele>
        <time>2021-05-08T13:44:59Z</time>
      </trkpt>
      <trkpt lat="46.53903" lon="5.91079">
        <ele>891</ele>
        <time>2021-05-08T13:45:05Z</time>
      </trkpt>
      <trkpt lat="46.54018" lon="5.91213">
        <ele>893</ele>
        <time>2021-05-08T13:45:31Z</time>
      </trkpt>
      <trkpt lat="46.54043" lon="5.91247">
        <ele>893</ele>
        <time>2021-05-08T13:45:37Z</time>
      </trkpt>
      <trkpt lat="46.54094" lon="5.91298">
        <ele>892</ele>
        <time>2021-05-08T13:45:48Z</time>
      </trkpt>
      <trkpt lat="46.54119" lon="5.91339">
        <ele>891</ele>
        <time>2021-05-08T13:45:55Z</time>
      </trkpt>
      <trkpt lat="46.54131" lon="5.91364">
        <ele>890</ele>
        <time>2021-05-08T13:45:59Z</time>
      </trkpt>
      <trkpt lat="46.54139" lon="5.91389">
        <ele>889</ele>
        <time>2021-05-08T13:46:02Z</time>
      </trkpt>
      <trkpt lat="46.54143" lon="5.91408">
        <ele>888</ele>
        <time>2021-05-08T13:46:05Z</time>
      </trkpt>
      <trkpt lat="46.54143" lon="5.91439">
        <ele>887</ele>
        <time>2021-05-08T13:46:08Z</time>
      </trkpt>
      <trkpt lat="46.54139" lon="5.91466">
        <ele>885</ele>
        <time>2021-05-08T13:46:12Z</time>
      </trkpt>
      <trkpt lat="46.541" lon="5.91585">
        <ele>880</ele>
        <time>2021-05-08T13:46:28Z</time>
      </trkpt>
      <trkpt lat="46.541" lon="5.91632">
        <ele>880</ele>
        <time>2021-05-08T13:46:34Z</time>
      </trkpt>
      <trkpt lat="46.54123" lon="5.91621">
        <ele>880</ele>
        <time>2021-05-08T13:46:38Z</time>
      </trkpt>
      <trkpt lat="46.54171" lon="5.91616">
        <ele>879</ele>
        <time>2021-05-08T13:46:46Z</time>
      </trkpt>
      <trkpt lat="46.54212" lon="5.91617">
        <ele>878</ele>
        <time>2021-05-08T13:46:54Z</time>
      </trkpt>
      <trkpt lat="46.54234" lon="5.91622">
        <ele>878</ele>
        <time>2021-05-08T13:46:58Z</time>
      </trkpt>
      <trkpt lat="46.54284" lon="5.9165">
        <ele>875</ele>
        <time>2021-05-08T13:47:07Z</time>
      </trkpt>
      <trkpt lat="46.54345" lon="5.91663">
        <ele>871</ele>
        <time>2021-05-08T13:47:18Z</time>
      </trkpt>
      <trkpt lat="46.54419" lon="5.91686">
        <ele>867</ele>
        <time>2021-05-08T13:47:32Z</time>
      </trkpt>
      <trkpt lat="46.54441" lon="5.91697">
        <ele>867</ele>
        <time>2021-05-08T13:47:36Z</time>
      </trkpt>
      <trkpt lat="46.5446" lon="5.91715">
        <ele>867</ele>
        <time>2021-05-08T13:47:40Z</time>
      </trkpt>
      <trkpt lat="46.54496" lon="5.91769">
        <ele>867</ele>
        <time>2021-05-08T13:47:49Z</time>
      </trkpt>
      <trkpt lat="46.54563" lon="5.91828">
        <ele>867</ele>
        <time>2021-05-08T13:48:03Z</time>
      </trkpt>
      <trkpt lat="46.54652" lon="5.91913">
        <ele>859</ele>
        <time>2021-05-08T13:48:22Z</time>
      </trkpt>
      <trkpt lat="46.54746" lon="5.92022">
        <ele>857</ele>
        <time>2021-05-08T13:48:43Z</time>
      </trkpt>
      <trkpt lat="46.54794" lon="5.92061">
        <ele>858</ele>
        <time>2021-05-08T13:48:53Z</time>
      </trkpt>
      <trkpt lat="46.54853" lon="5.92093">
        <ele>858</ele>
        <time>2021-05-08T13:49:04Z</time>
      </trkpt>
      <trkpt lat="46.54911" lon="5.92132">
        <ele>860</ele>
        <time>2021-05-08T13:49:16Z</time>
      </trkpt>
      <trkpt lat="46.54928" lon="5.92157">
        <ele>861</ele>
        <time>2021-05-08T13:49:20Z</time>
      </trkpt>
      <trkpt lat="46.54989" lon="5.92275">
        <ele>864</ele>
        <time>2021-05-08T13:49:38Z</time>
      </trkpt>
      <trkpt lat="46.5504" lon="5.92352">
        <ele>865</ele>
        <time>2021-05-08T13:49:51Z</time>
      </trkpt>
      <trkpt lat="46.55061" lon="5.92403">
        <ele>867</ele>
        <time>2021-05-08T13:49:58Z</time>
      </trkpt>
      <trkpt lat="46.55073" lon="5.92426">
        <ele>869</ele>
        <time>2021-05-08T13:50:02Z</time>
      </trkpt>
      <trkpt lat="46.55092" lon="5.92455">
        <ele>872</ele>
        <time>2021-05-08T13:50:07Z</time>
      </trkpt>
      <trkpt lat="46.5515" lon="5.92528">
        <ele>875</ele>
        <time>2021-05-08T13:50:20Z</time>
      </trkpt>
      <trkpt lat="46.55175" lon="5.92557">
        <ele>876</ele>
        <time>2021-05-08T13:50:26Z</time>
      </trkpt>
      <trkpt lat="46.55217" lon="5.92595">
        <ele>874</ele>
        <time>2021-05-08T13:50:35Z</time>
      </trkpt>
      <trkpt lat="46.55245" lon="5.92629">
        <ele>873</ele>
        <time>2021-05-08T13:50:41Z</time>
      </trkpt>
      <trkpt lat="46.55262" lon="5.9266">
        <ele>875</ele>
        <time>2021-05-08T13:50:46Z</time>
      </trkpt>
      <trkpt lat="46.55318" lon="5.9278">
        <ele>880</ele>
        <time>2021-05-08T13:51:04Z</time>
      </trkpt>
      <trkpt lat="46.55334" lon="5.92799">
        <ele>880</ele>
        <time>2021-05-08T13:51:08Z</time>
      </trkpt>
      <trkpt lat="46.5535" lon="5.92809">
        <ele>880</ele>
        <time>2021-05-08T13:51:11Z</time>
      </trkpt>
      <trkpt lat="46.55371" lon="5.92817">
        <ele>880</ele>
        <time>2021-05-08T13:51:15Z</time>
      </trkpt>
      <trkpt lat="46.55607" lon="5.92892">
        <ele>879</ele>
        <time>2021-05-08T13:51:58Z</time>
      </trkpt>
      <trkpt lat="46.55655" lon="5.92895">
        <ele>880</ele>
        <time>2021-05-08T13:52:06Z</time>
      </trkpt>
      <trkpt lat="46.55694" lon="5.9289">
        <ele>880</ele>
        <time>2021-05-08T13:52:13Z</time>
      </trkpt>
      <trkpt lat="46.55729" lon="5.92894">
        <ele>879</ele>
        <time>2021-05-08T13:52:19Z</time>
      </trkpt>
      <trkpt lat="46.55752" lon="5.92904">
        <ele>880</ele>
        <time>2021-05-08T13:52:24Z</time>
      </trkpt>
      <trkpt lat="46.55779" lon="5.92921">
        <ele>880</ele>
        <time>2021-05-08T13:52:29Z</time>
      </trkpt>
      <trkpt lat="46.55962" lon="5.93123">
        <ele>888</ele>
        <time>2021-05-08T13:53:10Z</time>
      </trkpt>
      <trkpt lat="46.5604" lon="5.93198">
        <ele>889</ele>
        <time>2021-05-08T13:53:26Z</time>
      </trkpt>
      <trkpt lat="46.56063" lon="5.93224">
        <ele>889</ele>
        <time>2021-05-08T13:53:32Z</time>
      </trkpt>
      <trkpt lat="46.56098" lon="5.93275">
        <ele>890</ele>
        <time>2021-05-08T13:53:40Z</time>
      </trkpt>
      <trkpt lat="46.56122" lon="5.93316">
        <ele>891</ele>
        <time>2021-05-08T13:53:47Z</time>
      </trkpt>
      <trkpt lat="46.56144" lon="5.93342">
        <ele>890</ele>
        <time>2021-05-08T13:53:52Z</time>
      </trkpt>
      <trkpt lat="46.56175" lon="5.93369">
        <ele>890</ele>
        <time>2021-05-08T13:53:59Z</time>
      </trkpt>
      <trkpt lat="46.563" lon="5.93451">
        <ele>895</ele>
        <time>2021-05-08T13:54:23Z</time>
      </trkpt>
      <trkpt lat="46.56341" lon="5.93483">
        <ele>896</ele>
        <time>2021-05-08T13:54:31Z</time>
      </trkpt>
      <trkpt lat="46.56364" lon="5.93505">
        <ele>897</ele>
        <time>2021-05-08T13:54:36Z</time>
      </trkpt>
      <trkpt lat="46.56426" lon="5.93556">
        <ele>898</ele>
        <time>2021-05-08T13:54:49Z</time>
      </trkpt>
      <trkpt lat="46.56446" lon="5.93568">
        <ele>898</ele>
        <time>2021-05-08T13:54:53Z</time>
      </trkpt>
      <trkpt lat="46.56466" lon="5.93575">
        <ele>898</ele>
        <time>2021-05-08T13:54:56Z</time>
      </trkpt>
      <trkpt lat="46.56497" lon="5.93576">
        <ele>898</ele>
        <time>2021-05-08T13:55:02Z</time>
      </trkpt>
      <trkpt lat="46.56588" lon="5.93552">
        <ele>898</ele>
        <time>2021-05-08T13:55:18Z</time>
      </trkpt>
      <trkpt lat="46.56631" lon="5.9355">
        <ele>899</ele>
        <time>2021-05-08T13:55:26Z</time>
      </trkpt>
      <trkpt lat="46.56683" lon="5.9356">
        <ele>900</ele>
        <time>2021-05-08T13:55:35Z</time>
      </trkpt>
      <trkpt lat="46.56758" lon="5.93587">
        <ele>901</ele>
        <time>2021-05-08T13:55:49Z</time>
      </trkpt>
      <trkpt lat="46.56776" lon="5.93601">
        <ele>902</ele>
        <time>2021-05-08T13:55:53Z</time>
      </trkpt>
      <trkpt lat="46.56797" lon="5.93626">
        <ele>902</ele>
        <time>2021-05-08T13:55:57Z</time>
      </trkpt>
      <trkpt lat="46.56837" lon="5.93696">
        <ele>905</ele>
        <time>2021-05-08T13:56:09Z</time>
      </trkpt>
      <trkpt lat="46.56859" lon="5.93726">
        <ele>906</ele>
        <time>2021-05-08T13:56:14Z</time>
      </trkpt>
      <trkpt lat="46.56882" lon="5.93747">
        <ele>906</ele>
        <time>2021-05-08T13:56:19Z</time>
      </trkpt>
      <trkpt lat="46.56907" lon="5.93758">
        <ele>908</ele>
        <time>2021-05-08T13:56:23Z</time>
      </trkpt>
      <trkpt lat="46.56955" lon="5.93772">
        <ele>907</ele>
        <time>2021-05-08T13:56:32Z</time>
      </trkpt>
      <trkpt lat="46.57091" lon="5.93805">
        <ele>904</ele>
        <time>2021-05-08T13:56:57Z</time>
      </trkpt>
      <trkpt lat="46.57124" lon="5.93819">
        <ele>903</ele>
        <time>2021-05-08T13:57:03Z</time>
      </trkpt>
      <trkpt lat="46.57142" lon="5.93839">
        <ele>903</ele>
        <time>2021-05-08T13:57:07Z</time>
      </trkpt>
      <trkpt lat="46.57165" lon="5.93896">
        <ele>905</ele>
        <time>2021-05-08T13:57:15Z</time>
      </trkpt>
      <trkpt lat="46.57178" lon="5.9394">
        <ele>906</ele>
        <time>2021-05-08T13:57:21Z</time>
      </trkpt>
      <trkpt lat="46.57175" lon="5.9393">
        <ele>906</ele>
        <time>2021-05-08T13:57:22Z</time>
      </trkpt>
      <trkpt lat="46.57195" lon="5.93975">
        <ele>906</ele>
        <time>2021-05-08T13:57:29Z</time>
      </trkpt>
      <trkpt lat="46.57217" lon="5.94004">
        <ele>905</ele>
        <time>2021-05-08T13:57:34Z</time>
      </trkpt>
      <trkpt lat="46.57332" lon="5.94124">
        <ele>905</ele>
        <time>2021-05-08T13:57:59Z</time>
      </trkpt>
      <trkpt lat="46.57481" lon="5.94295">
        <ele>904</ele>
        <time>2021-05-08T13:58:33Z</time>
      </trkpt>
      <trkpt lat="46.57506" lon="5.94328">
        <ele>904</ele>
        <time>2021-05-08T13:58:39Z</time>
      </trkpt>
      <trkpt lat="46.57516" lon="5.9433">
        <ele>904</ele>
        <time>2021-05-08T13:58:41Z</time>
      </trkpt>
      <trkpt lat="46.57525" lon="5.94338">
        <ele>904</ele>
        <time>2021-05-08T13:58:43Z</time>
      </trkpt>
      <trkpt lat="46.57526" lon="5.94321">
        <ele>904</ele>
        <time>2021-05-08T13:58:45Z</time>
      </trkpt>
      <trkpt lat="46.57512" lon="5.94221">
        <ele>907</ele>
        <time>2021-05-08T13:58:57Z</time>
      </trkpt>
      <trkpt lat="46.57506" lon="5.94144">
        <ele>908</ele>
        <time>2021-05-08T13:59:07Z</time>
      </trkpt>
      <trkpt lat="46.57505" lon="5.93825">
        <ele>902</ele>
        <time>2021-05-08T13:59:46Z</time>
      </trkpt>
      <trkpt lat="46.57508" lon="5.93786">
        <ele>900</ele>
        <time>2021-05-08T13:59:50Z</time>
      </trkpt>
      <trkpt lat="46.5752" lon="5.93737">
        <ele>900</ele>
        <time>2021-05-08T13:59:57Z</time>
      </trkpt>
      <trkpt lat="46.57536" lon="5.93692">
        <ele>900</ele>
        <time>2021-05-08T14:00:03Z</time>
      </trkpt>
      <trkpt lat="46.57556" lon="5.93647">
        <ele>899</ele>
        <time>2021-05-08T14:00:10Z</time>
      </trkpt>
      <trkpt lat="46.58015" lon="5.9292">
        <ele>904</ele>
        <time>2021-05-08T14:02:10Z</time>
      </trkpt>
      <trkpt lat="46.58048" lon="5.92874">
        <ele>903</ele>
        <time>2021-05-08T14:02:18Z</time>
      </trkpt>
      <trkpt lat="46.58319" lon="5.92546">
        <ele>911</ele>
        <time>2021-05-08T14:03:21Z</time>
      </trkpt>
      <trkpt lat="46.58348" lon="5.9252">
        <ele>910</ele>
        <time>2021-05-08T14:03:27Z</time>
      </trkpt>
      <trkpt lat="46.58377" lon="5.92505">
        <ele>909</ele>
        <time>2021-05-08T14:03:33Z</time>
      </trkpt>
      <trkpt lat="46.58505" lon="5.92477">
        <ele>907</ele>
        <time>2021-05-08T14:03:56Z</time>
      </trkpt>
      <trkpt lat="46.58543" lon="5.92464">
        <ele>908</ele>
        <time>2021-05-08T14:04:03Z</time>
      </trkpt>
      <trkpt lat="46.58575" lon="5.92444">
        <ele>909</ele>
        <time>2021-05-08T14:04:09Z</time>
      </trkpt>
      <trkpt lat="46.58613" lon="5.92406">
        <ele>910</ele>
        <time>2021-05-08T14:04:17Z</time>
      </trkpt>
      <trkpt lat="46.58648" lon="5.92353">
        <ele>910</ele>
        <time>2021-05-08T14:04:26Z</time>
      </trkpt>
      <trkpt lat="46.58732" lon="5.92212">
        <ele>899</ele>
        <time>2021-05-08T14:04:49Z</time>
      </trkpt>
      <trkpt lat="46.58761" lon="5.92179">
        <ele>896</ele>
        <time>2021-05-08T14:04:55Z</time>
      </trkpt>
      <trkpt lat="46.58855" lon="5.92109">
        <ele>900</ele>
        <time>2021-05-08T14:05:14Z</time>
      </trkpt>
      <trkpt lat="46.59167" lon="5.91894">
        <ele>903</ele>
        <time>2021-05-08T14:06:16Z</time>
      </trkpt>
      <trkpt lat="46.59195" lon="5.91869">
        <ele>904</ele>
        <time>2021-05-08T14:06:21Z</time>
      </trkpt>
      <trkpt lat="46.5924" lon="5.91797">
        <ele>901</ele>
        <time>2021-05-08T14:06:33Z</time>
      </trkpt>
      <trkpt lat="46.5931" lon="5.91696">
        <ele>903</ele>
        <time>2021-05-08T14:06:51Z</time>
      </trkpt>
      <trkpt lat="46.59397" lon="5.91615">
        <ele>902</ele>
        <time>2021-05-08T14:07:09Z</time>
      </trkpt>
      <trkpt lat="46.59523" lon="5.91523">
        <ele>894</ele>
        <time>2021-05-08T14:07:34Z</time>
      </trkpt>
      <trkpt lat="46.59557" lon="5.91502">
        <ele>892</ele>
        <time>2021-05-08T14:07:41Z</time>
      </trkpt>
      <trkpt lat="46.59584" lon="5.91499">
        <ele>894</ele>
        <time>2021-05-08T14:07:46Z</time>
      </trkpt>
      <trkpt lat="46.5964" lon="5.91509">
        <ele>897</ele>
        <time>2021-05-08T14:07:56Z</time>
      </trkpt>
      <trkpt lat="46.59707" lon="5.91485">
        <ele>890</ele>
        <time>2021-05-08T14:08:08Z</time>
      </trkpt>
      <trkpt lat="46.59726" lon="5.91483">
        <ele>888</ele>
        <time>2021-05-08T14:08:11Z</time>
      </trkpt>
      <trkpt lat="46.59752" lon="5.91493">
        <ele>887</ele>
        <time>2021-05-08T14:08:16Z</time>
      </trkpt>
      <trkpt lat="46.59796" lon="5.91521">
        <ele>887</ele>
        <time>2021-05-08T14:08:25Z</time>
      </trkpt>
      <trkpt lat="46.59868" lon="5.91537">
        <ele>885</ele>
        <time>2021-05-08T14:08:38Z</time>
      </trkpt>
      <trkpt lat="46.59943" lon="5.91543">
        <ele>884</ele>
        <time>2021-05-08T14:08:51Z</time>
      </trkpt>
      <trkpt lat="46.5997" lon="5.91536">
        <ele>881</ele>
        <time>2021-05-08T14:08:56Z</time>
      </trkpt>
      <trkpt lat="46.59993" lon="5.91517">
        <ele>876</ele>
        <time>2021-05-08T14:09:01Z</time>
      </trkpt>
      <trkpt lat="46.6001" lon="5.91493">
        <ele>870</ele>
        <time>2021-05-08T14:09:05Z</time>
      </trkpt>
      <trkpt lat="46.6002" lon="5.91469">
        <ele>867</ele>
        <time>2021-05-08T14:09:08Z</time>
      </trkpt>
      <trkpt lat="46.60029" lon="5.91425">
        <ele>860</ele>
        <time>2021-05-08T14:09:14Z</time>
      </trkpt>
      <trkpt lat="46.6003" lon="5.91366">
        <ele>855</ele>
        <time>2021-05-08T14:09:21Z</time>
      </trkpt>
      <trkpt lat="46.60023" lon="5.91334">
        <ele>855</ele>
        <time>2021-05-08T14:09:25Z</time>
      </trkpt>
      <trkpt lat="46.60009" lon="5.9131">
        <ele>855</ele>
        <time>2021-05-08T14:09:29Z</time>
      </trkpt>
      <trkpt lat="46.59926" lon="5.91217">
        <ele>856</ele>
        <time>2021-05-08T14:09:48Z</time>
      </trkpt>
      <trkpt lat="46.59887" lon="5.9116">
        <ele>855</ele>
        <time>2021-05-08T14:09:58Z</time>
      </trkpt>
      <trkpt lat="46.59824" lon="5.91055">
        <ele>853</ele>
        <time>2021-05-08T14:10:15Z</time>
      </trkpt>
      <trkpt lat="46.59785" lon="5.91004">
        <ele>852</ele>
        <time>2021-05-08T14:10:24Z</time>
      </trkpt>
      <trkpt lat="46.59664" lon="5.90871">
        <ele>851</ele>
        <time>2021-05-08T14:10:51Z</time>
      </trkpt>
      <trkpt lat="46.59582" lon="5.90737">
        <ele>849</ele>
        <time>2021-05-08T14:11:13Z</time>
      </trkpt>
      <trkpt lat="46.59562" lon="5.90689">
        <ele>848</ele>
        <time>2021-05-08T14:11:20Z</time>
      </trkpt>
      <trkpt lat="46.59518" lon="5.90561">
        <ele>847</ele>
        <time>2021-05-08T14:11:37Z</time>
      </trkpt>
      <trkpt lat="46.59509" lon="5.90511">
        <ele>846</ele>
        <time>2021-05-08T14:11:44Z</time>
      </trkpt>
      <trkpt lat="46.59513" lon="5.90466">
        <ele>844</ele>
        <time>2021-05-08T14:11:49Z</time>
      </trkpt>
      <trkpt lat="46.59524" lon="5.90427">
        <ele>842</ele>
        <time>2021-05-08T14:11:54Z</time>
      </trkpt>
      <trkpt lat="46.59565" lon="5.90338">
        <ele>842</ele>
        <time>2021-05-08T14:12:07Z</time>
      </trkpt>
      <trkpt lat="46.59577" lon="5.90322">
        <ele>843</ele>
        <time>2021-05-08T14:12:10Z</time>
      </trkpt>
      <trkpt lat="46.59598" lon="5.90308">
        <ele>844</ele>
        <time>2021-05-08T14:12:14Z</time>
      </trkpt>
      <trkpt lat="46.59639" lon="5.90289">
        <ele>846</ele>
        <time>2021-05-08T14:12:22Z</time>
      </trkpt>
      <trkpt lat="46.59658" lon="5.90275">
        <ele>848</ele>
        <time>2021-05-08T14:12:26Z</time>
      </trkpt>
      <trkpt lat="46.59711" lon="5.90204">
        <ele>854</ele>
        <time>2021-05-08T14:12:39Z</time>
      </trkpt>
      <trkpt lat="46.59722" lon="5.90193">
        <ele>855</ele>
        <time>2021-05-08T14:12:41Z</time>
      </trkpt>
      <trkpt lat="46.5974" lon="5.90181">
        <ele>856</ele>
        <time>2021-05-08T14:12:45Z</time>
      </trkpt>
      <trkpt lat="46.59766" lon="5.90173">
        <ele>856</ele>
        <time>2021-05-08T14:12:49Z</time>
      </trkpt>
      <trkpt lat="46.59855" lon="5.9017">
        <ele>856</ele>
        <time>2021-05-08T14:13:05Z</time>
      </trkpt>
      <trkpt lat="46.59878" lon="5.90174">
        <ele>856</ele>
        <time>2021-05-08T14:13:09Z</time>
      </trkpt>
      <trkpt lat="46.59902" lon="5.90184">
        <ele>855</ele>
        <time>2021-05-08T14:13:14Z</time>
      </trkpt>
      <trkpt lat="46.59922" lon="5.90203">
        <ele>855</ele>
        <time>2021-05-08T14:13:18Z</time>
      </trkpt>
      <trkpt lat="46.59931" lon="5.90216">
        <ele>856</ele>
        <time>2021-05-08T14:13:20Z</time>
      </trkpt>
      <trkpt lat="46.59956" lon="5.90261">
        <ele>859</ele>
        <time>2021-05-08T14:13:27Z</time>
      </trkpt>
      <trkpt lat="46.59982" lon="5.903">
        <ele>862</ele>
        <time>2021-05-08T14:13:34Z</time>
      </trkpt>
      <trkpt lat="46.59996" lon="5.90312">
        <ele>863</ele>
        <time>2021-05-08T14:13:37Z</time>
      </trkpt>
      <trkpt lat="46.60012" lon="5.90321">
        <ele>864</ele>
        <time>2021-05-08T14:13:40Z</time>
      </trkpt>
      <trkpt lat="46.60041" lon="5.90328">
        <ele>865</ele>
        <time>2021-05-08T14:13:45Z</time>
      </trkpt>
      <trkpt lat="46.60074" lon="5.90322">
        <ele>866</ele>
        <time>2021-05-08T14:13:51Z</time>
      </trkpt>
      <trkpt lat="46.60193" lon="5.90247">
        <ele>875</ele>
        <time>2021-05-08T14:14:14Z</time>
      </trkpt>
      <trkpt lat="46.60218" lon="5.90234">
        <ele>877</ele>
        <time>2021-05-08T14:14:19Z</time>
      </trkpt>
      <trkpt lat="46.6025" lon="5.90228">
        <ele>879</ele>
        <time>2021-05-08T14:14:25Z</time>
      </trkpt>
      <trkpt lat="46.6026" lon="5.90229">
        <ele>880</ele>
        <time>2021-05-08T14:14:26Z</time>
      </trkpt>
      <trkpt lat="46.60287" lon="5.90239">
        <ele>881</ele>
        <time>2021-05-08T14:14:31Z</time>
      </trkpt>
      <trkpt lat="46.60315" lon="5.90268">
        <ele>882</ele>
        <time>2021-05-08T14:14:37Z</time>
      </trkpt>
      <trkpt lat="46.60374" lon="5.90347">
        <ele>884</ele>
        <time>2021-05-08T14:14:52Z</time>
      </trkpt>
      <trkpt lat="46.60393" lon="5.90368">
        <ele>884</ele>
        <time>2021-05-08T14:14:56Z</time>
      </trkpt>
      <trkpt lat="46.60409" lon="5.90377">
        <ele>884</ele>
        <time>2021-05-08T14:14:59Z</time>
      </trkpt>
      <trkpt lat="46.60424" lon="5.90381">
        <ele>885</ele>
        <time>2021-05-08T14:15:02Z</time>
      </trkpt>
      <trkpt lat="46.60448" lon="5.90377">
        <ele>886</ele>
        <time>2021-05-08T14:15:06Z</time>
      </trkpt>
      <trkpt lat="46.60482" lon="5.90357">
        <ele>889</ele>
        <time>2021-05-08T14:15:12Z</time>
      </trkpt>
      <trkpt lat="46.60504" lon="5.90347">
        <ele>890</ele>
        <time>2021-05-08T14:15:17Z</time>
      </trkpt>
      <trkpt lat="46.60576" lon="5.90341">
        <ele>892</ele>
        <time>2021-05-08T14:15:29Z</time>
      </trkpt>
      <trkpt lat="46.60604" lon="5.90342">
        <ele>893</ele>
        <time>2021-05-08T14:15:34Z</time>
      </trkpt>
      <trkpt lat="46.60618" lon="5.90346">
        <ele>892</ele>
        <time>2021-05-08T14:15:37Z</time>
      </trkpt>
      <trkpt lat="46.60643" lon="5.90365">
        <ele>891</ele>
        <time>2021-05-08T14:15:42Z</time>
      </trkpt>
      <trkpt lat="46.60673" lon="5.90383">
        <ele>891</ele>
        <time>2021-05-08T14:15:48Z</time>
      </trkpt>
      <trkpt lat="46.607" lon="5.90388">
        <ele>892</ele>
        <time>2021-05-08T14:15:53Z</time>
      </trkpt>
      <trkpt lat="46.60755" lon="5.90387">
        <ele>894</ele>
        <time>2021-05-08T14:16:02Z</time>
      </trkpt>
      <trkpt lat="46.60792" lon="5.90378">
        <ele>895</ele>
        <time>2021-05-08T14:16:09Z</time>
      </trkpt>
      <trkpt lat="46.60859" lon="5.90357">
        <ele>897</ele>
        <time>2021-05-08T14:16:21Z</time>
      </trkpt>
      <trkpt lat="46.60887" lon="5.90336">
        <ele>897</ele>
        <time>2021-05-08T14:16:27Z</time>
      </trkpt>
      <trkpt lat="46.60926" lon="5.90281">
        <ele>900</ele>
        <time>2021-05-08T14:16:36Z</time>
      </trkpt>
      <trkpt lat="46.60956" lon="5.90216">
        <ele>892</ele>
        <time>2021-05-08T14:16:46Z</time>
      </trkpt>
      <trkpt lat="46.60959" lon="5.90198">
        <ele>889</ele>
        <time>2021-05-08T14:16:48Z</time>
      </trkpt>
      <trkpt lat="46.60958" lon="5.90183">
        <ele>887</ele>
        <time>2021-05-08T14:16:50Z</time>
      </trkpt>
      <trkpt lat="46.60949" lon="5.90159">
        <ele>886</ele>
        <time>2021-05-08T14:16:53Z</time>
      </trkpt>
      <trkpt lat="46.60932" lon="5.90142">
        <ele>888</ele>
        <time>2021-05-08T14:16:57Z</time>
      </trkpt>
      <trkpt lat="46.60908" lon="5.90125">
        <ele>892</ele>
        <time>2021-05-08T14:17:02Z</time>
      </trkpt>
      <trkpt lat="46.60889" lon="5.90101">
        <ele>894</ele>
        <time>2021-05-08T14:17:06Z</time>
      </trkpt>
      <trkpt lat="46.60878" lon="5.90077">
        <ele>895</ele>
        <time>2021-05-08T14:17:10Z</time>
      </trkpt>
      <trkpt lat="46.60846" lon="5.89982">
        <ele>893</ele>
        <time>2021-05-08T14:17:23Z</time>
      </trkpt>
      <trkpt lat="46.60833" lon="5.89924">
        <ele>884</ele>
        <time>2021-05-08T14:17:30Z</time>
      </trkpt>
      <trkpt lat="46.6083" lon="5.89892">
        <ele>880</ele>
        <time>2021-05-08T14:17:34Z</time>
      </trkpt>
      <trkpt lat="46.60784" lon="5.89745">
        <ele>884</ele>
        <time>2021-05-08T14:17:54Z</time>
      </trkpt>
      <trkpt lat="46.60773" lon="5.89692">
        <ele>885</ele>
        <time>2021-05-08T14:18:01Z</time>
      </trkpt>
      <trkpt lat="46.60769" lon="5.89647">
        <ele>884</ele>
        <time>2021-05-08T14:18:06Z</time>
      </trkpt>
      <trkpt lat="46.60771" lon="5.89624">
        <ele>883</ele>
        <time>2021-05-08T14:18:09Z</time>
      </trkpt>
      <trkpt lat="46.60783" lon="5.89595">
        <ele>879</ele>
        <time>2021-05-08T14:18:13Z</time>
      </trkpt>
      <trkpt lat="46.60794" lon="5.89585">
        <ele>877</ele>
        <time>2021-05-08T14:18:16Z</time>
      </trkpt>
      <trkpt lat="46.60802" lon="5.89583">
        <ele>875</ele>
        <time>2021-05-08T14:18:17Z</time>
      </trkpt>
      <trkpt lat="46.60811" lon="5.89586">
        <ele>873</ele>
        <time>2021-05-08T14:18:19Z</time>
      </trkpt>
      <trkpt lat="46.60838" lon="5.89611">
        <ele>867</ele>
        <time>2021-05-08T14:18:24Z</time>
      </trkpt>
      <trkpt lat="46.60862" lon="5.8964">
        <ele>868</ele>
        <time>2021-05-08T14:18:30Z</time>
      </trkpt>
      <trkpt lat="46.60921" lon="5.8973">
        <ele>857</ele>
        <time>2021-05-08T14:18:45Z</time>
      </trkpt>
      <trkpt lat="46.60929" lon="5.89738">
        <ele>856</ele>
        <time>2021-05-08T14:18:47Z</time>
      </trkpt>
      <trkpt lat="46.60938" lon="5.89743">
        <ele>855</ele>
        <time>2021-05-08T14:18:49Z</time>
      </trkpt>
      <trkpt lat="46.60957" lon="5.89747">
        <ele>854</ele>
        <time>2021-05-08T14:18:52Z</time>
      </trkpt>
      <trkpt lat="46.60986" lon="5.89758">
        <ele>853</ele>
        <time>2021-05-08T14:18:57Z</time>
      </trkpt>
      <trkpt lat="46.60998" lon="5.89765">
        <ele>851</ele>
        <time>2021-05-08T14:19:00Z</time>
      </trkpt>
      <trkpt lat="46.6102" lon="5.89767">
        <ele>849</ele>
        <time>2021-05-08T14:19:04Z</time>
      </trkpt>
      <trkpt lat="46.61032" lon="5.89764">
        <ele>848</ele>
        <time>2021-05-08T14:19:06Z</time>
      </trkpt>
      <trkpt lat="46.61047" lon="5.89755">
        <ele>848</ele>
        <time>2021-05-08T14:19:09Z</time>
      </trkpt>
      <trkpt lat="46.61092" lon="5.89722">
        <ele>848</ele>
        <time>2021-05-08T14:19:18Z</time>
      </trkpt>
      <trkpt lat="46.61108" lon="5.89704">
        <ele>846</ele>
        <time>2021-05-08T14:19:21Z</time>
      </trkpt>
      <trkpt lat="46.6112" lon="5.89675">
        <ele>846</ele>
        <time>2021-05-08T14:19:25Z</time>
      </trkpt>
      <trkpt lat="46.61128" lon="5.89641">
        <ele>846</ele>
        <time>2021-05-08T14:19:30Z</time>
      </trkpt>
      <trkpt lat="46.61133" lon="5.89587">
        <ele>850</ele>
        <time>2021-05-08T14:19:36Z</time>
      </trkpt>
      <trkpt lat="46.61138" lon="5.89562">
        <ele>849</ele>
        <time>2021-05-08T14:19:40Z</time>
      </trkpt>
      <trkpt lat="46.61157" lon="5.89504">
        <ele>841</ele>
        <time>2021-05-08T14:19:47Z</time>
      </trkpt>
      <trkpt lat="46.61161" lon="5.89473">
        <ele>838</ele>
        <time>2021-05-08T14:19:51Z</time>
      </trkpt>
      <trkpt lat="46.61137" lon="5.89316">
        <ele>841</ele>
        <time>2021-05-08T14:20:11Z</time>
      </trkpt>
      <trkpt lat="46.61161" lon="5.89473">
        <ele>838</ele>
        <time>2021-05-08T14:20:31Z</time>
      </trkpt>
      <trkpt lat="46.61157" lon="5.89504">
        <ele>841</ele>
        <time>2021-05-08T14:20:34Z</time>
      </trkpt>
      <trkpt lat="46.61166" lon="5.89509">
        <ele>836</ele>
        <time>2021-05-08T14:20:36Z</time>
      </trkpt>
      <trkpt lat="46.61409" lon="5.89468">
        <ele>820</ele>
        <time>2021-05-08T14:21:20Z</time>
      </trkpt>
      <trkpt lat="46.61421" lon="5.89464">
        <ele>819</ele>
        <time>2021-05-08T14:21:22Z</time>
      </trkpt>
      <trkpt lat="46.6143" lon="5.89447">
        <ele>816</ele>
        <time>2021-05-08T14:21:24Z</time>
      </trkpt>
      <trkpt lat="46.61432" lon="5.89438">
        <ele>814</ele>
        <time>2021-05-08T14:21:26Z</time>
      </trkpt>
      <trkpt lat="46.61431" lon="5.89426">
        <ele>812</ele>
        <time>2021-05-08T14:21:27Z</time>
      </trkpt>
      <trkpt lat="46.61427" lon="5.89414">
        <ele>810</ele>
        <time>2021-05-08T14:21:29Z</time>
      </trkpt>
      <trkpt lat="46.6142" lon="5.89406">
        <ele>810</ele>
        <time>2021-05-08T14:21:30Z</time>
      </trkpt>
      <trkpt lat="46.61336" lon="5.89374">
        <ele>808</ele>
        <time>2021-05-08T14:21:46Z</time>
      </trkpt>
      <trkpt lat="46.61317" lon="5.89364">
        <ele>807</ele>
        <time>2021-05-08T14:21:49Z</time>
      </trkpt>
      <trkpt lat="46.61294" lon="5.89347">
        <ele>804</ele>
        <time>2021-05-08T14:21:54Z</time>
      </trkpt>
      <trkpt lat="46.61287" lon="5.89338">
        <ele>802</ele>
        <time>2021-05-08T14:21:56Z</time>
      </trkpt>
      <trkpt lat="46.6128" lon="5.89322">
        <ele>799</ele>
        <time>2021-05-08T14:21:58Z</time>
      </trkpt>
      <trkpt lat="46.6128" lon="5.893">
        <ele>796</ele>
        <time>2021-05-08T14:22:01Z</time>
      </trkpt>
      <trkpt lat="46.61284" lon="5.89283">
        <ele>794</ele>
        <time>2021-05-08T14:22:03Z</time>
      </trkpt>
      <trkpt lat="46.61367" lon="5.89193">
        <ele>789</ele>
        <time>2021-05-08T14:22:21Z</time>
      </trkpt>
      <trkpt lat="46.61403" lon="5.8916">
        <ele>788</ele>
        <time>2021-05-08T14:22:29Z</time>
      </trkpt>
      <trkpt lat="46.6147" lon="5.89134">
        <ele>787</ele>
        <time>2021-05-08T14:22:41Z</time>
      </trkpt>
      <trkpt lat="46.61503" lon="5.89133">
        <ele>787</ele>
        <time>2021-05-08T14:22:47Z</time>
      </trkpt>
      <trkpt lat="46.6151" lon="5.89129">
        <ele>786</ele>
        <time>2021-05-08T14:22:48Z</time>
      </trkpt>
      <trkpt lat="46.61515" lon="5.89111">
        <ele>784</ele>
        <time>2021-05-08T14:22:51Z</time>
      </trkpt>
      <trkpt lat="46.61514" lon="5.89102">
        <ele>783</ele>
        <time>2021-05-08T14:22:52Z</time>
      </trkpt>
      <trkpt lat="46.6151" lon="5.89095">
        <ele>782</ele>
        <time>2021-05-08T14:22:53Z</time>
      </trkpt>
      <trkpt lat="46.61496" lon="5.89083">
        <ele>780</ele>
        <time>2021-05-08T14:22:56Z</time>
      </trkpt>
      <trkpt lat="46.61454" lon="5.89033">
        <ele>781</ele>
        <time>2021-05-08T14:23:05Z</time>
      </trkpt>
      <trkpt lat="46.61439" lon="5.89006">
        <ele>779</ele>
        <time>2021-05-08T14:23:10Z</time>
      </trkpt>
      <trkpt lat="46.61432" lon="5.88984">
        <ele>778</ele>
        <time>2021-05-08T14:23:13Z</time>
      </trkpt>
      <trkpt lat="46.6143" lon="5.88892">
        <ele>774</ele>
        <time>2021-05-08T14:23:24Z</time>
      </trkpt>
      <trkpt lat="46.61435" lon="5.88844">
        <ele>773</ele>
        <time>2021-05-08T14:23:30Z</time>
      </trkpt>
      <trkpt lat="46.61463" lon="5.88664">
        <ele>769</ele>
        <time>2021-05-08T14:23:52Z</time>
      </trkpt>
      <trkpt lat="46.61451" lon="5.88657">
        <ele>769</ele>
        <time>2021-05-08T14:23:55Z</time>
      </trkpt>
      <trkpt lat="46.61472" lon="5.88597">
        <ele>771</ele>
        <time>2021-05-08T14:24:03Z</time>
      </trkpt>
      <trkpt lat="46.61493" lon="5.88553">
        <ele>767</ele>
        <time>2021-05-08T14:24:10Z</time>
      </trkpt>
      <trkpt lat="46.61513" lon="5.88528">
        <ele>766</ele>
        <time>2021-05-08T14:24:14Z</time>
      </trkpt>
      <trkpt lat="46.61589" lon="5.8845">
        <ele>766</ele>
        <time>2021-05-08T14:24:31Z</time>
      </trkpt>
      <trkpt lat="46.61644" lon="5.88416">
        <ele>770</ele>
        <time>2021-05-08T14:24:41Z</time>
      </trkpt>
      <trkpt lat="46.61762" lon="5.88311">
        <ele>772</ele>
        <time>2021-05-08T14:25:06Z</time>
      </trkpt>
      <trkpt lat="46.6178" lon="5.88292">
        <ele>772</ele>
        <time>2021-05-08T14:25:10Z</time>
      </trkpt>
      <trkpt lat="46.61796" lon="5.8827">
        <ele>771</ele>
        <time>2021-05-08T14:25:14Z</time>
      </trkpt>
      <trkpt lat="46.61806" lon="5.88245">
        <ele>770</ele>
        <time>2021-05-08T14:25:17Z</time>
      </trkpt>
      <trkpt lat="46.61817" lon="5.88195">
        <ele>772</ele>
        <time>2021-05-08T14:25:24Z</time>
      </trkpt>
      <trkpt lat="46.61818" lon="5.88117">
        <ele>774</ele>
        <time>2021-05-08T14:25:33Z</time>
      </trkpt>
      <trkpt lat="46.61806" lon="5.87973">
        <ele>773</ele>
        <time>2021-05-08T14:25:51Z</time>
      </trkpt>
      <trkpt lat="46.618" lon="5.87943">
        <ele>773</ele>
        <time>2021-05-08T14:25:55Z</time>
      </trkpt>
      <trkpt lat="46.61764" lon="5.87816">
        <ele>769</ele>
        <time>2021-05-08T14:26:12Z</time>
      </trkpt>
      <trkpt lat="46.61691" lon="5.87649">
        <ele>765</ele>
        <time>2021-05-08T14:26:36Z</time>
      </trkpt>
      <trkpt lat="46.61687" lon="5.8762">
        <ele>766</ele>
        <time>2021-05-08T14:26:39Z</time>
      </trkpt>
      <trkpt lat="46.61692" lon="5.87571">
        <ele>768</ele>
        <time>2021-05-08T14:26:46Z</time>
      </trkpt>
      <trkpt lat="46.61688" lon="5.87533">
        <ele>768</ele>
        <time>2021-05-08T14:26:50Z</time>
      </trkpt>
      <trkpt lat="46.61658" lon="5.87456">
        <ele>767</ele>
        <time>2021-05-08T14:27:01Z</time>
      </trkpt>
      <trkpt lat="46.61651" lon="5.87272">
        <ele>769</ele>
        <time>2021-05-08T14:27:24Z</time>
      </trkpt>
      <trkpt lat="46.61629" lon="5.87109">
        <ele>763</ele>
        <time>2021-05-08T14:27:44Z</time>
      </trkpt>
      <trkpt lat="46.61631" lon="5.87072">
        <ele>761</ele>
        <time>2021-05-08T14:27:48Z</time>
      </trkpt>
      <trkpt lat="46.61639" lon="5.87048">
        <ele>759</ele>
        <time>2021-05-08T14:27:52Z</time>
      </trkpt>
      <trkpt lat="46.6165" lon="5.87035">
        <ele>760</ele>
        <time>2021-05-08T14:27:54Z</time>
      </trkpt>
      <trkpt lat="46.61745" lon="5.86972">
        <ele>772</ele>
        <time>2021-05-08T14:28:13Z</time>
      </trkpt>
      <trkpt lat="46.61776" lon="5.86941">
        <ele>772</ele>
        <time>2021-05-08T14:28:19Z</time>
      </trkpt>
      <trkpt lat="46.61803" lon="5.86894">
        <ele>772</ele>
        <time>2021-05-08T14:28:27Z</time>
      </trkpt>
      <trkpt lat="46.61811" lon="5.86852">
        <ele>771</ele>
        <time>2021-05-08T14:28:32Z</time>
      </trkpt>
      <trkpt lat="46.61843" lon="5.86735">
        <ele>772</ele>
        <time>2021-05-08T14:28:48Z</time>
      </trkpt>
      <trkpt lat="46.6184" lon="5.86715">
        <ele>771</ele>
        <time>2021-05-08T14:28:50Z</time>
      </trkpt>
      <trkpt lat="46.61815" lon="5.86667">
        <ele>767</ele>
        <time>2021-05-08T14:28:58Z</time>
      </trkpt>
      <trkpt lat="46.61809" lon="5.86645">
        <ele>767</ele>
        <time>2021-05-08T14:29:00Z</time>
      </trkpt>
      <trkpt lat="46.6181" lon="5.86585">
        <ele>768</ele>
        <time>2021-05-08T14:29:08Z</time>
      </trkpt>
      <trkpt lat="46.61783" lon="5.86479">
        <ele>764</ele>
        <time>2021-05-08T14:29:22Z</time>
      </trkpt>
      <trkpt lat="46.6178" lon="5.8641">
        <ele>765</ele>
        <time>2021-05-08T14:29:30Z</time>
      </trkpt>
      <trkpt lat="46.61768" lon="5.86325">
        <ele>767</ele>
        <time>2021-05-08T14:29:41Z</time>
      </trkpt>
      <trkpt lat="46.61745" lon="5.86267">
        <ele>764</ele>
        <time>2021-05-08T14:29:49Z</time>
      </trkpt>
      <trkpt lat="46.61736" lon="5.86207">
        <ele>766</ele>
        <time>2021-05-08T14:29:56Z</time>
      </trkpt>
      <trkpt lat="46.61742" lon="5.86124">
        <ele>771</ele>
        <time>2021-05-08T14:30:07Z</time>
      </trkpt>
      <trkpt lat="46.61735" lon="5.86082">
        <ele>771</ele>
        <time>2021-05-08T14:30:12Z</time>
      </trkpt>
      <trkpt lat="46.61691" lon="5.86005">
        <ele>765</ele>
        <time>2021-05-08T14:30:24Z</time>
      </trkpt>
      <trkpt lat="46.61664" lon="5.85936">
        <ele>763</ele>
        <time>2021-05-08T14:30:34Z</time>
      </trkpt>
      <trkpt lat="46.6163" lon="5.85816">
        <ele>759</ele>
        <time>2021-05-08T14:30:50Z</time>
      </trkpt>
      <trkpt lat="46.6163" lon="5.85777">
        <ele>759</ele>
        <time>2021-05-08T14:30:54Z</time>
      </trkpt>
      <trkpt lat="46.61636" lon="5.85748">
        <ele>761</ele>
        <time>2021-05-08T14:30:58Z</time>
      </trkpt>
      <trkpt lat="46.61648" lon="5.85708">
        <ele>765</ele>
        <time>2021-05-08T14:31:03Z</time>
      </trkpt>
      <trkpt lat="46.6164" lon="5.85682">
        <ele>764</ele>
        <time>2021-05-08T14:31:07Z</time>
      </trkpt>
      <trkpt lat="46.61614" lon="5.8563">
        <ele>758</ele>
        <time>2021-05-08T14:31:15Z</time>
      </trkpt>
      <trkpt lat="46.616" lon="5.85582">
        <ele>755</ele>
        <time>2021-05-08T14:31:21Z</time>
      </trkpt>
      <trkpt lat="46.61605" lon="5.85374">
        <ele>733</ele>
        <time>2021-05-08T14:31:47Z</time>
      </trkpt>
      <trkpt lat="46.61615" lon="5.85316">
        <ele>735</ele>
        <time>2021-05-08T14:31:54Z</time>
      </trkpt>
      <trkpt lat="46.61625" lon="5.85291">
        <ele>740</ele>
        <time>2021-05-08T14:31:57Z</time>
      </trkpt>
      <trkpt lat="46.61647" lon="5.85257">
        <ele>750</ele>
        <time>2021-05-08T14:32:03Z</time>
      </trkpt>
      <trkpt lat="46.61675" lon="5.85227">
        <ele>759</ele>
        <time>2021-05-08T14:32:09Z</time>
      </trkpt>
      <trkpt lat="46.61707" lon="5.85162">
        <ele>757</ele>
        <time>2021-05-08T14:32:19Z</time>
      </trkpt>
      <trkpt lat="46.61749" lon="5.85124">
        <ele>756</ele>
        <time>2021-05-08T14:32:28Z</time>
      </trkpt>
      <trkpt lat="46.61818" lon="5.85067">
        <ele>756</ele>
        <time>2021-05-08T14:32:42Z</time>
      </trkpt>
      <trkpt lat="46.61923" lon="5.84986">
        <ele>759</ele>
        <time>2021-05-08T14:33:03Z</time>
      </trkpt>
      <trkpt lat="46.61933" lon="5.84975">
        <ele>759</ele>
        <time>2021-05-08T14:33:05Z</time>
      </trkpt>
      <trkpt lat="46.61997" lon="5.8461">
        <ele>742</ele>
        <time>2021-05-08T14:33:51Z</time>
      </trkpt>
      <trkpt lat="46.61998" lon="5.84584">
        <ele>742</ele>
        <time>2021-05-08T14:33:55Z</time>
      </trkpt>
      <trkpt lat="46.61992" lon="5.84552">
        <ele>741</ele>
        <time>2021-05-08T14:33:59Z</time>
      </trkpt>
      <trkpt lat="46.61964" lon="5.84478">
        <ele>738</ele>
        <time>2021-05-08T14:34:09Z</time>
      </trkpt>
      <trkpt lat="46.61955" lon="5.84445">
        <ele>737</ele>
        <time>2021-05-08T14:34:13Z</time>
      </trkpt>
      <trkpt lat="46.61952" lon="5.844">
        <ele>738</ele>
        <time>2021-05-08T14:34:19Z</time>
      </trkpt>
      <trkpt lat="46.61955" lon="5.84229">
        <ele>734</ele>
        <time>2021-05-08T14:34:40Z</time>
      </trkpt>
      <trkpt lat="46.61948" lon="5.84103">
        <ele>728</ele>
        <time>2021-05-08T14:34:55Z</time>
      </trkpt>
      <trkpt lat="46.61942" lon="5.84019">
        <ele>725</ele>
        <time>2021-05-08T14:35:06Z</time>
      </trkpt>
      <trkpt lat="46.61935" lon="5.83994">
        <ele>724</ele>
        <time>2021-05-08T14:35:09Z</time>
      </trkpt>
      <trkpt lat="46.61916" lon="5.83898">
        <ele>715</ele>
        <time>2021-05-08T14:35:21Z</time>
      </trkpt>
      <trkpt lat="46.61916" lon="5.83874">
        <ele>712</ele>
        <time>2021-05-08T14:35:24Z</time>
      </trkpt>
      <trkpt lat="46.61921" lon="5.83839">
        <ele>709</ele>
        <time>2021-05-08T14:35:28Z</time>
      </trkpt>
      <trkpt lat="46.61929" lon="5.8382">
        <ele>709</ele>
        <time>2021-05-08T14:35:31Z</time>
      </trkpt>
      <trkpt lat="46.61955" lon="5.83792">
        <ele>711</ele>
        <time>2021-05-08T14:35:37Z</time>
      </trkpt>
      <trkpt lat="46.61965" lon="5.83771">
        <ele>712</ele>
        <time>2021-05-08T14:35:40Z</time>
      </trkpt>
      <trkpt lat="46.61972" lon="5.83743">
        <ele>711</ele>
        <time>2021-05-08T14:35:44Z</time>
      </trkpt>
      <trkpt lat="46.61979" lon="5.83688">
        <ele>710</ele>
        <time>2021-05-08T14:35:50Z</time>
      </trkpt>
      <trkpt lat="46.61975" lon="5.83639">
        <ele>708</ele>
        <time>2021-05-08T14:35:56Z</time>
      </trkpt>
      <trkpt lat="46.61964" lon="5.83592">
        <ele>705</ele>
        <time>2021-05-08T14:36:02Z</time>
      </trkpt>
      <trkpt lat="46.61961" lon="5.83566">
        <ele>703</ele>
        <time>2021-05-08T14:36:06Z</time>
      </trkpt>
      <trkpt lat="46.61962" lon="5.83542">
        <ele>703</ele>
        <time>2021-05-08T14:36:09Z</time>
      </trkpt>
      <trkpt lat="46.61967" lon="5.83518">
        <ele>702</ele>
        <time>2021-05-08T14:36:12Z</time>
      </trkpt>
      <trkpt lat="46.62002" lon="5.83445">
        <ele>702</ele>
        <time>2021-05-08T14:36:23Z</time>
      </trkpt>
      <trkpt lat="46.62036" lon="5.83353">
        <ele>698</ele>
        <time>2021-05-08T14:36:35Z</time>
      </trkpt>
      <trkpt lat="46.62141" lon="5.83143">
        <ele>690</ele>
        <time>2021-05-08T14:37:07Z</time>
      </trkpt>
      <trkpt lat="46.62235" lon="5.82981">
        <ele>682</ele>
        <time>2021-05-08T14:37:33Z</time>
      </trkpt>
      <trkpt lat="46.62287" lon="5.82921">
        <ele>676</ele>
        <time>2021-05-08T14:37:45Z</time>
      </trkpt>
      <trkpt lat="46.62336" lon="5.8289">
        <ele>674</ele>
        <time>2021-05-08T14:37:54Z</time>
      </trkpt>
      <trkpt lat="46.62345" lon="5.82889">
        <ele>673</ele>
        <time>2021-05-08T14:37:56Z</time>
      </trkpt>
      <trkpt lat="46.62362" lon="5.82892">
        <ele>672</ele>
        <time>2021-05-08T14:37:59Z</time>
      </trkpt>
      <trkpt lat="46.62481" lon="5.82953">
        <ele>668</ele>
        <time>2021-05-08T14:38:21Z</time>
      </trkpt>
      <trkpt lat="46.62498" lon="5.8295">
        <ele>667</ele>
        <time>2021-05-08T14:38:24Z</time>
      </trkpt>
      <trkpt lat="46.62512" lon="5.82945">
        <ele>666</ele>
        <time>2021-05-08T14:38:27Z</time>
      </trkpt>
      <trkpt lat="46.62758" lon="5.82803">
        <ele>651</ele>
        <time>2021-05-08T14:39:14Z</time>
      </trkpt>
      <trkpt lat="46.62781" lon="5.82799">
        <ele>649</ele>
        <time>2021-05-08T14:39:18Z</time>
      </trkpt>
      <trkpt lat="46.62798" lon="5.82804">
        <ele>649</ele>
        <time>2021-05-08T14:39:21Z</time>
      </trkpt>
      <trkpt lat="46.62808" lon="5.82811">
        <ele>649</ele>
        <time>2021-05-08T14:39:23Z</time>
      </trkpt>
      <trkpt lat="46.62838" lon="5.82848">
        <ele>648</ele>
        <time>2021-05-08T14:39:30Z</time>
      </trkpt>
      <trkpt lat="46.62849" lon="5.82857">
        <ele>647</ele>
        <time>2021-05-08T14:39:33Z</time>
      </trkpt>
      <trkpt lat="46.62904" lon="5.82889">
        <ele>639</ele>
        <time>2021-05-08T14:39:43Z</time>
      </trkpt>
      <trkpt lat="46.62934" lon="5.82903">
        <ele>637</ele>
        <time>2021-05-08T14:39:49Z</time>
      </trkpt>
      <trkpt lat="46.6305" lon="5.8294">
        <ele>635</ele>
        <time>2021-05-08T14:40:10Z</time>
      </trkpt>
      <trkpt lat="46.6307" lon="5.82944">
        <ele>634</ele>
        <time>2021-05-08T14:40:13Z</time>
      </trkpt>
      <trkpt lat="46.63131" lon="5.82942">
        <ele>629</ele>
        <time>2021-05-08T14:40:24Z</time>
      </trkpt>
      <trkpt lat="46.63147" lon="5.82945">
        <ele>627</ele>
        <time>2021-05-08T14:40:27Z</time>
      </trkpt>
      <trkpt lat="46.63169" lon="5.82955">
        <ele>626</ele>
        <time>2021-05-08T14:40:31Z</time>
      </trkpt>
      <trkpt lat="46.63213" lon="5.8299">
        <ele>625</ele>
        <time>2021-05-08T14:40:40Z</time>
      </trkpt>
      <trkpt lat="46.6324" lon="5.83006">
        <ele>623</ele>
        <time>2021-05-08T14:40:45Z</time>
      </trkpt>
      <trkpt lat="46.63264" lon="5.83013">
        <ele>623</ele>
        <time>2021-05-08T14:40:50Z</time>
      </trkpt>
      <trkpt lat="46.6328" lon="5.83013">
        <ele>623</ele>
        <time>2021-05-08T14:40:53Z</time>
      </trkpt>
      <trkpt lat="46.63325" lon="5.82998">
        <ele>623</ele>
        <time>2021-05-08T14:41:01Z</time>
      </trkpt>
      <trkpt lat="46.63352" lon="5.82996">
        <ele>623</ele>
        <time>2021-05-08T14:41:06Z</time>
      </trkpt>
      <trkpt lat="46.63441" lon="5.83001">
        <ele>621</ele>
        <time>2021-05-08T14:41:21Z</time>
      </trkpt>
      <trkpt lat="46.63463" lon="5.82991">
        <ele>622</ele>
        <time>2021-05-08T14:41:26Z</time>
      </trkpt>
      <trkpt lat="46.63553" lon="5.82917">
        <ele>621</ele>
        <time>2021-05-08T14:41:44Z</time>
      </trkpt>
      <trkpt lat="46.63579" lon="5.82908">
        <ele>621</ele>
        <time>2021-05-08T14:41:49Z</time>
      </trkpt>
      <trkpt lat="46.63626" lon="5.82904">
        <ele>622</ele>
        <time>2021-05-08T14:41:57Z</time>
      </trkpt>
      <trkpt lat="46.6371" lon="5.82908">
        <ele>622</ele>
        <time>2021-05-08T14:42:12Z</time>
      </trkpt>
      <trkpt lat="46.63729" lon="5.82899">
        <ele>620</ele>
        <time>2021-05-08T14:42:16Z</time>
      </trkpt>
      <trkpt lat="46.63745" lon="5.82881">
        <ele>619</ele>
        <time>2021-05-08T14:42:19Z</time>
      </trkpt>
      <trkpt lat="46.63828" lon="5.82748">
        <ele>617</ele>
        <time>2021-05-08T14:42:41Z</time>
      </trkpt>
      <trkpt lat="46.63847" lon="5.82729">
        <ele>618</ele>
        <time>2021-05-08T14:42:45Z</time>
      </trkpt>
      <trkpt lat="46.63882" lon="5.82707">
        <ele>618</ele>
        <time>2021-05-08T14:42:52Z</time>
      </trkpt>
      <trkpt lat="46.63899" lon="5.82693">
        <ele>618</ele>
        <time>2021-05-08T14:42:55Z</time>
      </trkpt>
      <trkpt lat="46.63913" lon="5.82675">
        <ele>617</ele>
        <time>2021-05-08T14:42:59Z</time>
      </trkpt>
      <trkpt lat="46.63951" lon="5.8261">
        <ele>616</ele>
        <time>2021-05-08T14:43:09Z</time>
      </trkpt>
      <trkpt lat="46.6397" lon="5.82584">
        <ele>615</ele>
        <time>2021-05-08T14:43:14Z</time>
      </trkpt>
      <trkpt lat="46.64119" lon="5.82433">
        <ele>611</ele>
        <time>2021-05-08T14:43:46Z</time>
      </trkpt>
      <trkpt lat="46.64133" lon="5.82423">
        <ele>611</ele>
        <time>2021-05-08T14:43:49Z</time>
      </trkpt>
      <trkpt lat="46.64166" lon="5.82412">
        <ele>611</ele>
        <time>2021-05-08T14:43:55Z</time>
      </trkpt>
      <trkpt lat="46.64208" lon="5.82405">
        <ele>611</ele>
        <time>2021-05-08T14:44:02Z</time>
      </trkpt>
      <trkpt lat="46.64379" lon="5.82398">
        <ele>609</ele>
        <time>2021-05-08T14:44:33Z</time>
      </trkpt>
      <trkpt lat="46.64438" lon="5.82392">
        <ele>612</ele>
        <time>2021-05-08T14:44:43Z</time>
      </trkpt>
      <trkpt lat="46.64449" lon="5.82389">
        <ele>612</ele>
        <time>2021-05-08T14:44:45Z</time>
      </trkpt>
      <trkpt lat="46.64466" lon="5.82381">
        <ele>613</ele>
        <time>2021-05-08T14:44:49Z</time>
      </trkpt>
      <trkpt lat="46.64526" lon="5.82329">
        <ele>614</ele>
        <time>2021-05-08T14:45:01Z</time>
      </trkpt>
      <trkpt lat="46.64538" lon="5.82324">
        <ele>613</ele>
        <time>2021-05-08T14:45:03Z</time>
      </trkpt>
      <trkpt lat="46.64583" lon="5.82313">
        <ele>613</ele>
        <time>2021-05-08T14:45:11Z</time>
      </trkpt>
      <trkpt lat="46.64673" lon="5.82254">
        <ele>615</ele>
        <time>2021-05-08T14:45:29Z</time>
      </trkpt>
      <trkpt lat="46.64739" lon="5.82221">
        <ele>615</ele>
        <time>2021-05-08T14:45:41Z</time>
      </trkpt>
      <trkpt lat="46.64932" lon="5.82142">
        <ele>615</ele>
        <time>2021-05-08T14:46:17Z</time>
      </trkpt>
      <trkpt lat="46.64971" lon="5.82118">
        <ele>614</ele>
        <time>2021-05-08T14:46:25Z</time>
      </trkpt>
      <trkpt lat="46.65027" lon="5.82071">
        <ele>612</ele>
        <time>2021-05-08T14:46:36Z</time>
      </trkpt>
      <trkpt lat="46.65052" lon="5.8206">
        <ele>612</ele>
        <time>2021-05-08T14:46:41Z</time>
      </trkpt>
      <trkpt lat="46.65115" lon="5.82043">
        <ele>613</ele>
        <time>2021-05-08T14:46:52Z</time>
      </trkpt>
      <trkpt lat="46.65132" lon="5.82036">
        <ele>613</ele>
        <time>2021-05-08T14:46:55Z</time>
      </trkpt>
      <trkpt lat="46.6516" lon="5.8202">
        <ele>613</ele>
        <time>2021-05-08T14:47:01Z</time>
      </trkpt>
      <trkpt lat="46.65232" lon="5.81962">
        <ele>611</ele>
        <time>2021-05-08T14:47:15Z</time>
      </trkpt>
      <trkpt lat="46.65275" lon="5.81933">
        <ele>609</ele>
        <time>2021-05-08T14:47:24Z</time>
      </trkpt>
      <trkpt lat="46.65351" lon="5.81892">
        <ele>606</ele>
        <time>2021-05-08T14:47:38Z</time>
      </trkpt>
      <trkpt lat="46.65382" lon="5.81851">
        <ele>605</ele>
        <time>2021-05-08T14:47:46Z</time>
      </trkpt>
      <trkpt lat="46.654" lon="5.81815">
        <ele>603</ele>
        <time>2021-05-08T14:47:51Z</time>
      </trkpt>
      <trkpt lat="46.65429" lon="5.81741">
        <ele>601</ele>
        <time>2021-05-08T14:48:01Z</time>
      </trkpt>
      <trkpt lat="46.65448" lon="5.81669">
        <ele>601</ele>
        <time>2021-05-08T14:48:11Z</time>
      </trkpt>
      <trkpt lat="46.65465" lon="5.81592">
        <ele>599</ele>
        <time>2021-05-08T14:48:21Z</time>
      </trkpt>
      <trkpt lat="46.65483" lon="5.81423">
        <ele>593</ele>
        <time>2021-05-08T14:48:42Z</time>
      </trkpt>
      <trkpt lat="46.65532" lon="5.81199">
        <ele>592</ele>
        <time>2021-05-08T14:49:10Z</time>
      </trkpt>
      <trkpt lat="46.65685" lon="5.80758">
        <ele>586</ele>
        <time>2021-05-08T14:50:11Z</time>
      </trkpt>
      <trkpt lat="46.65692" lon="5.80718">
        <ele>587</ele>
        <time>2021-05-08T14:50:16Z</time>
      </trkpt>
      <trkpt lat="46.65691" lon="5.80676">
        <ele>588</ele>
        <time>2021-05-08T14:50:21Z</time>
      </trkpt>
      <trkpt lat="46.65669" lon="5.8054">
        <ele>590</ele>
        <time>2021-05-08T14:50:38Z</time>
      </trkpt>
      <trkpt lat="46.65696" lon="5.80274">
        <ele>597</ele>
        <time>2021-05-08T14:51:11Z</time>
      </trkpt>
      <trkpt lat="46.65698" lon="5.79874">
        <ele>591</ele>
        <time>2021-05-08T14:52:00Z</time>
      </trkpt>
      <trkpt lat="46.65645" lon="5.79585">
        <ele>586</ele>
        <time>2021-05-08T14:52:36Z</time>
      </trkpt>
      <trkpt lat="46.65638" lon="5.79516">
        <ele>587</ele>
        <time>2021-05-08T14:52:45Z</time>
      </trkpt>
      <trkpt lat="46.65634" lon="5.79259">
        <ele>580</ele>
        <time>2021-05-08T14:53:16Z</time>
      </trkpt>
      <trkpt lat="46.65629" lon="5.79201">
        <ele>581</ele>
        <time>2021-05-08T14:53:23Z</time>
      </trkpt>
      <trkpt lat="46.65623" lon="5.79174">
        <ele>582</ele>
        <time>2021-05-08T14:53:27Z</time>
      </trkpt>
      <trkpt lat="46.65601" lon="5.79109">
        <ele>584</ele>
        <time>2021-05-08T14:53:35Z</time>
      </trkpt>
      <trkpt lat="46.65582" lon="5.79066">
        <ele>584</ele>
        <time>2021-05-08T14:53:42Z</time>
      </trkpt>
      <trkpt lat="46.65564" lon="5.79036">
        <ele>582</ele>
        <time>2021-05-08T14:53:47Z</time>
      </trkpt>
      <trkpt lat="46.65509" lon="5.78983">
        <ele>573</ele>
        <time>2021-05-08T14:53:58Z</time>
      </trkpt>
      <trkpt lat="46.6549" lon="5.78955">
        <ele>568</ele>
        <time>2021-05-08T14:54:03Z</time>
      </trkpt>
      <trkpt lat="46.65465" lon="5.78903">
        <ele>561</ele>
        <time>2021-05-08T14:54:11Z</time>
      </trkpt>
      <trkpt lat="46.65457" lon="5.78873">
        <ele>561</ele>
        <time>2021-05-08T14:54:15Z</time>
      </trkpt>
      <trkpt lat="46.65442" lon="5.78802">
        <ele>559</ele>
        <time>2021-05-08T14:54:24Z</time>
      </trkpt>
      <trkpt lat="46.65357" lon="5.78459">
        <ele>552</ele>
        <time>2021-05-08T14:55:08Z</time>
      </trkpt>
      <trkpt lat="46.65327" lon="5.78307">
        <ele>549</ele>
        <time>2021-05-08T14:55:28Z</time>
      </trkpt>
      <trkpt lat="46.65316" lon="5.78219">
        <ele>543</ele>
        <time>2021-05-08T14:55:39Z</time>
      </trkpt>
      <trkpt lat="46.65311" lon="5.78111">
        <ele>533</ele>
        <time>2021-05-08T14:55:52Z</time>
      </trkpt>
      <trkpt lat="46.65317" lon="5.78033">
        <ele>528</ele>
        <time>2021-05-08T14:56:01Z</time>
      </trkpt>
      <trkpt lat="46.65326" lon="5.77982">
        <ele>526</ele>
        <time>2021-05-08T14:56:08Z</time>
      </trkpt>
      <trkpt lat="46.65332" lon="5.77964">
        <ele>525</ele>
        <time>2021-05-08T14:56:10Z</time>
      </trkpt>
      <trkpt lat="46.6537" lon="5.77923">
        <ele>526</ele>
        <time>2021-05-08T14:56:19Z</time>
      </trkpt>
      <trkpt lat="46.6539" lon="5.77897">
        <ele>525</ele>
        <time>2021-05-08T14:56:23Z</time>
      </trkpt>
      <trkpt lat="46.65447" lon="5.7788">
        <ele>523</ele>
        <time>2021-05-08T14:56:34Z</time>
      </trkpt>
      <trkpt lat="46.65477" lon="5.77845">
        <ele>517</ele>
        <time>2021-05-08T14:56:41Z</time>
      </trkpt>
      <trkpt lat="46.65496" lon="5.77863">
        <ele>520</ele>
        <time>2021-05-08T14:56:45Z</time>
      </trkpt>
      <trkpt lat="46.65506" lon="5.77869">
        <ele>521</ele>
        <time>2021-05-08T14:56:47Z</time>
      </trkpt>
      <trkpt lat="46.65517" lon="5.77872">
        <ele>521</ele>
        <time>2021-05-08T14:56:49Z</time>
      </trkpt>
      <trkpt lat="46.65538" lon="5.77872">
        <ele>521</ele>
        <time>2021-05-08T14:56:52Z</time>
      </trkpt>
      <trkpt lat="46.6562" lon="5.77845">
        <ele>523</ele>
        <time>2021-05-08T14:57:07Z</time>
      </trkpt>
      <trkpt lat="46.65688" lon="5.77819">
        <ele>523</ele>
        <time>2021-05-08T14:57:20Z</time>
      </trkpt>
      <trkpt lat="46.65718" lon="5.77795">
        <ele>523</ele>
        <time>2021-05-08T14:57:26Z</time>
      </trkpt>
      <trkpt lat="46.65785" lon="5.77726">
        <ele>523</ele>
        <time>2021-05-08T14:57:41Z</time>
      </trkpt>
      <trkpt lat="46.65798" lon="5.77719">
        <ele>523</ele>
        <time>2021-05-08T14:57:43Z</time>
      </trkpt>
      <trkpt lat="46.65811" lon="5.77716">
        <ele>523</ele>
        <time>2021-05-08T14:57:45Z</time>
      </trkpt>
      <trkpt lat="46.65842" lon="5.77721">
        <ele>524</ele>
        <time>2021-05-08T14:57:51Z</time>
      </trkpt>
      <trkpt lat="46.65861" lon="5.77713">
        <ele>524</ele>
        <time>2021-05-08T14:57:54Z</time>
      </trkpt>
      <trkpt lat="46.66102" lon="5.77555">
        <ele>523</ele>
        <time>2021-05-08T14:58:41Z</time>
      </trkpt>
      <trkpt lat="46.66181" lon="5.77483">
        <ele>523</ele>
        <time>2021-05-08T14:58:58Z</time>
      </trkpt>
      <trkpt lat="46.66173" lon="5.77453">
        <ele>522</ele>
        <time>2021-05-08T14:59:02Z</time>
      </trkpt>
      <trkpt lat="46.66176" lon="5.77433">
        <ele>522</ele>
        <time>2021-05-08T14:59:04Z</time>
      </trkpt>
      <trkpt lat="46.66205" lon="5.77385">
        <ele>522</ele>
        <time>2021-05-08T14:59:12Z</time>
      </trkpt>
      <trkpt lat="46.6632" lon="5.77147">
        <ele>522</ele>
        <time>2021-05-08T14:59:48Z</time>
      </trkpt>
      <trkpt lat="46.66386" lon="5.7699">
        <ele>525</ele>
        <time>2021-05-08T15:00:10Z</time>
      </trkpt>
      <trkpt lat="46.66392" lon="5.76958">
        <ele>526</ele>
        <time>2021-05-08T15:00:14Z</time>
      </trkpt>
      <trkpt lat="46.66392" lon="5.76941">
        <ele>526</ele>
        <time>2021-05-08T15:00:16Z</time>
      </trkpt>
      <trkpt lat="46.66385" lon="5.76908">
        <ele>526</ele>
        <time>2021-05-08T15:00:21Z</time>
      </trkpt>
      <trkpt lat="46.66295" lon="5.76602">
        <ele>524</ele>
        <time>2021-05-08T15:01:01Z</time>
      </trkpt>
      <trkpt lat="46.6615" lon="5.7613">
        <ele>522</ele>
        <time>2021-05-08T15:02:04Z</time>
      </trkpt>
      <trkpt lat="46.66104" lon="5.75972">
        <ele>519</ele>
        <time>2021-05-08T15:02:25Z</time>
      </trkpt>
      <trkpt lat="46.66092" lon="5.75949">
        <ele>519</ele>
        <time>2021-05-08T15:02:29Z</time>
      </trkpt>
      <trkpt lat="46.6608" lon="5.75933">
        <ele>519</ele>
        <time>2021-05-08T15:02:32Z</time>
      </trkpt>
      <trkpt lat="46.65993" lon="5.75869">
        <ele>513</ele>
        <time>2021-05-08T15:02:49Z</time>
      </trkpt>
      <trkpt lat="46.65845" lon="5.75753">
        <ele>506</ele>
        <time>2021-05-08T15:03:19Z</time>
      </trkpt>
      <trkpt lat="46.65833" lon="5.75738">
        <ele>507</ele>
        <time>2021-05-08T15:03:22Z</time>
      </trkpt>
      <trkpt lat="46.65819" lon="5.75699">
        <ele>506</ele>
        <time>2021-05-08T15:03:27Z</time>
      </trkpt>
      <trkpt lat="46.65812" lon="5.75649">
        <ele>507</ele>
        <time>2021-05-08T15:03:33Z</time>
      </trkpt>
      <trkpt lat="46.65815" lon="5.75625">
        <ele>508</ele>
        <time>2021-05-08T15:03:36Z</time>
      </trkpt>
      <trkpt lat="46.65823" lon="5.75585">
        <ele>509</ele>
        <time>2021-05-08T15:03:42Z</time>
      </trkpt>
      <trkpt lat="46.65919" lon="5.7525">
        <ele>505</ele>
        <time>2021-05-08T15:04:26Z</time>
      </trkpt>
      <trkpt lat="46.65919" lon="5.7521">
        <ele>503</ele>
        <time>2021-05-08T15:04:31Z</time>
      </trkpt>
      <trkpt lat="46.65913" lon="5.75189">
        <ele>502</ele>
        <time>2021-05-08T15:04:34Z</time>
      </trkpt>
      <trkpt lat="46.65904" lon="5.75172">
        <ele>502</ele>
        <time>2021-05-08T15:04:36Z</time>
      </trkpt>
      <trkpt lat="46.65865" lon="5.7512">
        <ele>500</ele>
        <time>2021-05-08T15:04:46Z</time>
      </trkpt>
      <trkpt lat="46.65854" lon="5.75101">
        <ele>499</ele>
        <time>2021-05-08T15:04:49Z</time>
      </trkpt>
      <trkpt lat="46.65843" lon="5.75072">
        <ele>499</ele>
        <time>2021-05-08T15:04:53Z</time>
      </trkpt>
      <trkpt lat="46.65824" lon="5.75042">
        <ele>497</ele>
        <time>2021-05-08T15:04:58Z</time>
      </trkpt>
      <trkpt lat="46.6581" lon="5.7503">
        <ele>496</ele>
        <time>2021-05-08T15:05:01Z</time>
      </trkpt>
      <trkpt lat="46.65736" lon="5.74986">
        <ele>497</ele>
        <time>2021-05-08T15:05:15Z</time>
      </trkpt>
      <trkpt lat="46.65723" lon="5.74969">
        <ele>498</ele>
        <time>2021-05-08T15:05:18Z</time>
      </trkpt>
      <trkpt lat="46.65714" lon="5.7494">
        <ele>498</ele>
        <time>2021-05-08T15:05:22Z</time>
      </trkpt>
      <trkpt lat="46.65681" lon="5.7476">
        <ele>483</ele>
        <time>2021-05-08T15:05:44Z</time>
      </trkpt>
      <trkpt lat="46.65651" lon="5.74682">
        <ele>478</ele>
        <time>2021-05-08T15:05:55Z</time>
      </trkpt>
      <trkpt lat="46.6562" lon="5.74604">
        <ele>475</ele>
        <time>2021-05-08T15:06:06Z</time>
      </trkpt>
      <trkpt lat="46.6561" lon="5.74588">
        <ele>475</ele>
        <time>2021-05-08T15:06:09Z</time>
      </trkpt>
      <trkpt lat="46.6557" lon="5.74544">
        <ele>475</ele>
        <time>2021-05-08T15:06:18Z</time>
      </trkpt>
      <trkpt lat="46.65548" lon="5.74509">
        <ele>472</ele>
        <time>2021-05-08T15:06:24Z</time>
      </trkpt>
      <trkpt lat="46.65405" lon="5.74191">
        <ele>462</ele>
        <time>2021-05-08T15:07:10Z</time>
      </trkpt>
      <trkpt lat="46.65401" lon="5.74175">
        <ele>462</ele>
        <time>2021-05-08T15:07:12Z</time>
      </trkpt>
      <trkpt lat="46.65399" lon="5.74141">
        <ele>460</ele>
        <time>2021-05-08T15:07:16Z</time>
      </trkpt>
      <trkpt lat="46.65405" lon="5.74125">
        <ele>459</ele>
        <time>2021-05-08T15:07:19Z</time>
      </trkpt>
      <trkpt lat="46.65464" lon="5.74023">
        <ele>458</ele>
        <time>2021-05-08T15:07:35Z</time>
      </trkpt>
      <trkpt lat="46.65474" lon="5.73989">
        <ele>460</ele>
        <time>2021-05-08T15:07:39Z</time>
      </trkpt>
      <trkpt lat="46.65479" lon="5.7394">
        <ele>461</ele>
        <time>2021-05-08T15:07:46Z</time>
      </trkpt>
      <trkpt lat="46.65499" lon="5.73539">
        <ele>462</ele>
        <time>2021-05-08T15:08:35Z</time>
      </trkpt>
      <trkpt lat="46.6551" lon="5.73464">
        <ele>463</ele>
        <time>2021-05-08T15:08:44Z</time>
      </trkpt>
      <trkpt lat="46.65521" lon="5.73426">
        <ele>464</ele>
        <time>2021-05-08T15:08:49Z</time>
      </trkpt>
      <trkpt lat="46.65532" lon="5.73407">
        <ele>464</ele>
        <time>2021-05-08T15:08:52Z</time>
      </trkpt>
      <trkpt lat="46.65556" lon="5.73382">
        <ele>465</ele>
        <time>2021-05-08T15:08:57Z</time>
      </trkpt>
      <trkpt lat="46.65585" lon="5.73366">
        <ele>466</ele>
        <time>2021-05-08T15:09:03Z</time>
      </trkpt>
      <trkpt lat="46.65622" lon="5.73351">
        <ele>467</ele>
        <time>2021-05-08T15:09:10Z</time>
      </trkpt>
      <trkpt lat="46.65852" lon="5.7333">
        <ele>475</ele>
        <time>2021-05-08T15:09:51Z</time>
      </trkpt>
      <trkpt lat="46.65905" lon="5.73328">
        <ele>476</ele>
        <time>2021-05-08T15:10:00Z</time>
      </trkpt>
      <trkpt lat="46.6592" lon="5.73325">
        <ele>477</ele>
        <time>2021-05-08T15:10:03Z</time>
      </trkpt>
      <trkpt lat="46.65927" lon="5.7332">
        <ele>477</ele>
        <time>2021-05-08T15:10:04Z</time>
      </trkpt>
      <trkpt lat="46.65936" lon="5.73306">
        <ele>478</ele>
        <time>2021-05-08T15:10:07Z</time>
      </trkpt>
      <trkpt lat="46.65938" lon="5.73298">
        <ele>479</ele>
        <time>2021-05-08T15:10:08Z</time>
      </trkpt>
      <trkpt lat="46.65936" lon="5.73274">
        <ele>481</ele>
        <time>2021-05-08T15:10:11Z</time>
      </trkpt>
      <trkpt lat="46.65932" lon="5.73265">
        <ele>481</ele>
        <time>2021-05-08T15:10:12Z</time>
      </trkpt>
      <trkpt lat="46.65917" lon="5.73254">
        <ele>483</ele>
        <time>2021-05-08T15:10:15Z</time>
      </trkpt>
      <trkpt lat="46.65877" lon="5.7324">
        <ele>483</ele>
        <time>2021-05-08T15:10:22Z</time>
      </trkpt>
      <trkpt lat="46.65849" lon="5.73225">
        <ele>484</ele>
        <time>2021-05-08T15:10:27Z</time>
      </trkpt>
      <trkpt lat="46.65838" lon="5.7321">
        <ele>486</ele>
        <time>2021-05-08T15:10:30Z</time>
      </trkpt>
      <trkpt lat="46.65816" lon="5.73157">
        <ele>489</ele>
        <time>2021-05-08T15:10:38Z</time>
      </trkpt>
      <trkpt lat="46.65783" lon="5.72899">
        <ele>499</ele>
        <time>2021-05-08T15:11:10Z</time>
      </trkpt>
      <trkpt lat="46.65771" lon="5.72775">
        <ele>502</ele>
        <time>2021-05-08T15:11:25Z</time>
      </trkpt>
      <trkpt lat="46.65768" lon="5.72684">
        <ele>500</ele>
        <time>2021-05-08T15:11:36Z</time>
      </trkpt>
      <trkpt lat="46.65771" lon="5.72674">
        <ele>501</ele>
        <time>2021-05-08T15:11:37Z</time>
      </trkpt>
      <trkpt lat="46.65775" lon="5.72668">
        <ele>502</ele>
        <time>2021-05-08T15:11:39Z</time>
      </trkpt>
      <trkpt lat="46.65781" lon="5.72665">
        <ele>504</ele>
        <time>2021-05-08T15:11:40Z</time>
      </trkpt>
      <trkpt lat="46.65789" lon="5.72666">
        <ele>506</ele>
        <time>2021-05-08T15:11:41Z</time>
      </trkpt>
      <trkpt lat="46.65795" lon="5.72671">
        <ele>508</ele>
        <time>2021-05-08T15:11:42Z</time>
      </trkpt>
      <trkpt lat="46.65799" lon="5.7268">
        <ele>509</ele>
        <time>2021-05-08T15:11:44Z</time>
      </trkpt>
      <trkpt lat="46.6581" lon="5.72748">
        <ele>511</ele>
        <time>2021-05-08T15:11:52Z</time>
      </trkpt>
      <trkpt lat="46.65836" lon="5.72794">
        <ele>516</ele>
        <time>2021-05-08T15:11:59Z</time>
      </trkpt>
      <trkpt lat="46.65846" lon="5.72817">
        <ele>518</ele>
        <time>2021-05-08T15:12:03Z</time>
      </trkpt>
      <trkpt lat="46.65861" lon="5.72891">
        <ele>515</ele>
        <time>2021-05-08T15:12:12Z</time>
      </trkpt>
      <trkpt lat="46.6588" lon="5.72965">
        <ele>514</ele>
        <time>2021-05-08T15:12:22Z</time>
      </trkpt>
      <trkpt lat="46.65897" lon="5.73015">
        <ele>514</ele>
        <time>2021-05-08T15:12:29Z</time>
      </trkpt>
      <trkpt lat="46.65912" lon="5.73039">
        <ele>516</ele>
        <time>2021-05-08T15:12:33Z</time>
      </trkpt>
      <trkpt lat="46.65924" lon="5.73048">
        <ele>516</ele>
        <time>2021-05-08T15:12:35Z</time>
      </trkpt>
      <trkpt lat="46.65942" lon="5.73054">
        <ele>515</ele>
        <time>2021-05-08T15:12:38Z</time>
      </trkpt>
      <trkpt lat="46.65952" lon="5.73052">
        <ele>514</ele>
        <time>2021-05-08T15:12:40Z</time>
      </trkpt>
      <trkpt lat="46.65963" lon="5.73046">
        <ele>514</ele>
        <time>2021-05-08T15:12:42Z</time>
      </trkpt>
      <trkpt lat="46.6597" lon="5.73038">
        <ele>515</ele>
        <time>2021-05-08T15:12:44Z</time>
      </trkpt>
      <trkpt lat="46.65995" lon="5.72999">
        <ele>519</ele>
        <time>2021-05-08T15:12:50Z</time>
      </trkpt>
      <trkpt lat="46.66045" lon="5.72939">
        <ele>521</ele>
        <time>2021-05-08T15:13:02Z</time>
      </trkpt>
      <trkpt lat="46.66077" lon="5.72889">
        <ele>531</ele>
        <time>2021-05-08T15:13:10Z</time>
      </trkpt>
      <trkpt lat="46.66092" lon="5.72876">
        <ele>534</ele>
        <time>2021-05-08T15:13:13Z</time>
      </trkpt>
      <trkpt lat="46.66206" lon="5.72815">
        <ele>541</ele>
        <time>2021-05-08T15:13:35Z</time>
      </trkpt>
      <trkpt lat="46.66234" lon="5.72797">
        <ele>540</ele>
        <time>2021-05-08T15:13:40Z</time>
      </trkpt>
      <trkpt lat="46.66262" lon="5.72773">
        <ele>538</ele>
        <time>2021-05-08T15:13:46Z</time>
      </trkpt>
      <trkpt lat="46.66281" lon="5.72745">
        <ele>537</ele>
        <time>2021-05-08T15:13:51Z</time>
      </trkpt>
      <trkpt lat="46.66319" lon="5.72634">
        <ele>539</ele>
        <time>2021-05-08T15:14:06Z</time>
      </trkpt>
      <trkpt lat="46.66321" lon="5.72575">
        <ele>542</ele>
        <time>2021-05-08T15:14:13Z</time>
      </trkpt>
      <trkpt lat="46.66314" lon="5.72534">
        <ele>545</ele>
        <time>2021-05-08T15:14:18Z</time>
      </trkpt>
      <trkpt lat="46.66295" lon="5.7248">
        <ele>548</ele>
        <time>2021-05-08T15:14:26Z</time>
      </trkpt>
      <trkpt lat="46.66274" lon="5.72444">
        <ele>550</ele>
        <time>2021-05-08T15:14:32Z</time>
      </trkpt>
      <trkpt lat="46.66166" lon="5.72294">
        <ele>566</ele>
        <time>2021-05-08T15:14:58Z</time>
      </trkpt>
      <trkpt lat="46.66149" lon="5.72282">
        <ele>567</ele>
        <time>2021-05-08T15:15:01Z</time>
      </trkpt>
      <trkpt lat="46.661" lon="5.72273">
        <ele>567</ele>
        <time>2021-05-08T15:15:10Z</time>
      </trkpt>
      <trkpt lat="46.6609" lon="5.72268">
        <ele>567</ele>
        <time>2021-05-08T15:15:12Z</time>
      </trkpt>
      <trkpt lat="46.66074" lon="5.72251">
        <ele>565</ele>
        <time>2021-05-08T15:15:16Z</time>
      </trkpt>
      <trkpt lat="46.66045" lon="5.72203">
        <ele>566</ele>
        <time>2021-05-08T15:15:23Z</time>
      </trkpt>
      <trkpt lat="46.66006" lon="5.72149">
        <ele>565</ele>
        <time>2021-05-08T15:15:33Z</time>
      </trkpt>
      <trkpt lat="46.65997" lon="5.72123">
        <ele>565</ele>
        <time>2021-05-08T15:15:37Z</time>
      </trkpt>
      <trkpt lat="46.65995" lon="5.72103">
        <ele>566</ele>
        <time>2021-05-08T15:15:39Z</time>
      </trkpt>
      <trkpt lat="46.65998" lon="5.72083">
        <ele>568</ele>
        <time>2021-05-08T15:15:42Z</time>
      </trkpt>
      <trkpt lat="46.66082" lon="5.71844">
        <ele>584</ele>
        <time>2021-05-08T15:16:14Z</time>
      </trkpt>
      <trkpt lat="46.66104" lon="5.71768">
        <ele>582</ele>
        <time>2021-05-08T15:16:24Z</time>
      </trkpt>
      <trkpt lat="46.66104" lon="5.71699">
        <ele>578</ele>
        <time>2021-05-08T15:16:33Z</time>
      </trkpt>
      <trkpt lat="46.6607" lon="5.71566">
        <ele>569</ele>
        <time>2021-05-08T15:16:50Z</time>
      </trkpt>
      <trkpt lat="46.66066" lon="5.7153">
        <ele>567</ele>
        <time>2021-05-08T15:16:55Z</time>
      </trkpt>
      <trkpt lat="46.66067" lon="5.71493">
        <ele>564</ele>
        <time>2021-05-08T15:16:59Z</time>
      </trkpt>
      <trkpt lat="46.66076" lon="5.71456">
        <ele>561</ele>
        <time>2021-05-08T15:17:04Z</time>
      </trkpt>
      <trkpt lat="46.66093" lon="5.71419">
        <ele>559</ele>
        <time>2021-05-08T15:17:09Z</time>
      </trkpt>
      <trkpt lat="46.66141" lon="5.71357">
        <ele>559</ele>
        <time>2021-05-08T15:17:21Z</time>
      </trkpt>
      <trkpt lat="46.66483" lon="5.70942">
        <ele>562</ele>
        <time>2021-05-08T15:18:40Z</time>
      </trkpt>
      <trkpt lat="46.66525" lon="5.70893">
        <ele>562</ele>
        <time>2021-05-08T15:18:50Z</time>
      </trkpt>
      <trkpt lat="46.66546" lon="5.70873">
        <ele>563</ele>
        <time>2021-05-08T15:18:54Z</time>
      </trkpt>
      <trkpt lat="46.6656" lon="5.70865">
        <ele>563</ele>
        <time>2021-05-08T15:18:57Z</time>
      </trkpt>
      <trkpt lat="46.66638" lon="5.70835">
        <ele>561</ele>
        <time>2021-05-08T15:19:11Z</time>
      </trkpt>
      <trkpt lat="46.66683" lon="5.70826">
        <ele>560</ele>
        <time>2021-05-08T15:19:19Z</time>
      </trkpt>
      <trkpt lat="46.66993" lon="5.70803">
        <ele>561</ele>
        <time>2021-05-08T15:20:14Z</time>
      </trkpt>
      <trkpt lat="46.67012" lon="5.70794">
        <ele>560</ele>
        <time>2021-05-08T15:20:18Z</time>
      </trkpt>
      <trkpt lat="46.67022" lon="5.70776">
        <ele>560</ele>
        <time>2021-05-08T15:20:21Z</time>
      </trkpt>
      <trkpt lat="46.67025" lon="5.70763">
        <ele>560</ele>
        <time>2021-05-08T15:20:22Z</time>
      </trkpt>
      <trkpt lat="46.67022" lon="5.70707">
        <ele>557</ele>
        <time>2021-05-08T15:20:29Z</time>
      </trkpt>
      <trkpt lat="46.67016" lon="5.70661">
        <ele>556</ele>
        <time>2021-05-08T15:20:35Z</time>
      </trkpt>
      <trkpt lat="46.66998" lon="5.70571">
        <ele>554</ele>
        <time>2021-05-08T15:20:46Z</time>
      </trkpt>
      <trkpt lat="46.66928" lon="5.70383">
        <ele>554</ele>
        <time>2021-05-08T15:21:13Z</time>
      </trkpt>
      <trkpt lat="46.66884" lon="5.7031">
        <ele>548</ele>
        <time>2021-05-08T15:21:24Z</time>
      </trkpt>
      <trkpt lat="46.6681" lon="5.70232">
        <ele>548</ele>
        <time>2021-05-08T15:21:41Z</time>
      </trkpt>
      <trkpt lat="46.66775" lon="5.70178">
        <ele>549</ele>
        <time>2021-05-08T15:21:50Z</time>
      </trkpt>
      <trkpt lat="46.66739" lon="5.70115">
        <ele>548</ele>
        <time>2021-05-08T15:22:00Z</time>
      </trkpt>
      <trkpt lat="46.66714" lon="5.70015">
        <ele>543</ele>
        <time>2021-05-08T15:22:13Z</time>
      </trkpt>
      <trkpt lat="46.66711" lon="5.69957">
        <ele>539</ele>
        <time>2021-05-08T15:22:20Z</time>
      </trkpt>
      <trkpt lat="46.66734" lon="5.69766">
        <ele>521</ele>
        <time>2021-05-08T15:22:44Z</time>
      </trkpt>
      <trkpt lat="46.66762" lon="5.69627">
        <ele>520</ele>
        <time>2021-05-08T15:23:01Z</time>
      </trkpt>
      <trkpt lat="46.66795" lon="5.69524">
        <ele>521</ele>
        <time>2021-05-08T15:23:15Z</time>
      </trkpt>
      <trkpt lat="46.66874" lon="5.6932">
        <ele>530</ele>
        <time>2021-05-08T15:23:44Z</time>
      </trkpt>
      <trkpt lat="46.66887" lon="5.69292">
        <ele>531</ele>
        <time>2021-05-08T15:23:48Z</time>
      </trkpt>
      <trkpt lat="46.66922" lon="5.69233">
        <ele>532</ele>
        <time>2021-05-08T15:23:57Z</time>
      </trkpt>
      <trkpt lat="46.67101" lon="5.69018">
        <ele>537</ele>
        <time>2021-05-08T15:24:39Z</time>
      </trkpt>
      <trkpt lat="46.67122" lon="5.68982">
        <ele>538</ele>
        <time>2021-05-08T15:24:44Z</time>
      </trkpt>
      <trkpt lat="46.67128" lon="5.68953">
        <ele>538</ele>
        <time>2021-05-08T15:24:48Z</time>
      </trkpt>
      <trkpt lat="46.67148" lon="5.68745">
        <ele>534</ele>
        <time>2021-05-08T15:25:14Z</time>
      </trkpt>
      <trkpt lat="46.67193" lon="5.67137">
        <ele>511</ele>
        <time>2021-05-08T15:28:30Z</time>
      </trkpt>
      <trkpt lat="46.67189" lon="5.67086">
        <ele>512</ele>
        <time>2021-05-08T15:28:37Z</time>
      </trkpt>
      <trkpt lat="46.67094" lon="5.66507">
        <ele>507</ele>
        <time>2021-05-08T15:29:49Z</time>
      </trkpt>
      <trkpt lat="46.67086" lon="5.66478">
        <ele>507</ele>
        <time>2021-05-08T15:29:53Z</time>
      </trkpt>
      <trkpt lat="46.6703" lon="5.66349">
        <ele>506</ele>
        <time>2021-05-08T15:30:12Z</time>
      </trkpt>
      <trkpt lat="46.67001" lon="5.6622">
        <ele>508</ele>
        <time>2021-05-08T15:30:28Z</time>
      </trkpt>
      <trkpt lat="46.6698" lon="5.66154">
        <ele>506</ele>
        <time>2021-05-08T15:30:37Z</time>
      </trkpt>
      <trkpt lat="46.66701" lon="5.65457">
        <ele>513</ele>
        <time>2021-05-08T15:32:16Z</time>
      </trkpt>
      <trkpt lat="46.6664" lon="5.65274">
        <ele>515</ele>
        <time>2021-05-08T15:32:40Z</time>
      </trkpt>
      <trkpt lat="46.66631" lon="5.65236">
        <ele>515</ele>
        <time>2021-05-08T15:32:45Z</time>
      </trkpt>
      <trkpt lat="46.66627" lon="5.65205">
        <ele>515</ele>
        <time>2021-05-08T15:32:49Z</time>
      </trkpt>
      <trkpt lat="46.6663" lon="5.65204">
        <ele>515</ele>
        <time>2021-05-08T15:32:50Z</time>
      </trkpt>
      <trkpt lat="46.66649" lon="5.65215">
        <ele>513</ele>
        <time>2021-05-08T15:32:53Z</time>
      </trkpt>
      <trkpt lat="46.66714" lon="5.65262">
        <ele>510</ele>
        <time>2021-05-08T15:33:06Z</time>
      </trkpt>
      <trkpt lat="46.66744" lon="5.65279">
        <ele>509</ele>
        <time>2021-05-08T15:33:12Z</time>
      </trkpt>
      <trkpt lat="46.66756" lon="5.65283">
        <ele>509</ele>
        <time>2021-05-08T15:33:14Z</time>
      </trkpt>
      <trkpt lat="46.66776" lon="5.65285">
        <ele>509</ele>
        <time>2021-05-08T15:33:18Z</time>
      </trkpt>
      <trkpt lat="46.66795" lon="5.65283">
        <ele>509</ele>
        <time>2021-05-08T15:33:21Z</time>
      </trkpt>
      <trkpt lat="46.66812" lon="5.65276">
        <ele>509</ele>
        <time>2021-05-08T15:33:24Z</time>
      </trkpt>
      <trkpt lat="46.66843" lon="5.65248">
        <ele>508</ele>
        <time>2021-05-08T15:33:31Z</time>
      </trkpt>
      <trkpt lat="46.66863" lon="5.65234">
        <ele>508</ele>
        <time>2021-05-08T15:33:35Z</time>
      </trkpt>
      <trkpt lat="46.66892" lon="5.65223">
        <ele>509</ele>
        <time>2021-05-08T15:33:40Z</time>
      </trkpt>
      <trkpt lat="46.66915" lon="5.65218">
        <ele>509</ele>
        <time>2021-05-08T15:33:44Z</time>
      </trkpt>
      <trkpt lat="46.66935" lon="5.65217">
        <ele>509</ele>
        <time>2021-05-08T15:33:48Z</time>
      </trkpt>
      <trkpt lat="46.66975" lon="5.65225">
        <ele>509</ele>
        <time>2021-05-08T15:33:55Z</time>
      </trkpt>
      <trkpt lat="46.66992" lon="5.65233">
        <ele>509</ele>
        <time>2021-05-08T15:33:58Z</time>
      </trkpt>
      <trkpt lat="46.67026" lon="5.65256">
        <ele>507</ele>
        <time>2021-05-08T15:34:05Z</time>
      </trkpt>
      <trkpt lat="46.67327" lon="5.65318">
        <ele>504</ele>
        <time>2021-05-08T15:34:59Z</time>
      </trkpt>
      <trkpt lat="46.67408" lon="5.6536">
        <ele>506</ele>
        <time>2021-05-08T15:35:14Z</time>
      </trkpt>
      <trkpt lat="46.6747" lon="5.65396">
        <ele>507</ele>
        <time>2021-05-08T15:35:26Z</time>
      </trkpt>
      <trkpt lat="46.67493" lon="5.65413">
        <ele>507</ele>
        <time>2021-05-08T15:35:31Z</time>
      </trkpt>
      <trkpt lat="46.67522" lon="5.65444">
        <ele>507</ele>
        <time>2021-05-08T15:35:37Z</time>
      </trkpt>
      <trkpt lat="46.67539" lon="5.65457">
        <ele>507</ele>
        <time>2021-05-08T15:35:41Z</time>
      </trkpt>
      <trkpt lat="46.67644" lon="5.65511">
        <ele>509</ele>
        <time>2021-05-08T15:36:00Z</time>
      </trkpt>
      <trkpt lat="46.67678" lon="5.65531">
        <ele>510</ele>
        <time>2021-05-08T15:36:07Z</time>
      </trkpt>
      <trkpt lat="46.67689" lon="5.65535">
        <ele>510</ele>
        <time>2021-05-08T15:36:09Z</time>
      </trkpt>
      <trkpt lat="46.67731" lon="5.65538">
        <ele>509</ele>
        <time>2021-05-08T15:36:16Z</time>
      </trkpt>
      <trkpt lat="46.67747" lon="5.65543">
        <ele>509</ele>
        <time>2021-05-08T15:36:19Z</time>
      </trkpt>
      <trkpt lat="46.67788" lon="5.65574">
        <ele>507</ele>
        <time>2021-05-08T15:36:27Z</time>
      </trkpt>
      <trkpt lat="46.67875" lon="5.65634">
        <ele>506</ele>
        <time>2021-05-08T15:36:45Z</time>
      </trkpt>
      <trkpt lat="46.67981" lon="5.65692">
        <ele>504</ele>
        <time>2021-05-08T15:37:05Z</time>
      </trkpt>
      <trkpt lat="46.68067" lon="5.65721">
        <ele>503</ele>
        <time>2021-05-08T15:37:20Z</time>
      </trkpt>
      <trkpt lat="46.68083" lon="5.6573">
        <ele>503</ele>
        <time>2021-05-08T15:37:23Z</time>
      </trkpt>
      <trkpt lat="46.68118" lon="5.65764">
        <ele>502</ele>
        <time>2021-05-08T15:37:31Z</time>
      </trkpt>
      <trkpt lat="46.68132" lon="5.65773">
        <ele>502</ele>
        <time>2021-05-08T15:37:34Z</time>
      </trkpt>
      <trkpt lat="46.68213" lon="5.65801">
        <ele>502</ele>
        <time>2021-05-08T15:37:49Z</time>
      </trkpt>
      <trkpt lat="46.68236" lon="5.65802">
        <ele>502</ele>
        <time>2021-05-08T15:37:53Z</time>
      </trkpt>
      <trkpt lat="46.6828" lon="5.65797">
        <ele>502</ele>
        <time>2021-05-08T15:38:00Z</time>
      </trkpt>
      <trkpt lat="46.68366" lon="5.65807">
        <ele>503</ele>
        <time>2021-05-08T15:38:16Z</time>
      </trkpt>
      <trkpt lat="46.68402" lon="5.65822">
        <ele>504</ele>
        <time>2021-05-08T15:38:22Z</time>
      </trkpt>
      <trkpt lat="46.68498" lon="5.65852">
        <ele>511</ele>
        <time>2021-05-08T15:38:40Z</time>
      </trkpt>
      <trkpt lat="46.6851" lon="5.65864">
        <ele>511</ele>
        <time>2021-05-08T15:38:43Z</time>
      </trkpt>
      <trkpt lat="46.68514" lon="5.65875">
        <ele>512</ele>
        <time>2021-05-08T15:38:44Z</time>
      </trkpt>
      <trkpt lat="46.68522" lon="5.65922">
        <ele>514</ele>
        <time>2021-05-08T15:38:50Z</time>
      </trkpt>
      <trkpt lat="46.68529" lon="5.65936">
        <ele>514</ele>
        <time>2021-05-08T15:38:52Z</time>
      </trkpt>
      <trkpt lat="46.68564" lon="5.65969">
        <ele>516</ele>
        <time>2021-05-08T15:38:59Z</time>
      </trkpt>
      <trkpt lat="46.68588" lon="5.65987">
        <ele>517</ele>
        <time>2021-05-08T15:39:04Z</time>
      </trkpt>
      <trkpt lat="46.68631" lon="5.6601">
        <ele>515</ele>
        <time>2021-05-08T15:39:12Z</time>
      </trkpt>
      <trkpt lat="46.68681" lon="5.66033">
        <ele>513</ele>
        <time>2021-05-08T15:39:22Z</time>
      </trkpt>
      <trkpt lat="46.68753" lon="5.66041">
        <ele>513</ele>
        <time>2021-05-08T15:39:35Z</time>
      </trkpt>
      <trkpt lat="46.68823" lon="5.66052">
        <ele>512</ele>
        <time>2021-05-08T15:39:47Z</time>
      </trkpt>
      <trkpt lat="46.68832" lon="5.6606">
        <ele>512</ele>
        <time>2021-05-08T15:39:49Z</time>
      </trkpt>
      <trkpt lat="46.68841" lon="5.66062">
        <ele>512</ele>
        <time>2021-05-08T15:39:51Z</time>
      </trkpt>
      <trkpt lat="46.68876" lon="5.66091">
        <ele>510</ele>
        <time>2021-05-08T15:39:58Z</time>
      </trkpt>
      <trkpt lat="46.68841" lon="5.66062">
        <ele>512</ele>
        <time>2021-05-08T15:40:05Z</time>
      </trkpt>
      <trkpt lat="46.68832" lon="5.6606">
        <ele>512</ele>
        <time>2021-05-08T15:40:07Z</time>
      </trkpt>
      <trkpt lat="46.68827" lon="5.66056">
        <ele>512</ele>
        <time>2021-05-08T15:40:08Z</time>
      </trkpt>
      <trkpt lat="46.68812" lon="5.65883">
        <ele>513</ele>
        <time>2021-05-08T15:40:29Z</time>
      </trkpt>
      <trkpt lat="46.68768" lon="5.65446">
        <ele>514</ele>
        <time>2021-05-08T15:41:23Z</time>
      </trkpt>
      <trkpt lat="46.68618" lon="5.64224">
        <ele>501</ele>
        <time>2021-05-08T15:43:54Z</time>
      </trkpt>
      <trkpt lat="46.68605" lon="5.64122">
        <ele>503</ele>
        <time>2021-05-08T15:44:07Z</time>
      </trkpt>
      <trkpt lat="46.68594" lon="5.64058">
        <ele>504</ele>
        <time>2021-05-08T15:44:15Z</time>
      </trkpt>
      <trkpt lat="46.68581" lon="5.64001">
        <ele>506</ele>
        <time>2021-05-08T15:44:22Z</time>
      </trkpt>
      <trkpt lat="46.68568" lon="5.63958">
        <ele>507</ele>
        <time>2021-05-08T15:44:28Z</time>
      </trkpt>
      <trkpt lat="46.68546" lon="5.63899">
        <ele>508</ele>
        <time>2021-05-08T15:44:36Z</time>
      </trkpt>
      <trkpt lat="46.68503" lon="5.63799">
        <ele>508</ele>
        <time>2021-05-08T15:44:51Z</time>
      </trkpt>
      <trkpt lat="46.68485" lon="5.63768">
        <ele>507</ele>
        <time>2021-05-08T15:44:56Z</time>
      </trkpt>
      <trkpt lat="46.68437" lon="5.63699">
        <ele>505</ele>
        <time>2021-05-08T15:45:08Z</time>
      </trkpt>
      <trkpt lat="46.68356" lon="5.63606">
        <ele>507</ele>
        <time>2021-05-08T15:45:26Z</time>
      </trkpt>
      <trkpt lat="46.6793" lon="5.63172">
        <ele>527</ele>
        <time>2021-05-08T15:46:58Z</time>
      </trkpt>
      <trkpt lat="46.67888" lon="5.63125">
        <ele>528</ele>
        <time>2021-05-08T15:47:08Z</time>
      </trkpt>
      <trkpt lat="46.67854" lon="5.63076">
        <ele>531</ele>
        <time>2021-05-08T15:47:16Z</time>
      </trkpt>
      <trkpt lat="46.67837" lon="5.63044">
        <ele>532</ele>
        <time>2021-05-08T15:47:21Z</time>
      </trkpt>
      <trkpt lat="46.67816" lon="5.62991">
        <ele>535</ele>
        <time>2021-05-08T15:47:29Z</time>
      </trkpt>
      <trkpt lat="46.67802" lon="5.62923">
        <ele>538</ele>
        <time>2021-05-08T15:47:37Z</time>
      </trkpt>
      <trkpt lat="46.67798" lon="5.62864">
        <ele>538</ele>
        <time>2021-05-08T15:47:45Z</time>
      </trkpt>
      <trkpt lat="46.67807" lon="5.62771">
        <ele>537</ele>
        <time>2021-05-08T15:47:56Z</time>
      </trkpt>
      <trkpt lat="46.67817" lon="5.62731">
        <ele>536</ele>
        <time>2021-05-08T15:48:01Z</time>
      </trkpt>
      <trkpt lat="46.67836" lon="5.6268">
        <ele>535</ele>
        <time>2021-05-08T15:48:08Z</time>
      </trkpt>
      <trkpt lat="46.679" lon="5.62562">
        <ele>538</ele>
        <time>2021-05-08T15:48:27Z</time>
      </trkpt>
      <trkpt lat="46.67958" lon="5.62439">
        <ele>543</ele>
        <time>2021-05-08T15:48:45Z</time>
      </trkpt>
      <trkpt lat="46.68125" lon="5.62123">
        <ele>548</ele>
        <time>2021-05-08T15:49:34Z</time>
      </trkpt>
      <trkpt lat="46.68172" lon="5.62041">
        <ele>548</ele>
        <time>2021-05-08T15:49:47Z</time>
      </trkpt>
      <trkpt lat="46.68282" lon="5.61886">
        <ele>545</ele>
        <time>2021-05-08T15:50:14Z</time>
      </trkpt>
      <trkpt lat="46.68399" lon="5.61727">
        <ele>540</ele>
        <time>2021-05-08T15:50:42Z</time>
      </trkpt>
      <trkpt lat="46.68462" lon="5.61646">
        <ele>533</ele>
        <time>2021-05-08T15:50:57Z</time>
      </trkpt>
      <trkpt lat="46.68562" lon="5.61542">
        <ele>524</ele>
        <time>2021-05-08T15:51:19Z</time>
      </trkpt>
      <trkpt lat="46.68634" lon="5.61457">
        <ele>521</ele>
        <time>2021-05-08T15:51:36Z</time>
      </trkpt>
      <trkpt lat="46.68773" lon="5.61224">
        <ele>510</ele>
        <time>2021-05-08T15:52:13Z</time>
      </trkpt>
      <trkpt lat="46.68793" lon="5.61194">
        <ele>510</ele>
        <time>2021-05-08T15:52:19Z</time>
      </trkpt>
      <trkpt lat="46.68839" lon="5.61139">
        <ele>507</ele>
        <time>2021-05-08T15:52:29Z</time>
      </trkpt>
      <trkpt lat="46.68865" lon="5.61114">
        <ele>507</ele>
        <time>2021-05-08T15:52:35Z</time>
      </trkpt>
      <trkpt lat="46.68887" lon="5.61098">
        <ele>506</ele>
        <time>2021-05-08T15:52:39Z</time>
      </trkpt>
      <trkpt lat="46.68913" lon="5.61082">
        <ele>504</ele>
        <time>2021-05-08T15:52:44Z</time>
      </trkpt>
      <trkpt lat="46.68943" lon="5.61068">
        <ele>504</ele>
        <time>2021-05-08T15:52:50Z</time>
      </trkpt>
      <trkpt lat="46.69055" lon="5.6103">
        <ele>497</ele>
        <time>2021-05-08T15:53:10Z</time>
      </trkpt>
      <trkpt lat="46.6909" lon="5.61016">
        <ele>494</ele>
        <time>2021-05-08T15:53:17Z</time>
      </trkpt>
      <trkpt lat="46.69134" lon="5.60986">
        <ele>493</ele>
        <time>2021-05-08T15:53:25Z</time>
      </trkpt>
      <trkpt lat="46.69237" lon="5.60879">
        <ele>490</ele>
        <time>2021-05-08T15:53:48Z</time>
      </trkpt>
      <trkpt lat="46.69269" lon="5.60854">
        <ele>486</ele>
        <time>2021-05-08T15:53:54Z</time>
      </trkpt>
      <trkpt lat="46.69314" lon="5.60829">
        <ele>483</ele>
        <time>2021-05-08T15:54:03Z</time>
      </trkpt>
      <trkpt lat="46.6942" lon="5.60785">
        <ele>481</ele>
        <time>2021-05-08T15:54:22Z</time>
      </trkpt>
      <trkpt lat="46.69436" lon="5.60776">
        <ele>479</ele>
        <time>2021-05-08T15:54:25Z</time>
      </trkpt>
      <trkpt lat="46.69451" lon="5.60764">
        <ele>477</ele>
        <time>2021-05-08T15:54:28Z</time>
      </trkpt>
      <trkpt lat="46.69475" lon="5.60741">
        <ele>473</ele>
        <time>2021-05-08T15:54:34Z</time>
      </trkpt>
      <trkpt lat="46.69558" lon="5.60643">
        <ele>461</ele>
        <time>2021-05-08T15:54:53Z</time>
      </trkpt>
      <trkpt lat="46.69583" lon="5.60602">
        <ele>458</ele>
        <time>2021-05-08T15:54:59Z</time>
      </trkpt>
      <trkpt lat="46.69635" lon="5.60473">
        <ele>454</ele>
        <time>2021-05-08T15:55:18Z</time>
      </trkpt>
      <trkpt lat="46.69661" lon="5.60433">
        <ele>452</ele>
        <time>2021-05-08T15:55:24Z</time>
      </trkpt>
      <trkpt lat="46.69691" lon="5.60408">
        <ele>449</ele>
        <time>2021-05-08T15:55:30Z</time>
      </trkpt>
      <trkpt lat="46.69712" lon="5.60397">
        <ele>447</ele>
        <time>2021-05-08T15:55:34Z</time>
      </trkpt>
      <trkpt lat="46.69807" lon="5.60361">
        <ele>438</ele>
        <time>2021-05-08T15:55:52Z</time>
      </trkpt>
      <trkpt lat="46.6982" lon="5.60349">
        <ele>437</ele>
        <time>2021-05-08T15:55:55Z</time>
      </trkpt>
      <trkpt lat="46.69829" lon="5.60336">
        <ele>438</ele>
        <time>2021-05-08T15:55:57Z</time>
      </trkpt>
      <trkpt lat="46.69838" lon="5.60318">
        <ele>436</ele>
        <time>2021-05-08T15:56:00Z</time>
      </trkpt>
      <trkpt lat="46.69848" lon="5.60281">
        <ele>433</ele>
        <time>2021-05-08T15:56:04Z</time>
      </trkpt>
      <trkpt lat="46.69845" lon="5.60231">
        <ele>431</ele>
        <time>2021-05-08T15:56:11Z</time>
      </trkpt>
      <trkpt lat="46.69839" lon="5.60212">
        <ele>430</ele>
        <time>2021-05-08T15:56:13Z</time>
      </trkpt>
      <trkpt lat="46.69826" lon="5.60188">
        <ele>429</ele>
        <time>2021-05-08T15:56:17Z</time>
      </trkpt>
      <trkpt lat="46.69809" lon="5.60167">
        <ele>429</ele>
        <time>2021-05-08T15:56:21Z</time>
      </trkpt>
      <trkpt lat="46.69757" lon="5.6012">
        <ele>427</ele>
        <time>2021-05-08T15:56:32Z</time>
      </trkpt>
      <trkpt lat="46.69727" lon="5.60088">
        <ele>426</ele>
        <time>2021-05-08T15:56:38Z</time>
      </trkpt>
      <trkpt lat="46.69661" lon="5.59984">
        <ele>419</ele>
        <time>2021-05-08T15:56:56Z</time>
      </trkpt>
      <trkpt lat="46.69642" lon="5.59963">
        <ele>417</ele>
        <time>2021-05-08T15:57:00Z</time>
      </trkpt>
      <trkpt lat="46.69532" lon="5.59879">
        <ele>414</ele>
        <time>2021-05-08T15:57:22Z</time>
      </trkpt>
      <trkpt lat="46.69448" lon="5.59781">
        <ele>408</ele>
        <time>2021-05-08T15:57:41Z</time>
      </trkpt>
      <trkpt lat="46.69431" lon="5.59767">
        <ele>408</ele>
        <time>2021-05-08T15:57:45Z</time>
      </trkpt>
      <trkpt lat="46.6937" lon="5.59727">
        <ele>408</ele>
        <time>2021-05-08T15:57:56Z</time>
      </trkpt>
      <trkpt lat="46.69351" lon="5.59708">
        <ele>406</ele>
        <time>2021-05-08T15:58:01Z</time>
      </trkpt>
      <trkpt lat="46.69113" lon="5.59433">
        <ele>388</ele>
        <time>2021-05-08T15:58:55Z</time>
      </trkpt>
      <trkpt lat="46.69089" lon="5.59412">
        <ele>386</ele>
        <time>2021-05-08T15:59:00Z</time>
      </trkpt>
      <trkpt lat="46.69062" lon="5.59393">
        <ele>384</ele>
        <time>2021-05-08T15:59:05Z</time>
      </trkpt>
      <trkpt lat="46.68943" lon="5.59324">
        <ele>381</ele>
        <time>2021-05-08T15:59:28Z</time>
      </trkpt>
      <trkpt lat="46.68906" lon="5.59296">
        <ele>381</ele>
        <time>2021-05-08T15:59:35Z</time>
      </trkpt>
      <trkpt lat="46.68818" lon="5.5922">
        <ele>376</ele>
        <time>2021-05-08T15:59:53Z</time>
      </trkpt>
      <trkpt lat="46.68771" lon="5.59186">
        <ele>372</ele>
        <time>2021-05-08T16:00:03Z</time>
      </trkpt>
      <trkpt lat="46.68718" lon="5.59154">
        <ele>368</ele>
        <time>2021-05-08T16:00:13Z</time>
      </trkpt>
      <trkpt lat="46.68472" lon="5.59022">
        <ele>355</ele>
        <time>2021-05-08T16:00:59Z</time>
      </trkpt>
      <trkpt lat="46.68407" lon="5.58981">
        <ele>352</ele>
        <time>2021-05-08T16:01:12Z</time>
      </trkpt>
      <trkpt lat="46.68375" lon="5.58955">
        <ele>351</ele>
        <time>2021-05-08T16:01:19Z</time>
      </trkpt>
      <trkpt lat="46.68298" lon="5.58876">
        <ele>345</ele>
        <time>2021-05-08T16:01:35Z</time>
      </trkpt>
      <trkpt lat="46.68264" lon="5.58846">
        <ele>342</ele>
        <time>2021-05-08T16:01:42Z</time>
      </trkpt>
      <trkpt lat="46.68226" lon="5.58821">
        <ele>340</ele>
        <time>2021-05-08T16:01:50Z</time>
      </trkpt>
      <trkpt lat="46.6808" lon="5.58747">
        <ele>340</ele>
        <time>2021-05-08T16:02:17Z</time>
      </trkpt>
      <trkpt lat="46.67812" lon="5.58617">
        <ele>329</ele>
        <time>2021-05-08T16:03:08Z</time>
      </trkpt>
      <trkpt lat="46.67721" lon="5.58564">
        <ele>323</ele>
        <time>2021-05-08T16:03:25Z</time>
      </trkpt>
      <trkpt lat="46.67671" lon="5.58526">
        <ele>318</ele>
        <time>2021-05-08T16:03:35Z</time>
      </trkpt>
      <trkpt lat="46.67629" lon="5.58486">
        <ele>317</ele>
        <time>2021-05-08T16:03:44Z</time>
      </trkpt>
      <trkpt lat="46.67587" lon="5.5844">
        <ele>315</ele>
        <time>2021-05-08T16:03:53Z</time>
      </trkpt>
      <trkpt lat="46.67562" lon="5.58389">
        <ele>313</ele>
        <time>2021-05-08T16:04:01Z</time>
      </trkpt>
      <trkpt lat="46.67562" lon="5.58377">
        <ele>312</ele>
        <time>2021-05-08T16:04:02Z</time>
      </trkpt>
      <trkpt lat="46.67567" lon="5.58366">
        <ele>311</ele>
        <time>2021-05-08T16:04:04Z</time>
      </trkpt>
      <trkpt lat="46.67585" lon="5.58344">
        <ele>310</ele>
        <time>2021-05-08T16:04:08Z</time>
      </trkpt>
      <trkpt lat="46.67606" lon="5.58337">
        <ele>309</ele>
        <time>2021-05-08T16:04:12Z</time>
      </trkpt>
      <trkpt lat="46.67783" lon="5.58306">
        <ele>311</ele>
        <time>2021-05-08T16:04:44Z</time>
      </trkpt>
      <trkpt lat="46.67825" lon="5.58303">
        <ele>311</ele>
        <time>2021-05-08T16:04:51Z</time>
      </trkpt>
      <trkpt lat="46.68067" lon="5.58322">
        <ele>313</ele>
        <time>2021-05-08T16:05:34Z</time>
      </trkpt>
      <trkpt lat="46.68177" lon="5.58343">
        <ele>313</ele>
        <time>2021-05-08T16:05:54Z</time>
      </trkpt>
      <trkpt lat="46.68188" lon="5.58342">
        <ele>313</ele>
        <time>2021-05-08T16:05:56Z</time>
      </trkpt>
      <trkpt lat="46.68193" lon="5.58338">
        <ele>313</ele>
        <time>2021-05-08T16:05:57Z</time>
      </trkpt>
      <trkpt lat="46.68198" lon="5.58319">
        <ele>312</ele>
        <time>2021-05-08T16:06:00Z</time>
      </trkpt>
      <trkpt lat="46.68205" lon="5.58149">
        <ele>310</ele>
        <time>2021-05-08T16:06:20Z</time>
      </trkpt>
      <trkpt lat="46.68214" lon="5.58105">
        <ele>309</ele>
        <time>2021-05-08T16:06:26Z</time>
      </trkpt>
      <trkpt lat="46.68254" lon="5.58024">
        <ele>308</ele>
        <time>2021-05-08T16:06:38Z</time>
      </trkpt>
      <trkpt lat="46.68256" lon="5.58005">
        <ele>307</ele>
        <time>2021-05-08T16:06:41Z</time>
      </trkpt>
      <trkpt lat="46.6827" lon="5.5799">
        <ele>307</ele>
        <time>2021-05-08T16:06:44Z</time>
      </trkpt>
      <trkpt lat="46.68299" lon="5.57938">
        <ele>306</ele>
        <time>2021-05-08T16:06:52Z</time>
      </trkpt>
      <trkpt lat="46.68326" lon="5.57888">
        <ele>304</ele>
        <time>2021-05-08T16:07:00Z</time>
      </trkpt>
      <trkpt lat="46.68342" lon="5.57847">
        <ele>303</ele>
        <time>2021-05-08T16:07:05Z</time>
      </trkpt>
      <trkpt lat="46.68342" lon="5.57821">
        <ele>302</ele>
        <time>2021-05-08T16:07:08Z</time>
      </trkpt>
      <trkpt lat="46.68332" lon="5.5779">
        <ele>301</ele>
        <time>2021-05-08T16:07:13Z</time>
      </trkpt>
      <trkpt lat="46.68273" lon="5.57637">
        <ele>296</ele>
        <time>2021-05-08T16:07:34Z</time>
      </trkpt>
      <trkpt lat="46.68341" lon="5.57613">
        <ele>294</ele>
        <time>2021-05-08T16:07:47Z</time>
      </trkpt>
      <trkpt lat="46.68371" lon="5.57595">
        <ele>292</ele>
        <time>2021-05-08T16:07:52Z</time>
      </trkpt>
      <trkpt lat="46.68402" lon="5.57564">
        <ele>290</ele>
        <time>2021-05-08T16:07:59Z</time>
      </trkpt>
      <trkpt lat="46.68416" lon="5.57531">
        <ele>290</ele>
        <time>2021-05-08T16:08:04Z</time>
      </trkpt>
      <trkpt lat="46.68425" lon="5.57461">
        <ele>289</ele>
        <time>2021-05-08T16:08:12Z</time>
      </trkpt>
      <trkpt lat="46.68431" lon="5.57383">
        <ele>289</ele>
        <time>2021-05-08T16:08:22Z</time>
      </trkpt>
      <trkpt lat="46.68431" lon="5.57319">
        <ele>289</ele>
        <time>2021-05-08T16:08:30Z</time>
      </trkpt>
      <trkpt lat="46.68435" lon="5.57267">
        <ele>287</ele>
        <time>2021-05-08T16:08:36Z</time>
      </trkpt>
      <trkpt lat="46.68453" lon="5.57174">
        <ele>277</ele>
        <time>2021-05-08T16:08:48Z</time>
      </trkpt>
      <trkpt lat="46.68458" lon="5.57132">
        <ele>275</ele>
        <time>2021-05-08T16:08:53Z</time>
      </trkpt>
      <trkpt lat="46.68452" lon="5.57063">
        <ele>274</ele>
        <time>2021-05-08T16:09:02Z</time>
      </trkpt>
      <trkpt lat="46.68412" lon="5.56928">
        <ele>277</ele>
        <time>2021-05-08T16:09:20Z</time>
      </trkpt>
      <trkpt lat="46.68412" lon="5.56905">
        <ele>277</ele>
        <time>2021-05-08T16:09:22Z</time>
      </trkpt>
      <trkpt lat="46.68419" lon="5.5684">
        <ele>276</ele>
        <time>2021-05-08T16:09:30Z</time>
      </trkpt>
    </trkseg>
  </trk>
</gpx>